<?xml version="1.0" encoding="UTF-8" standalone="no" ?>
<gpx xmlns="http://www.topografix.com/GPX/1/1" xmlns:xsi="http://www.w3.org/2001/XMLSchema-instance" xsi:schemaLocation="http://www.topografix.com/GPX/1/1 http://www.topografix.com/GPX/1/1/gpx.xsd" version="1.1" creator="VisuGPX - https://www.visugpx.com">
  <metadata>
    <name>Cabrières / AM,ENDURO</name>
    <desc><![CDATA[Cabrieres la dh ]]></desc>
  </metadata>
  <trk>
    <name><![CDATA[Cabrières / AM,ENDURO_1]]></name>
    <trkseg>
      <trkpt lat="43.57731" lon="3.3626">
        <ele>172.2</ele>
        <time>2016-06-29T15:54:06Z</time>
      </trkpt>
      <trkpt lat="43.57729" lon="3.36262">
        <ele>168.2</ele>
        <time>2016-06-29T15:59:11Z</time>
      </trkpt>
      <trkpt lat="43.57732" lon="3.36259">
        <ele>168.1</ele>
        <time>2016-06-29T15:59:38Z</time>
      </trkpt>
      <trkpt lat="43.57734" lon="3.3626">
        <ele>168.4</ele>
        <time>2016-06-29T15:59:45Z</time>
      </trkpt>
      <trkpt lat="43.57737" lon="3.3626">
        <ele>169.1</ele>
        <time>2016-06-29T16:00:04Z</time>
      </trkpt>
      <trkpt lat="43.57739" lon="3.36257">
        <ele>169.1</ele>
        <time>2016-06-29T16:00:11Z</time>
      </trkpt>
      <trkpt lat="43.57736" lon="3.3626">
        <ele>168.3</ele>
        <time>2016-06-29T16:00:24Z</time>
      </trkpt>
      <trkpt lat="43.57733" lon="3.36259">
        <ele>168.6</ele>
        <time>2016-06-29T16:00:31Z</time>
      </trkpt>
      <trkpt lat="43.57734" lon="3.36258">
        <ele>169</ele>
        <time>2016-06-29T16:00:54Z</time>
      </trkpt>
      <trkpt lat="43.57733" lon="3.3626">
        <ele>169.6</ele>
        <time>2016-06-29T16:01:01Z</time>
      </trkpt>
      <trkpt lat="43.57735" lon="3.3626">
        <ele>169.6</ele>
        <time>2016-06-29T16:01:19Z</time>
      </trkpt>
      <trkpt lat="43.57731" lon="3.36265">
        <ele>169.7</ele>
        <time>2016-06-29T16:01:37Z</time>
      </trkpt>
      <trkpt lat="43.57731" lon="3.36259">
        <ele>170.1</ele>
        <time>2016-06-29T16:01:58Z</time>
      </trkpt>
      <trkpt lat="43.57735" lon="3.36256">
        <ele>169.5</ele>
        <time>2016-06-29T16:02:21Z</time>
      </trkpt>
      <trkpt lat="43.57737" lon="3.3625">
        <ele>169.2</ele>
        <time>2016-06-29T16:02:31Z</time>
      </trkpt>
      <trkpt lat="43.57734" lon="3.36251">
        <ele>164.9</ele>
        <time>2016-06-29T16:02:45Z</time>
      </trkpt>
      <trkpt lat="43.57732" lon="3.36261">
        <ele>164.7</ele>
        <time>2016-06-29T16:02:52Z</time>
      </trkpt>
      <trkpt lat="43.57732" lon="3.36261">
        <ele>165.8</ele>
        <time>2016-06-29T16:03:08Z</time>
      </trkpt>
      <trkpt lat="43.57733" lon="3.36259">
        <ele>166.3</ele>
        <time>2016-06-29T16:03:15Z</time>
      </trkpt>
      <trkpt lat="43.57733" lon="3.36259">
        <ele>168</ele>
        <time>2016-06-29T16:03:37Z</time>
      </trkpt>
      <trkpt lat="43.57733" lon="3.3626">
        <ele>169.1</ele>
        <time>2016-06-29T16:03:50Z</time>
      </trkpt>
      <trkpt lat="43.57735" lon="3.3626">
        <ele>169.5</ele>
        <time>2016-06-29T16:03:57Z</time>
      </trkpt>
      <trkpt lat="43.57734" lon="3.36257">
        <ele>170</ele>
        <time>2016-06-29T16:04:08Z</time>
      </trkpt>
      <trkpt lat="43.57732" lon="3.36259">
        <ele>169.9</ele>
        <time>2016-06-29T16:04:25Z</time>
      </trkpt>
      <trkpt lat="43.57734" lon="3.36259">
        <ele>170</ele>
        <time>2016-06-29T16:05:29Z</time>
      </trkpt>
      <trkpt lat="43.57736" lon="3.3626">
        <ele>169.8</ele>
        <time>2016-06-29T16:05:46Z</time>
      </trkpt>
      <trkpt lat="43.57729" lon="3.36264">
        <ele>169.8</ele>
        <time>2016-06-29T16:06:45Z</time>
      </trkpt>
      <trkpt lat="43.57732" lon="3.36274">
        <ele>170</ele>
        <time>2016-06-29T16:06:50Z</time>
      </trkpt>
      <trkpt lat="43.57737" lon="3.36284">
        <ele>170.2</ele>
        <time>2016-06-29T16:06:53Z</time>
      </trkpt>
      <trkpt lat="43.57742" lon="3.36294">
        <ele>170.3</ele>
        <time>2016-06-29T16:06:56Z</time>
      </trkpt>
      <trkpt lat="43.57748" lon="3.36301">
        <ele>170.6</ele>
        <time>2016-06-29T16:07:00Z</time>
      </trkpt>
      <trkpt lat="43.57757" lon="3.36303">
        <ele>170.7</ele>
        <time>2016-06-29T16:07:03Z</time>
      </trkpt>
      <trkpt lat="43.57765" lon="3.36304">
        <ele>170.9</ele>
        <time>2016-06-29T16:07:06Z</time>
      </trkpt>
      <trkpt lat="43.57774" lon="3.36306">
        <ele>171.1</ele>
        <time>2016-06-29T16:07:09Z</time>
      </trkpt>
      <trkpt lat="43.57784" lon="3.36308">
        <ele>171.4</ele>
        <time>2016-06-29T16:07:12Z</time>
      </trkpt>
      <trkpt lat="43.57792" lon="3.36312">
        <ele>171.5</ele>
        <time>2016-06-29T16:07:14Z</time>
      </trkpt>
      <trkpt lat="43.578" lon="3.36316">
        <ele>172.1</ele>
        <time>2016-06-29T16:07:16Z</time>
      </trkpt>
      <trkpt lat="43.57809" lon="3.36323">
        <ele>172.3</ele>
        <time>2016-06-29T16:07:18Z</time>
      </trkpt>
      <trkpt lat="43.57818" lon="3.36329">
        <ele>172.7</ele>
        <time>2016-06-29T16:07:20Z</time>
      </trkpt>
      <trkpt lat="43.57827" lon="3.36337">
        <ele>172.4</ele>
        <time>2016-06-29T16:07:22Z</time>
      </trkpt>
      <trkpt lat="43.57834" lon="3.36343">
        <ele>171.8</ele>
        <time>2016-06-29T16:07:24Z</time>
      </trkpt>
      <trkpt lat="43.57833" lon="3.36353">
        <ele>171</ele>
        <time>2016-06-29T16:07:27Z</time>
      </trkpt>
      <trkpt lat="43.57826" lon="3.36357">
        <ele>170.2</ele>
        <time>2016-06-29T16:07:29Z</time>
      </trkpt>
      <trkpt lat="43.57819" lon="3.36362">
        <ele>169.5</ele>
        <time>2016-06-29T16:07:31Z</time>
      </trkpt>
      <trkpt lat="43.57812" lon="3.36367">
        <ele>169</ele>
        <time>2016-06-29T16:07:33Z</time>
      </trkpt>
      <trkpt lat="43.57805" lon="3.36373">
        <ele>168.5</ele>
        <time>2016-06-29T16:07:35Z</time>
      </trkpt>
      <trkpt lat="43.57797" lon="3.36379">
        <ele>167.6</ele>
        <time>2016-06-29T16:07:37Z</time>
      </trkpt>
      <trkpt lat="43.57788" lon="3.36386">
        <ele>166.5</ele>
        <time>2016-06-29T16:07:39Z</time>
      </trkpt>
      <trkpt lat="43.57779" lon="3.36392">
        <ele>166.2</ele>
        <time>2016-06-29T16:07:41Z</time>
      </trkpt>
      <trkpt lat="43.57768" lon="3.36395">
        <ele>165.3</ele>
        <time>2016-06-29T16:07:43Z</time>
      </trkpt>
      <trkpt lat="43.57759" lon="3.36397">
        <ele>165.5</ele>
        <time>2016-06-29T16:07:45Z</time>
      </trkpt>
      <trkpt lat="43.5775" lon="3.36398">
        <ele>165.5</ele>
        <time>2016-06-29T16:07:47Z</time>
      </trkpt>
      <trkpt lat="43.57741" lon="3.36398">
        <ele>164.9</ele>
        <time>2016-06-29T16:07:49Z</time>
      </trkpt>
      <trkpt lat="43.57731" lon="3.36396">
        <ele>164.4</ele>
        <time>2016-06-29T16:07:51Z</time>
      </trkpt>
      <trkpt lat="43.57722" lon="3.36395">
        <ele>164.1</ele>
        <time>2016-06-29T16:07:53Z</time>
      </trkpt>
      <trkpt lat="43.57714" lon="3.36394">
        <ele>164.6</ele>
        <time>2016-06-29T16:07:55Z</time>
      </trkpt>
      <trkpt lat="43.57706" lon="3.36394">
        <ele>164.5</ele>
        <time>2016-06-29T16:07:57Z</time>
      </trkpt>
      <trkpt lat="43.57697" lon="3.36394">
        <ele>164.2</ele>
        <time>2016-06-29T16:07:59Z</time>
      </trkpt>
      <trkpt lat="43.57688" lon="3.36393">
        <ele>164.2</ele>
        <time>2016-06-29T16:08:01Z</time>
      </trkpt>
      <trkpt lat="43.57679" lon="3.3639">
        <ele>164.2</ele>
        <time>2016-06-29T16:08:03Z</time>
      </trkpt>
      <trkpt lat="43.57671" lon="3.36388">
        <ele>164.1</ele>
        <time>2016-06-29T16:08:05Z</time>
      </trkpt>
      <trkpt lat="43.57664" lon="3.36386">
        <ele>163.7</ele>
        <time>2016-06-29T16:08:07Z</time>
      </trkpt>
      <trkpt lat="43.57654" lon="3.36384">
        <ele>163.9</ele>
        <time>2016-06-29T16:08:09Z</time>
      </trkpt>
      <trkpt lat="43.57645" lon="3.36382">
        <ele>164.1</ele>
        <time>2016-06-29T16:08:11Z</time>
      </trkpt>
      <trkpt lat="43.57636" lon="3.36381">
        <ele>164</ele>
        <time>2016-06-29T16:08:13Z</time>
      </trkpt>
      <trkpt lat="43.57627" lon="3.3638">
        <ele>164.2</ele>
        <time>2016-06-29T16:08:15Z</time>
      </trkpt>
      <trkpt lat="43.57618" lon="3.36379">
        <ele>164.7</ele>
        <time>2016-06-29T16:08:17Z</time>
      </trkpt>
      <trkpt lat="43.57606" lon="3.36378">
        <ele>164.2</ele>
        <time>2016-06-29T16:08:19Z</time>
      </trkpt>
      <trkpt lat="43.57596" lon="3.36376">
        <ele>163.8</ele>
        <time>2016-06-29T16:08:21Z</time>
      </trkpt>
      <trkpt lat="43.57587" lon="3.36375">
        <ele>163.6</ele>
        <time>2016-06-29T16:08:23Z</time>
      </trkpt>
      <trkpt lat="43.57578" lon="3.36374">
        <ele>164.3</ele>
        <time>2016-06-29T16:08:25Z</time>
      </trkpt>
      <trkpt lat="43.57569" lon="3.36372">
        <ele>164.5</ele>
        <time>2016-06-29T16:08:27Z</time>
      </trkpt>
      <trkpt lat="43.57562" lon="3.3637">
        <ele>164.7</ele>
        <time>2016-06-29T16:08:29Z</time>
      </trkpt>
      <trkpt lat="43.57554" lon="3.36368">
        <ele>163.7</ele>
        <time>2016-06-29T16:08:31Z</time>
      </trkpt>
      <trkpt lat="43.57546" lon="3.36367">
        <ele>162.5</ele>
        <time>2016-06-29T16:08:33Z</time>
      </trkpt>
      <trkpt lat="43.57538" lon="3.36366">
        <ele>162.4</ele>
        <time>2016-06-29T16:08:35Z</time>
      </trkpt>
      <trkpt lat="43.57529" lon="3.36363">
        <ele>161.9</ele>
        <time>2016-06-29T16:08:37Z</time>
      </trkpt>
      <trkpt lat="43.57519" lon="3.36362">
        <ele>162</ele>
        <time>2016-06-29T16:08:39Z</time>
      </trkpt>
      <trkpt lat="43.57509" lon="3.36361">
        <ele>162.9</ele>
        <time>2016-06-29T16:08:41Z</time>
      </trkpt>
      <trkpt lat="43.575" lon="3.36359">
        <ele>163.7</ele>
        <time>2016-06-29T16:08:43Z</time>
      </trkpt>
      <trkpt lat="43.5749" lon="3.36358">
        <ele>164.3</ele>
        <time>2016-06-29T16:08:45Z</time>
      </trkpt>
      <trkpt lat="43.5748" lon="3.36357">
        <ele>164.9</ele>
        <time>2016-06-29T16:08:47Z</time>
      </trkpt>
      <trkpt lat="43.57471" lon="3.36356">
        <ele>164.6</ele>
        <time>2016-06-29T16:08:49Z</time>
      </trkpt>
      <trkpt lat="43.57462" lon="3.36354">
        <ele>164.4</ele>
        <time>2016-06-29T16:08:51Z</time>
      </trkpt>
      <trkpt lat="43.57451" lon="3.36352">
        <ele>164.2</ele>
        <time>2016-06-29T16:08:53Z</time>
      </trkpt>
      <trkpt lat="43.57442" lon="3.3635">
        <ele>164.1</ele>
        <time>2016-06-29T16:08:55Z</time>
      </trkpt>
      <trkpt lat="43.57432" lon="3.3635">
        <ele>164.7</ele>
        <time>2016-06-29T16:08:57Z</time>
      </trkpt>
      <trkpt lat="43.57422" lon="3.36351">
        <ele>164.9</ele>
        <time>2016-06-29T16:08:59Z</time>
      </trkpt>
      <trkpt lat="43.57412" lon="3.36354">
        <ele>164.9</ele>
        <time>2016-06-29T16:09:01Z</time>
      </trkpt>
      <trkpt lat="43.574" lon="3.36356">
        <ele>163.7</ele>
        <time>2016-06-29T16:09:03Z</time>
      </trkpt>
      <trkpt lat="43.57391" lon="3.36359">
        <ele>162.4</ele>
        <time>2016-06-29T16:09:05Z</time>
      </trkpt>
      <trkpt lat="43.5738" lon="3.36362">
        <ele>161.3</ele>
        <time>2016-06-29T16:09:07Z</time>
      </trkpt>
      <trkpt lat="43.57371" lon="3.36364">
        <ele>160.3</ele>
        <time>2016-06-29T16:09:09Z</time>
      </trkpt>
      <trkpt lat="43.57359" lon="3.36364">
        <ele>159.7</ele>
        <time>2016-06-29T16:09:11Z</time>
      </trkpt>
      <trkpt lat="43.57349" lon="3.36361">
        <ele>159.1</ele>
        <time>2016-06-29T16:09:13Z</time>
      </trkpt>
      <trkpt lat="43.57339" lon="3.36359">
        <ele>158.7</ele>
        <time>2016-06-29T16:09:15Z</time>
      </trkpt>
      <trkpt lat="43.57329" lon="3.36357">
        <ele>159</ele>
        <time>2016-06-29T16:09:17Z</time>
      </trkpt>
      <trkpt lat="43.57318" lon="3.36354">
        <ele>159.7</ele>
        <time>2016-06-29T16:09:19Z</time>
      </trkpt>
      <trkpt lat="43.57309" lon="3.36352">
        <ele>158.8</ele>
        <time>2016-06-29T16:09:21Z</time>
      </trkpt>
      <trkpt lat="43.57299" lon="3.36349">
        <ele>159.3</ele>
        <time>2016-06-29T16:09:23Z</time>
      </trkpt>
      <trkpt lat="43.57288" lon="3.36347">
        <ele>158.9</ele>
        <time>2016-06-29T16:09:25Z</time>
      </trkpt>
      <trkpt lat="43.57278" lon="3.36344">
        <ele>158.7</ele>
        <time>2016-06-29T16:09:27Z</time>
      </trkpt>
      <trkpt lat="43.57268" lon="3.36341">
        <ele>159.1</ele>
        <time>2016-06-29T16:09:29Z</time>
      </trkpt>
      <trkpt lat="43.57259" lon="3.36338">
        <ele>159.3</ele>
        <time>2016-06-29T16:09:31Z</time>
      </trkpt>
      <trkpt lat="43.57249" lon="3.36336">
        <ele>159.6</ele>
        <time>2016-06-29T16:09:33Z</time>
      </trkpt>
      <trkpt lat="43.5724" lon="3.36334">
        <ele>160.3</ele>
        <time>2016-06-29T16:09:35Z</time>
      </trkpt>
      <trkpt lat="43.57231" lon="3.36332">
        <ele>160.7</ele>
        <time>2016-06-29T16:09:37Z</time>
      </trkpt>
      <trkpt lat="43.57222" lon="3.36331">
        <ele>161.3</ele>
        <time>2016-06-29T16:09:39Z</time>
      </trkpt>
      <trkpt lat="43.57214" lon="3.3633">
        <ele>161.6</ele>
        <time>2016-06-29T16:09:41Z</time>
      </trkpt>
      <trkpt lat="43.57205" lon="3.36327">
        <ele>160.8</ele>
        <time>2016-06-29T16:09:43Z</time>
      </trkpt>
      <trkpt lat="43.57197" lon="3.36325">
        <ele>159.9</ele>
        <time>2016-06-29T16:09:45Z</time>
      </trkpt>
      <trkpt lat="43.57189" lon="3.36323">
        <ele>159.8</ele>
        <time>2016-06-29T16:09:47Z</time>
      </trkpt>
      <trkpt lat="43.57181" lon="3.36322">
        <ele>159.3</ele>
        <time>2016-06-29T16:09:49Z</time>
      </trkpt>
      <trkpt lat="43.57172" lon="3.3632">
        <ele>159.1</ele>
        <time>2016-06-29T16:09:51Z</time>
      </trkpt>
      <trkpt lat="43.57163" lon="3.36317">
        <ele>159.5</ele>
        <time>2016-06-29T16:09:53Z</time>
      </trkpt>
      <trkpt lat="43.57154" lon="3.36315">
        <ele>160.8</ele>
        <time>2016-06-29T16:09:55Z</time>
      </trkpt>
      <trkpt lat="43.57146" lon="3.36313">
        <ele>161.2</ele>
        <time>2016-06-29T16:09:57Z</time>
      </trkpt>
      <trkpt lat="43.57137" lon="3.36309">
        <ele>161.1</ele>
        <time>2016-06-29T16:09:59Z</time>
      </trkpt>
      <trkpt lat="43.5713" lon="3.36305">
        <ele>160.6</ele>
        <time>2016-06-29T16:10:01Z</time>
      </trkpt>
      <trkpt lat="43.57123" lon="3.36298">
        <ele>160.2</ele>
        <time>2016-06-29T16:10:03Z</time>
      </trkpt>
      <trkpt lat="43.57116" lon="3.36292">
        <ele>160.7</ele>
        <time>2016-06-29T16:10:05Z</time>
      </trkpt>
      <trkpt lat="43.57109" lon="3.36287">
        <ele>161</ele>
        <time>2016-06-29T16:10:07Z</time>
      </trkpt>
      <trkpt lat="43.57101" lon="3.36283">
        <ele>161.6</ele>
        <time>2016-06-29T16:10:09Z</time>
      </trkpt>
      <trkpt lat="43.57093" lon="3.3628">
        <ele>161.7</ele>
        <time>2016-06-29T16:10:11Z</time>
      </trkpt>
      <trkpt lat="43.57086" lon="3.36277">
        <ele>162.2</ele>
        <time>2016-06-29T16:10:13Z</time>
      </trkpt>
      <trkpt lat="43.57078" lon="3.36275">
        <ele>162.2</ele>
        <time>2016-06-29T16:10:15Z</time>
      </trkpt>
      <trkpt lat="43.57068" lon="3.36272">
        <ele>162.3</ele>
        <time>2016-06-29T16:10:18Z</time>
      </trkpt>
      <trkpt lat="43.57061" lon="3.3627">
        <ele>162.2</ele>
        <time>2016-06-29T16:10:20Z</time>
      </trkpt>
      <trkpt lat="43.57052" lon="3.36268">
        <ele>162.2</ele>
        <time>2016-06-29T16:10:22Z</time>
      </trkpt>
      <trkpt lat="43.57044" lon="3.36266">
        <ele>161.8</ele>
        <time>2016-06-29T16:10:24Z</time>
      </trkpt>
      <trkpt lat="43.57034" lon="3.36264">
        <ele>161.6</ele>
        <time>2016-06-29T16:10:26Z</time>
      </trkpt>
      <trkpt lat="43.57024" lon="3.36262">
        <ele>161.8</ele>
        <time>2016-06-29T16:10:28Z</time>
      </trkpt>
      <trkpt lat="43.57015" lon="3.3626">
        <ele>162.1</ele>
        <time>2016-06-29T16:10:30Z</time>
      </trkpt>
      <trkpt lat="43.57005" lon="3.36258">
        <ele>162.4</ele>
        <time>2016-06-29T16:10:32Z</time>
      </trkpt>
      <trkpt lat="43.56996" lon="3.36256">
        <ele>162.1</ele>
        <time>2016-06-29T16:10:34Z</time>
      </trkpt>
      <trkpt lat="43.56987" lon="3.36253">
        <ele>161.7</ele>
        <time>2016-06-29T16:10:36Z</time>
      </trkpt>
      <trkpt lat="43.56978" lon="3.36252">
        <ele>161.3</ele>
        <time>2016-06-29T16:10:38Z</time>
      </trkpt>
      <trkpt lat="43.56968" lon="3.36253">
        <ele>161.2</ele>
        <time>2016-06-29T16:10:40Z</time>
      </trkpt>
      <trkpt lat="43.56959" lon="3.36256">
        <ele>160.8</ele>
        <time>2016-06-29T16:10:42Z</time>
      </trkpt>
      <trkpt lat="43.56951" lon="3.3626">
        <ele>160</ele>
        <time>2016-06-29T16:10:44Z</time>
      </trkpt>
      <trkpt lat="43.56942" lon="3.36264">
        <ele>159.4</ele>
        <time>2016-06-29T16:10:46Z</time>
      </trkpt>
      <trkpt lat="43.56935" lon="3.36269">
        <ele>159.1</ele>
        <time>2016-06-29T16:10:48Z</time>
      </trkpt>
      <trkpt lat="43.56927" lon="3.36273">
        <ele>160</ele>
        <time>2016-06-29T16:10:50Z</time>
      </trkpt>
      <trkpt lat="43.5692" lon="3.36276">
        <ele>160.3</ele>
        <time>2016-06-29T16:10:52Z</time>
      </trkpt>
      <trkpt lat="43.56912" lon="3.36278">
        <ele>160.6</ele>
        <time>2016-06-29T16:10:54Z</time>
      </trkpt>
      <trkpt lat="43.56903" lon="3.36278">
        <ele>161.2</ele>
        <time>2016-06-29T16:10:56Z</time>
      </trkpt>
      <trkpt lat="43.56896" lon="3.36275">
        <ele>161.6</ele>
        <time>2016-06-29T16:10:58Z</time>
      </trkpt>
      <trkpt lat="43.56889" lon="3.36271">
        <ele>162.4</ele>
        <time>2016-06-29T16:11:00Z</time>
      </trkpt>
      <trkpt lat="43.56881" lon="3.36265">
        <ele>163.5</ele>
        <time>2016-06-29T16:11:02Z</time>
      </trkpt>
      <trkpt lat="43.56875" lon="3.36258">
        <ele>164.3</ele>
        <time>2016-06-29T16:11:04Z</time>
      </trkpt>
      <trkpt lat="43.56868" lon="3.36253">
        <ele>165.4</ele>
        <time>2016-06-29T16:11:06Z</time>
      </trkpt>
      <trkpt lat="43.56861" lon="3.36247">
        <ele>165.8</ele>
        <time>2016-06-29T16:11:08Z</time>
      </trkpt>
      <trkpt lat="43.56854" lon="3.36242">
        <ele>165.9</ele>
        <time>2016-06-29T16:11:10Z</time>
      </trkpt>
      <trkpt lat="43.56846" lon="3.36237">
        <ele>167.3</ele>
        <time>2016-06-29T16:11:12Z</time>
      </trkpt>
      <trkpt lat="43.56839" lon="3.36232">
        <ele>168.1</ele>
        <time>2016-06-29T16:11:14Z</time>
      </trkpt>
      <trkpt lat="43.56832" lon="3.36226">
        <ele>168.5</ele>
        <time>2016-06-29T16:11:16Z</time>
      </trkpt>
      <trkpt lat="43.56825" lon="3.3622">
        <ele>169.3</ele>
        <time>2016-06-29T16:11:18Z</time>
      </trkpt>
      <trkpt lat="43.5682" lon="3.36213">
        <ele>169.3</ele>
        <time>2016-06-29T16:11:20Z</time>
      </trkpt>
      <trkpt lat="43.56815" lon="3.36204">
        <ele>169.3</ele>
        <time>2016-06-29T16:11:22Z</time>
      </trkpt>
      <trkpt lat="43.56808" lon="3.36192">
        <ele>169.5</ele>
        <time>2016-06-29T16:11:25Z</time>
      </trkpt>
      <trkpt lat="43.56802" lon="3.36182">
        <ele>169.9</ele>
        <time>2016-06-29T16:11:28Z</time>
      </trkpt>
      <trkpt lat="43.56797" lon="3.36172">
        <ele>170.1</ele>
        <time>2016-06-29T16:11:30Z</time>
      </trkpt>
      <trkpt lat="43.5679" lon="3.36163">
        <ele>170.4</ele>
        <time>2016-06-29T16:11:32Z</time>
      </trkpt>
      <trkpt lat="43.56783" lon="3.36152">
        <ele>170.3</ele>
        <time>2016-06-29T16:11:34Z</time>
      </trkpt>
      <trkpt lat="43.56777" lon="3.36136">
        <ele>169.6</ele>
        <time>2016-06-29T16:11:36Z</time>
      </trkpt>
      <trkpt lat="43.56774" lon="3.36121">
        <ele>168.9</ele>
        <time>2016-06-29T16:11:38Z</time>
      </trkpt>
      <trkpt lat="43.56772" lon="3.36104">
        <ele>167.7</ele>
        <time>2016-06-29T16:11:40Z</time>
      </trkpt>
      <trkpt lat="43.56772" lon="3.36088">
        <ele>167.2</ele>
        <time>2016-06-29T16:11:42Z</time>
      </trkpt>
      <trkpt lat="43.56771" lon="3.36072">
        <ele>166.7</ele>
        <time>2016-06-29T16:11:44Z</time>
      </trkpt>
      <trkpt lat="43.56769" lon="3.36055">
        <ele>166.2</ele>
        <time>2016-06-29T16:11:46Z</time>
      </trkpt>
      <trkpt lat="43.56766" lon="3.36041">
        <ele>165.6</ele>
        <time>2016-06-29T16:11:48Z</time>
      </trkpt>
      <trkpt lat="43.56764" lon="3.36029">
        <ele>165.5</ele>
        <time>2016-06-29T16:11:50Z</time>
      </trkpt>
      <trkpt lat="43.56761" lon="3.36019">
        <ele>165.5</ele>
        <time>2016-06-29T16:11:52Z</time>
      </trkpt>
      <trkpt lat="43.56759" lon="3.36009">
        <ele>165.7</ele>
        <time>2016-06-29T16:11:54Z</time>
      </trkpt>
      <trkpt lat="43.56756" lon="3.35995">
        <ele>165.9</ele>
        <time>2016-06-29T16:11:57Z</time>
      </trkpt>
      <trkpt lat="43.56754" lon="3.35986">
        <ele>166.1</ele>
        <time>2016-06-29T16:11:59Z</time>
      </trkpt>
      <trkpt lat="43.56751" lon="3.35977">
        <ele>167</ele>
        <time>2016-06-29T16:12:01Z</time>
      </trkpt>
      <trkpt lat="43.5675" lon="3.35966">
        <ele>167.7</ele>
        <time>2016-06-29T16:12:03Z</time>
      </trkpt>
      <trkpt lat="43.56747" lon="3.35952">
        <ele>167.6</ele>
        <time>2016-06-29T16:12:06Z</time>
      </trkpt>
      <trkpt lat="43.56745" lon="3.35942">
        <ele>166.2</ele>
        <time>2016-06-29T16:12:08Z</time>
      </trkpt>
      <trkpt lat="43.56742" lon="3.35932">
        <ele>166</ele>
        <time>2016-06-29T16:12:10Z</time>
      </trkpt>
      <trkpt lat="43.5674" lon="3.35922">
        <ele>164.6</ele>
        <time>2016-06-29T16:12:12Z</time>
      </trkpt>
      <trkpt lat="43.56737" lon="3.35911">
        <ele>164.9</ele>
        <time>2016-06-29T16:12:14Z</time>
      </trkpt>
      <trkpt lat="43.56735" lon="3.35899">
        <ele>165.5</ele>
        <time>2016-06-29T16:12:16Z</time>
      </trkpt>
      <trkpt lat="43.56733" lon="3.35889">
        <ele>165.5</ele>
        <time>2016-06-29T16:12:18Z</time>
      </trkpt>
      <trkpt lat="43.5673" lon="3.35879">
        <ele>165.3</ele>
        <time>2016-06-29T16:12:20Z</time>
      </trkpt>
      <trkpt lat="43.56729" lon="3.3587">
        <ele>165.5</ele>
        <time>2016-06-29T16:12:22Z</time>
      </trkpt>
      <trkpt lat="43.56728" lon="3.3586">
        <ele>166.5</ele>
        <time>2016-06-29T16:12:24Z</time>
      </trkpt>
      <trkpt lat="43.56725" lon="3.3585">
        <ele>167.4</ele>
        <time>2016-06-29T16:12:26Z</time>
      </trkpt>
      <trkpt lat="43.56721" lon="3.35838">
        <ele>168.6</ele>
        <time>2016-06-29T16:12:28Z</time>
      </trkpt>
      <trkpt lat="43.56718" lon="3.35825">
        <ele>170.2</ele>
        <time>2016-06-29T16:12:30Z</time>
      </trkpt>
      <trkpt lat="43.56716" lon="3.35812">
        <ele>171.2</ele>
        <time>2016-06-29T16:12:32Z</time>
      </trkpt>
      <trkpt lat="43.56714" lon="3.35799">
        <ele>171.7</ele>
        <time>2016-06-29T16:12:34Z</time>
      </trkpt>
      <trkpt lat="43.56712" lon="3.35787">
        <ele>171.7</ele>
        <time>2016-06-29T16:12:36Z</time>
      </trkpt>
      <trkpt lat="43.56711" lon="3.35777">
        <ele>171.3</ele>
        <time>2016-06-29T16:12:38Z</time>
      </trkpt>
      <trkpt lat="43.56709" lon="3.35766">
        <ele>170.7</ele>
        <time>2016-06-29T16:12:40Z</time>
      </trkpt>
      <trkpt lat="43.56707" lon="3.35755">
        <ele>169.6</ele>
        <time>2016-06-29T16:12:42Z</time>
      </trkpt>
      <trkpt lat="43.56706" lon="3.35744">
        <ele>168.9</ele>
        <time>2016-06-29T16:12:44Z</time>
      </trkpt>
      <trkpt lat="43.56704" lon="3.35732">
        <ele>169.6</ele>
        <time>2016-06-29T16:12:46Z</time>
      </trkpt>
      <trkpt lat="43.56704" lon="3.35721">
        <ele>170.3</ele>
        <time>2016-06-29T16:12:48Z</time>
      </trkpt>
      <trkpt lat="43.56703" lon="3.3571">
        <ele>170.1</ele>
        <time>2016-06-29T16:12:50Z</time>
      </trkpt>
      <trkpt lat="43.56702" lon="3.357">
        <ele>170</ele>
        <time>2016-06-29T16:12:52Z</time>
      </trkpt>
      <trkpt lat="43.56703" lon="3.35685">
        <ele>169.8</ele>
        <time>2016-06-29T16:12:55Z</time>
      </trkpt>
      <trkpt lat="43.56704" lon="3.35675">
        <ele>169.7</ele>
        <time>2016-06-29T16:12:57Z</time>
      </trkpt>
      <trkpt lat="43.56706" lon="3.35661">
        <ele>169.6</ele>
        <time>2016-06-29T16:13:00Z</time>
      </trkpt>
      <trkpt lat="43.56707" lon="3.35647">
        <ele>169.5</ele>
        <time>2016-06-29T16:13:03Z</time>
      </trkpt>
      <trkpt lat="43.56707" lon="3.35634">
        <ele>169.5</ele>
        <time>2016-06-29T16:13:06Z</time>
      </trkpt>
      <trkpt lat="43.56704" lon="3.35624">
        <ele>169.5</ele>
        <time>2016-06-29T16:13:09Z</time>
      </trkpt>
      <trkpt lat="43.56702" lon="3.3561">
        <ele>169.7</ele>
        <time>2016-06-29T16:13:12Z</time>
      </trkpt>
      <trkpt lat="43.567" lon="3.35596">
        <ele>170</ele>
        <time>2016-06-29T16:13:15Z</time>
      </trkpt>
      <trkpt lat="43.567" lon="3.35582">
        <ele>170.5</ele>
        <time>2016-06-29T16:13:18Z</time>
      </trkpt>
      <trkpt lat="43.567" lon="3.35571">
        <ele>170.8</ele>
        <time>2016-06-29T16:13:21Z</time>
      </trkpt>
      <trkpt lat="43.56699" lon="3.35559">
        <ele>171</ele>
        <time>2016-06-29T16:13:24Z</time>
      </trkpt>
      <trkpt lat="43.56699" lon="3.35545">
        <ele>171.1</ele>
        <time>2016-06-29T16:13:27Z</time>
      </trkpt>
      <trkpt lat="43.56699" lon="3.35533">
        <ele>171.3</ele>
        <time>2016-06-29T16:13:30Z</time>
      </trkpt>
      <trkpt lat="43.56699" lon="3.35519">
        <ele>171.5</ele>
        <time>2016-06-29T16:13:33Z</time>
      </trkpt>
      <trkpt lat="43.56699" lon="3.35506">
        <ele>171.7</ele>
        <time>2016-06-29T16:13:36Z</time>
      </trkpt>
      <trkpt lat="43.567" lon="3.35491">
        <ele>172</ele>
        <time>2016-06-29T16:13:39Z</time>
      </trkpt>
      <trkpt lat="43.56699" lon="3.35477">
        <ele>172.3</ele>
        <time>2016-06-29T16:13:42Z</time>
      </trkpt>
      <trkpt lat="43.56698" lon="3.35462">
        <ele>172.7</ele>
        <time>2016-06-29T16:13:45Z</time>
      </trkpt>
      <trkpt lat="43.56698" lon="3.35449">
        <ele>173.2</ele>
        <time>2016-06-29T16:13:48Z</time>
      </trkpt>
      <trkpt lat="43.567" lon="3.35436">
        <ele>173.9</ele>
        <time>2016-06-29T16:13:51Z</time>
      </trkpt>
      <trkpt lat="43.56703" lon="3.35422">
        <ele>174.6</ele>
        <time>2016-06-29T16:13:54Z</time>
      </trkpt>
      <trkpt lat="43.56703" lon="3.35409">
        <ele>175.3</ele>
        <time>2016-06-29T16:13:57Z</time>
      </trkpt>
      <trkpt lat="43.56703" lon="3.35396">
        <ele>176.1</ele>
        <time>2016-06-29T16:14:00Z</time>
      </trkpt>
      <trkpt lat="43.56702" lon="3.35385">
        <ele>176.7</ele>
        <time>2016-06-29T16:14:03Z</time>
      </trkpt>
      <trkpt lat="43.567" lon="3.35372">
        <ele>177.1</ele>
        <time>2016-06-29T16:14:06Z</time>
      </trkpt>
      <trkpt lat="43.56698" lon="3.35361">
        <ele>177.8</ele>
        <time>2016-06-29T16:14:08Z</time>
      </trkpt>
      <trkpt lat="43.56696" lon="3.35351">
        <ele>179.3</ele>
        <time>2016-06-29T16:14:10Z</time>
      </trkpt>
      <trkpt lat="43.56695" lon="3.35341">
        <ele>179.5</ele>
        <time>2016-06-29T16:14:12Z</time>
      </trkpt>
      <trkpt lat="43.56693" lon="3.35331">
        <ele>179.7</ele>
        <time>2016-06-29T16:14:14Z</time>
      </trkpt>
      <trkpt lat="43.56687" lon="3.35319">
        <ele>182.1</ele>
        <time>2016-06-29T16:14:17Z</time>
      </trkpt>
      <trkpt lat="43.5668" lon="3.35309">
        <ele>182.7</ele>
        <time>2016-06-29T16:14:20Z</time>
      </trkpt>
      <trkpt lat="43.56676" lon="3.353">
        <ele>183</ele>
        <time>2016-06-29T16:14:22Z</time>
      </trkpt>
      <trkpt lat="43.56671" lon="3.35288">
        <ele>183.5</ele>
        <time>2016-06-29T16:14:25Z</time>
      </trkpt>
      <trkpt lat="43.56668" lon="3.35278">
        <ele>184</ele>
        <time>2016-06-29T16:14:28Z</time>
      </trkpt>
      <trkpt lat="43.56662" lon="3.35269">
        <ele>184.4</ele>
        <time>2016-06-29T16:14:31Z</time>
      </trkpt>
      <trkpt lat="43.56658" lon="3.35258">
        <ele>184.8</ele>
        <time>2016-06-29T16:14:34Z</time>
      </trkpt>
      <trkpt lat="43.56654" lon="3.35246">
        <ele>185.3</ele>
        <time>2016-06-29T16:14:38Z</time>
      </trkpt>
      <trkpt lat="43.5665" lon="3.35235">
        <ele>185.5</ele>
        <time>2016-06-29T16:14:41Z</time>
      </trkpt>
      <trkpt lat="43.56646" lon="3.35227">
        <ele>185.8</ele>
        <time>2016-06-29T16:14:44Z</time>
      </trkpt>
      <trkpt lat="43.5664" lon="3.3522">
        <ele>186.3</ele>
        <time>2016-06-29T16:14:48Z</time>
      </trkpt>
      <trkpt lat="43.56629" lon="3.35216">
        <ele>189.4</ele>
        <time>2016-06-29T16:14:51Z</time>
      </trkpt>
      <trkpt lat="43.56619" lon="3.35213">
        <ele>190.5</ele>
        <time>2016-06-29T16:14:53Z</time>
      </trkpt>
      <trkpt lat="43.56607" lon="3.35211">
        <ele>190.3</ele>
        <time>2016-06-29T16:14:55Z</time>
      </trkpt>
      <trkpt lat="43.56595" lon="3.35208">
        <ele>189.5</ele>
        <time>2016-06-29T16:14:57Z</time>
      </trkpt>
      <trkpt lat="43.56584" lon="3.35205">
        <ele>188.8</ele>
        <time>2016-06-29T16:14:59Z</time>
      </trkpt>
      <trkpt lat="43.56571" lon="3.35204">
        <ele>187</ele>
        <time>2016-06-29T16:15:01Z</time>
      </trkpt>
      <trkpt lat="43.56559" lon="3.35211">
        <ele>185.6</ele>
        <time>2016-06-29T16:15:03Z</time>
      </trkpt>
      <trkpt lat="43.5655" lon="3.35223">
        <ele>184.8</ele>
        <time>2016-06-29T16:15:05Z</time>
      </trkpt>
      <trkpt lat="43.56541" lon="3.35225">
        <ele>184.2</ele>
        <time>2016-06-29T16:15:07Z</time>
      </trkpt>
      <trkpt lat="43.56531" lon="3.35221">
        <ele>184.1</ele>
        <time>2016-06-29T16:15:10Z</time>
      </trkpt>
      <trkpt lat="43.56522" lon="3.35225">
        <ele>183.9</ele>
        <time>2016-06-29T16:15:13Z</time>
      </trkpt>
      <trkpt lat="43.56515" lon="3.35232">
        <ele>183.1</ele>
        <time>2016-06-29T16:15:15Z</time>
      </trkpt>
      <trkpt lat="43.56508" lon="3.35242">
        <ele>182.7</ele>
        <time>2016-06-29T16:15:17Z</time>
      </trkpt>
      <trkpt lat="43.565" lon="3.35254">
        <ele>182.6</ele>
        <time>2016-06-29T16:15:19Z</time>
      </trkpt>
      <trkpt lat="43.56491" lon="3.35262">
        <ele>181.9</ele>
        <time>2016-06-29T16:15:21Z</time>
      </trkpt>
      <trkpt lat="43.56487" lon="3.35272">
        <ele>181.4</ele>
        <time>2016-06-29T16:15:23Z</time>
      </trkpt>
      <trkpt lat="43.56486" lon="3.35286">
        <ele>179.8</ele>
        <time>2016-06-29T16:15:25Z</time>
      </trkpt>
      <trkpt lat="43.56483" lon="3.35297">
        <ele>178.8</ele>
        <time>2016-06-29T16:15:27Z</time>
      </trkpt>
      <trkpt lat="43.56482" lon="3.35311">
        <ele>177.7</ele>
        <time>2016-06-29T16:15:30Z</time>
      </trkpt>
      <trkpt lat="43.56479" lon="3.35315">
        <ele>177.6</ele>
        <time>2016-06-29T16:15:37Z</time>
      </trkpt>
      <trkpt lat="43.56474" lon="3.35304">
        <ele>177.5</ele>
        <time>2016-06-29T16:15:39Z</time>
      </trkpt>
      <trkpt lat="43.56469" lon="3.35295">
        <ele>175.6</ele>
        <time>2016-06-29T16:15:41Z</time>
      </trkpt>
      <trkpt lat="43.56466" lon="3.35282">
        <ele>174</ele>
        <time>2016-06-29T16:15:43Z</time>
      </trkpt>
      <trkpt lat="43.56462" lon="3.35268">
        <ele>172.6</ele>
        <time>2016-06-29T16:15:45Z</time>
      </trkpt>
      <trkpt lat="43.56457" lon="3.35259">
        <ele>171.7</ele>
        <time>2016-06-29T16:15:47Z</time>
      </trkpt>
      <trkpt lat="43.5645" lon="3.35253">
        <ele>171</ele>
        <time>2016-06-29T16:15:49Z</time>
      </trkpt>
      <trkpt lat="43.56446" lon="3.35243">
        <ele>170.2</ele>
        <time>2016-06-29T16:15:51Z</time>
      </trkpt>
      <trkpt lat="43.56441" lon="3.35233">
        <ele>169.7</ele>
        <time>2016-06-29T16:15:53Z</time>
      </trkpt>
      <trkpt lat="43.56437" lon="3.35222">
        <ele>169.7</ele>
        <time>2016-06-29T16:15:55Z</time>
      </trkpt>
      <trkpt lat="43.56433" lon="3.35212">
        <ele>169.6</ele>
        <time>2016-06-29T16:15:57Z</time>
      </trkpt>
      <trkpt lat="43.56429" lon="3.35199">
        <ele>169.7</ele>
        <time>2016-06-29T16:15:59Z</time>
      </trkpt>
      <trkpt lat="43.56426" lon="3.35188">
        <ele>169.6</ele>
        <time>2016-06-29T16:16:01Z</time>
      </trkpt>
      <trkpt lat="43.56425" lon="3.35177">
        <ele>169.8</ele>
        <time>2016-06-29T16:16:03Z</time>
      </trkpt>
      <trkpt lat="43.56422" lon="3.35167">
        <ele>169.7</ele>
        <time>2016-06-29T16:16:05Z</time>
      </trkpt>
      <trkpt lat="43.5642" lon="3.35158">
        <ele>169.5</ele>
        <time>2016-06-29T16:16:07Z</time>
      </trkpt>
      <trkpt lat="43.56417" lon="3.35147">
        <ele>169.1</ele>
        <time>2016-06-29T16:16:09Z</time>
      </trkpt>
      <trkpt lat="43.56414" lon="3.35137">
        <ele>168.6</ele>
        <time>2016-06-29T16:16:11Z</time>
      </trkpt>
      <trkpt lat="43.56411" lon="3.35128">
        <ele>168.1</ele>
        <time>2016-06-29T16:16:13Z</time>
      </trkpt>
      <trkpt lat="43.56408" lon="3.35117">
        <ele>168.3</ele>
        <time>2016-06-29T16:16:15Z</time>
      </trkpt>
      <trkpt lat="43.56404" lon="3.35106">
        <ele>169.2</ele>
        <time>2016-06-29T16:16:17Z</time>
      </trkpt>
      <trkpt lat="43.56401" lon="3.35096">
        <ele>170.4</ele>
        <time>2016-06-29T16:16:19Z</time>
      </trkpt>
      <trkpt lat="43.56398" lon="3.35085">
        <ele>171.5</ele>
        <time>2016-06-29T16:16:21Z</time>
      </trkpt>
      <trkpt lat="43.56394" lon="3.35072">
        <ele>172.6</ele>
        <time>2016-06-29T16:16:24Z</time>
      </trkpt>
      <trkpt lat="43.56391" lon="3.35063">
        <ele>172.6</ele>
        <time>2016-06-29T16:16:26Z</time>
      </trkpt>
      <trkpt lat="43.56388" lon="3.35054">
        <ele>172.4</ele>
        <time>2016-06-29T16:16:28Z</time>
      </trkpt>
      <trkpt lat="43.56386" lon="3.3504">
        <ele>172.3</ele>
        <time>2016-06-29T16:16:31Z</time>
      </trkpt>
      <trkpt lat="43.5639" lon="3.35027">
        <ele>172.3</ele>
        <time>2016-06-29T16:16:34Z</time>
      </trkpt>
      <trkpt lat="43.56399" lon="3.35018">
        <ele>172.5</ele>
        <time>2016-06-29T16:16:37Z</time>
      </trkpt>
      <trkpt lat="43.56407" lon="3.3501">
        <ele>172.9</ele>
        <time>2016-06-29T16:16:40Z</time>
      </trkpt>
      <trkpt lat="43.56415" lon="3.35001">
        <ele>173.2</ele>
        <time>2016-06-29T16:16:43Z</time>
      </trkpt>
      <trkpt lat="43.56416" lon="3.34989">
        <ele>173.5</ele>
        <time>2016-06-29T16:16:46Z</time>
      </trkpt>
      <trkpt lat="43.56411" lon="3.34977">
        <ele>173.8</ele>
        <time>2016-06-29T16:16:49Z</time>
      </trkpt>
      <trkpt lat="43.56406" lon="3.34968">
        <ele>175.8</ele>
        <time>2016-06-29T16:16:51Z</time>
      </trkpt>
      <trkpt lat="43.56401" lon="3.34959">
        <ele>176.3</ele>
        <time>2016-06-29T16:16:53Z</time>
      </trkpt>
      <trkpt lat="43.56394" lon="3.3495">
        <ele>176.2</ele>
        <time>2016-06-29T16:16:55Z</time>
      </trkpt>
      <trkpt lat="43.56388" lon="3.34941">
        <ele>176.7</ele>
        <time>2016-06-29T16:16:57Z</time>
      </trkpt>
      <trkpt lat="43.56383" lon="3.34932">
        <ele>177.3</ele>
        <time>2016-06-29T16:16:59Z</time>
      </trkpt>
      <trkpt lat="43.56376" lon="3.34922">
        <ele>177.3</ele>
        <time>2016-06-29T16:17:01Z</time>
      </trkpt>
      <trkpt lat="43.56371" lon="3.34913">
        <ele>177.3</ele>
        <time>2016-06-29T16:17:03Z</time>
      </trkpt>
      <trkpt lat="43.56366" lon="3.34903">
        <ele>176.5</ele>
        <time>2016-06-29T16:17:05Z</time>
      </trkpt>
      <trkpt lat="43.56362" lon="3.34892">
        <ele>175.5</ele>
        <time>2016-06-29T16:17:07Z</time>
      </trkpt>
      <trkpt lat="43.56358" lon="3.34882">
        <ele>175.1</ele>
        <time>2016-06-29T16:17:09Z</time>
      </trkpt>
      <trkpt lat="43.56355" lon="3.34873">
        <ele>174.9</ele>
        <time>2016-06-29T16:17:11Z</time>
      </trkpt>
      <trkpt lat="43.56351" lon="3.34862">
        <ele>175</ele>
        <time>2016-06-29T16:17:14Z</time>
      </trkpt>
      <trkpt lat="43.56348" lon="3.34852">
        <ele>175.1</ele>
        <time>2016-06-29T16:17:17Z</time>
      </trkpt>
      <trkpt lat="43.56345" lon="3.34839">
        <ele>175.3</ele>
        <time>2016-06-29T16:17:20Z</time>
      </trkpt>
      <trkpt lat="43.56341" lon="3.34828">
        <ele>175.5</ele>
        <time>2016-06-29T16:17:23Z</time>
      </trkpt>
      <trkpt lat="43.56333" lon="3.34819">
        <ele>175.8</ele>
        <time>2016-06-29T16:17:26Z</time>
      </trkpt>
      <trkpt lat="43.56326" lon="3.34815">
        <ele>176.7</ele>
        <time>2016-06-29T16:17:28Z</time>
      </trkpt>
      <trkpt lat="43.56319" lon="3.34811">
        <ele>178.1</ele>
        <time>2016-06-29T16:17:30Z</time>
      </trkpt>
      <trkpt lat="43.56312" lon="3.34808">
        <ele>179.6</ele>
        <time>2016-06-29T16:17:32Z</time>
      </trkpt>
      <trkpt lat="43.56302" lon="3.34805">
        <ele>181.4</ele>
        <time>2016-06-29T16:17:34Z</time>
      </trkpt>
      <trkpt lat="43.56293" lon="3.34802">
        <ele>182.8</ele>
        <time>2016-06-29T16:17:36Z</time>
      </trkpt>
      <trkpt lat="43.56283" lon="3.34799">
        <ele>183.8</ele>
        <time>2016-06-29T16:17:38Z</time>
      </trkpt>
      <trkpt lat="43.56271" lon="3.34795">
        <ele>184</ele>
        <time>2016-06-29T16:17:40Z</time>
      </trkpt>
      <trkpt lat="43.56263" lon="3.34784">
        <ele>183</ele>
        <time>2016-06-29T16:17:42Z</time>
      </trkpt>
      <trkpt lat="43.5626" lon="3.34768">
        <ele>181.4</ele>
        <time>2016-06-29T16:17:44Z</time>
      </trkpt>
      <trkpt lat="43.56257" lon="3.34753">
        <ele>178.7</ele>
        <time>2016-06-29T16:17:46Z</time>
      </trkpt>
      <trkpt lat="43.56252" lon="3.34737">
        <ele>177</ele>
        <time>2016-06-29T16:17:48Z</time>
      </trkpt>
      <trkpt lat="43.56249" lon="3.34727">
        <ele>176.2</ele>
        <time>2016-06-29T16:17:49Z</time>
      </trkpt>
      <trkpt lat="43.56246" lon="3.3471">
        <ele>175.2</ele>
        <time>2016-06-29T16:17:51Z</time>
      </trkpt>
      <trkpt lat="43.56245" lon="3.34698">
        <ele>174.9</ele>
        <time>2016-06-29T16:17:53Z</time>
      </trkpt>
      <trkpt lat="43.56246" lon="3.34685">
        <ele>175.8</ele>
        <time>2016-06-29T16:17:55Z</time>
      </trkpt>
      <trkpt lat="43.56246" lon="3.34673">
        <ele>176.6</ele>
        <time>2016-06-29T16:17:57Z</time>
      </trkpt>
      <trkpt lat="43.56245" lon="3.34663">
        <ele>176.5</ele>
        <time>2016-06-29T16:17:59Z</time>
      </trkpt>
      <trkpt lat="43.56243" lon="3.34651">
        <ele>176.8</ele>
        <time>2016-06-29T16:18:01Z</time>
      </trkpt>
      <trkpt lat="43.56238" lon="3.34642">
        <ele>177.1</ele>
        <time>2016-06-29T16:18:03Z</time>
      </trkpt>
      <trkpt lat="43.56229" lon="3.34635">
        <ele>177.4</ele>
        <time>2016-06-29T16:18:06Z</time>
      </trkpt>
      <trkpt lat="43.56222" lon="3.34629">
        <ele>177.5</ele>
        <time>2016-06-29T16:18:08Z</time>
      </trkpt>
      <trkpt lat="43.56215" lon="3.34622">
        <ele>177.8</ele>
        <time>2016-06-29T16:18:11Z</time>
      </trkpt>
      <trkpt lat="43.5621" lon="3.34612">
        <ele>178.2</ele>
        <time>2016-06-29T16:18:14Z</time>
      </trkpt>
      <trkpt lat="43.56205" lon="3.34602">
        <ele>178.6</ele>
        <time>2016-06-29T16:18:17Z</time>
      </trkpt>
      <trkpt lat="43.56201" lon="3.34591">
        <ele>178.9</ele>
        <time>2016-06-29T16:18:20Z</time>
      </trkpt>
      <trkpt lat="43.56198" lon="3.34579">
        <ele>179.2</ele>
        <time>2016-06-29T16:18:23Z</time>
      </trkpt>
      <trkpt lat="43.56196" lon="3.34567">
        <ele>179.3</ele>
        <time>2016-06-29T16:18:26Z</time>
      </trkpt>
      <trkpt lat="43.56196" lon="3.34554">
        <ele>179.8</ele>
        <time>2016-06-29T16:18:29Z</time>
      </trkpt>
      <trkpt lat="43.56196" lon="3.34542">
        <ele>180.2</ele>
        <time>2016-06-29T16:18:32Z</time>
      </trkpt>
      <trkpt lat="43.56195" lon="3.34528">
        <ele>180.5</ele>
        <time>2016-06-29T16:18:35Z</time>
      </trkpt>
      <trkpt lat="43.56195" lon="3.34515">
        <ele>180.6</ele>
        <time>2016-06-29T16:18:38Z</time>
      </trkpt>
      <trkpt lat="43.56196" lon="3.34499">
        <ele>180.6</ele>
        <time>2016-06-29T16:18:41Z</time>
      </trkpt>
      <trkpt lat="43.56197" lon="3.34484">
        <ele>180.8</ele>
        <time>2016-06-29T16:18:44Z</time>
      </trkpt>
      <trkpt lat="43.56199" lon="3.34473">
        <ele>181.7</ele>
        <time>2016-06-29T16:18:46Z</time>
      </trkpt>
      <trkpt lat="43.56201" lon="3.34458">
        <ele>184.3</ele>
        <time>2016-06-29T16:18:49Z</time>
      </trkpt>
      <trkpt lat="43.56203" lon="3.34448">
        <ele>185.9</ele>
        <time>2016-06-29T16:18:51Z</time>
      </trkpt>
      <trkpt lat="43.56204" lon="3.34436">
        <ele>186.2</ele>
        <time>2016-06-29T16:18:53Z</time>
      </trkpt>
      <trkpt lat="43.56205" lon="3.34421">
        <ele>185.7</ele>
        <time>2016-06-29T16:18:55Z</time>
      </trkpt>
      <trkpt lat="43.56204" lon="3.34408">
        <ele>185</ele>
        <time>2016-06-29T16:18:57Z</time>
      </trkpt>
      <trkpt lat="43.56203" lon="3.34397">
        <ele>183.9</ele>
        <time>2016-06-29T16:18:59Z</time>
      </trkpt>
      <trkpt lat="43.56203" lon="3.34385">
        <ele>183.2</ele>
        <time>2016-06-29T16:19:01Z</time>
      </trkpt>
      <trkpt lat="43.56202" lon="3.34373">
        <ele>183.1</ele>
        <time>2016-06-29T16:19:03Z</time>
      </trkpt>
      <trkpt lat="43.56203" lon="3.3436">
        <ele>183.3</ele>
        <time>2016-06-29T16:19:05Z</time>
      </trkpt>
      <trkpt lat="43.56204" lon="3.34347">
        <ele>183.7</ele>
        <time>2016-06-29T16:19:07Z</time>
      </trkpt>
      <trkpt lat="43.56204" lon="3.34333">
        <ele>184.7</ele>
        <time>2016-06-29T16:19:09Z</time>
      </trkpt>
      <trkpt lat="43.56204" lon="3.34323">
        <ele>186.7</ele>
        <time>2016-06-29T16:19:11Z</time>
      </trkpt>
      <trkpt lat="43.56202" lon="3.34312">
        <ele>188.2</ele>
        <time>2016-06-29T16:19:13Z</time>
      </trkpt>
      <trkpt lat="43.56201" lon="3.34301">
        <ele>188.6</ele>
        <time>2016-06-29T16:19:15Z</time>
      </trkpt>
      <trkpt lat="43.56199" lon="3.34287">
        <ele>188.2</ele>
        <time>2016-06-29T16:19:17Z</time>
      </trkpt>
      <trkpt lat="43.56197" lon="3.34276">
        <ele>187.9</ele>
        <time>2016-06-29T16:19:19Z</time>
      </trkpt>
      <trkpt lat="43.56195" lon="3.34263">
        <ele>186.9</ele>
        <time>2016-06-29T16:19:21Z</time>
      </trkpt>
      <trkpt lat="43.56192" lon="3.3425">
        <ele>185.6</ele>
        <time>2016-06-29T16:19:24Z</time>
      </trkpt>
      <trkpt lat="43.5619" lon="3.34239">
        <ele>185.6</ele>
        <time>2016-06-29T16:19:26Z</time>
      </trkpt>
      <trkpt lat="43.5619" lon="3.34227">
        <ele>185.3</ele>
        <time>2016-06-29T16:19:28Z</time>
      </trkpt>
      <trkpt lat="43.56191" lon="3.34217">
        <ele>185.4</ele>
        <time>2016-06-29T16:19:30Z</time>
      </trkpt>
      <trkpt lat="43.56193" lon="3.34206">
        <ele>185.5</ele>
        <time>2016-06-29T16:19:32Z</time>
      </trkpt>
      <trkpt lat="43.56196" lon="3.34196">
        <ele>185.7</ele>
        <time>2016-06-29T16:19:34Z</time>
      </trkpt>
      <trkpt lat="43.56199" lon="3.34186">
        <ele>187</ele>
        <time>2016-06-29T16:19:36Z</time>
      </trkpt>
      <trkpt lat="43.56202" lon="3.34175">
        <ele>188.1</ele>
        <time>2016-06-29T16:19:38Z</time>
      </trkpt>
      <trkpt lat="43.56205" lon="3.34166">
        <ele>187.4</ele>
        <time>2016-06-29T16:19:40Z</time>
      </trkpt>
      <trkpt lat="43.56211" lon="3.34154">
        <ele>187.4</ele>
        <time>2016-06-29T16:19:43Z</time>
      </trkpt>
      <trkpt lat="43.56216" lon="3.34144">
        <ele>187.5</ele>
        <time>2016-06-29T16:19:45Z</time>
      </trkpt>
      <trkpt lat="43.56222" lon="3.34133">
        <ele>187.6</ele>
        <time>2016-06-29T16:19:48Z</time>
      </trkpt>
      <trkpt lat="43.56228" lon="3.34124">
        <ele>188.3</ele>
        <time>2016-06-29T16:19:50Z</time>
      </trkpt>
      <trkpt lat="43.56233" lon="3.34116">
        <ele>188.2</ele>
        <time>2016-06-29T16:19:52Z</time>
      </trkpt>
      <trkpt lat="43.56238" lon="3.34107">
        <ele>188.3</ele>
        <time>2016-06-29T16:19:54Z</time>
      </trkpt>
      <trkpt lat="43.56243" lon="3.341">
        <ele>188.4</ele>
        <time>2016-06-29T16:19:56Z</time>
      </trkpt>
      <trkpt lat="43.56248" lon="3.34093">
        <ele>189.1</ele>
        <time>2016-06-29T16:19:58Z</time>
      </trkpt>
      <trkpt lat="43.56257" lon="3.34084">
        <ele>190</ele>
        <time>2016-06-29T16:20:01Z</time>
      </trkpt>
      <trkpt lat="43.56263" lon="3.34077">
        <ele>191.3</ele>
        <time>2016-06-29T16:20:03Z</time>
      </trkpt>
      <trkpt lat="43.5627" lon="3.34071">
        <ele>191.6</ele>
        <time>2016-06-29T16:20:05Z</time>
      </trkpt>
      <trkpt lat="43.56275" lon="3.34064">
        <ele>191.7</ele>
        <time>2016-06-29T16:20:07Z</time>
      </trkpt>
      <trkpt lat="43.56281" lon="3.34058">
        <ele>191.8</ele>
        <time>2016-06-29T16:20:09Z</time>
      </trkpt>
      <trkpt lat="43.56287" lon="3.34052">
        <ele>191.9</ele>
        <time>2016-06-29T16:20:11Z</time>
      </trkpt>
      <trkpt lat="43.56295" lon="3.34043">
        <ele>193.9</ele>
        <time>2016-06-29T16:20:14Z</time>
      </trkpt>
      <trkpt lat="43.563" lon="3.34035">
        <ele>194.4</ele>
        <time>2016-06-29T16:20:16Z</time>
      </trkpt>
      <trkpt lat="43.56308" lon="3.34026">
        <ele>194.1</ele>
        <time>2016-06-29T16:20:18Z</time>
      </trkpt>
      <trkpt lat="43.56318" lon="3.3402">
        <ele>194</ele>
        <time>2016-06-29T16:20:20Z</time>
      </trkpt>
      <trkpt lat="43.56329" lon="3.34019">
        <ele>194</ele>
        <time>2016-06-29T16:20:22Z</time>
      </trkpt>
      <trkpt lat="43.56339" lon="3.34021">
        <ele>194.3</ele>
        <time>2016-06-29T16:20:24Z</time>
      </trkpt>
      <trkpt lat="43.5635" lon="3.34024">
        <ele>194.4</ele>
        <time>2016-06-29T16:20:26Z</time>
      </trkpt>
      <trkpt lat="43.56362" lon="3.34026">
        <ele>194.2</ele>
        <time>2016-06-29T16:20:28Z</time>
      </trkpt>
      <trkpt lat="43.56372" lon="3.3402">
        <ele>193.5</ele>
        <time>2016-06-29T16:20:30Z</time>
      </trkpt>
      <trkpt lat="43.56378" lon="3.34014">
        <ele>193.1</ele>
        <time>2016-06-29T16:20:31Z</time>
      </trkpt>
      <trkpt lat="43.56385" lon="3.34">
        <ele>192.8</ele>
        <time>2016-06-29T16:20:33Z</time>
      </trkpt>
      <trkpt lat="43.56388" lon="3.33985">
        <ele>191.7</ele>
        <time>2016-06-29T16:20:35Z</time>
      </trkpt>
      <trkpt lat="43.5639" lon="3.33969">
        <ele>190.9</ele>
        <time>2016-06-29T16:20:37Z</time>
      </trkpt>
      <trkpt lat="43.56389" lon="3.33954">
        <ele>190.5</ele>
        <time>2016-06-29T16:20:39Z</time>
      </trkpt>
      <trkpt lat="43.56389" lon="3.33939">
        <ele>190.9</ele>
        <time>2016-06-29T16:20:41Z</time>
      </trkpt>
      <trkpt lat="43.56388" lon="3.33926">
        <ele>191.2</ele>
        <time>2016-06-29T16:20:43Z</time>
      </trkpt>
      <trkpt lat="43.56388" lon="3.33913">
        <ele>191.6</ele>
        <time>2016-06-29T16:20:45Z</time>
      </trkpt>
      <trkpt lat="43.56386" lon="3.33901">
        <ele>191.9</ele>
        <time>2016-06-29T16:20:47Z</time>
      </trkpt>
      <trkpt lat="43.56384" lon="3.33889">
        <ele>192.2</ele>
        <time>2016-06-29T16:20:49Z</time>
      </trkpt>
      <trkpt lat="43.56383" lon="3.33877">
        <ele>192.6</ele>
        <time>2016-06-29T16:20:51Z</time>
      </trkpt>
      <trkpt lat="43.56381" lon="3.33865">
        <ele>193</ele>
        <time>2016-06-29T16:20:53Z</time>
      </trkpt>
      <trkpt lat="43.56381" lon="3.33853">
        <ele>193.4</ele>
        <time>2016-06-29T16:20:55Z</time>
      </trkpt>
      <trkpt lat="43.56384" lon="3.33843">
        <ele>192.3</ele>
        <time>2016-06-29T16:20:57Z</time>
      </trkpt>
      <trkpt lat="43.56389" lon="3.33833">
        <ele>192.2</ele>
        <time>2016-06-29T16:20:59Z</time>
      </trkpt>
      <trkpt lat="43.56395" lon="3.33824">
        <ele>192.7</ele>
        <time>2016-06-29T16:21:01Z</time>
      </trkpt>
      <trkpt lat="43.56402" lon="3.33816">
        <ele>194</ele>
        <time>2016-06-29T16:21:03Z</time>
      </trkpt>
      <trkpt lat="43.56409" lon="3.33809">
        <ele>195.9</ele>
        <time>2016-06-29T16:21:05Z</time>
      </trkpt>
      <trkpt lat="43.56418" lon="3.33804">
        <ele>197.3</ele>
        <time>2016-06-29T16:21:07Z</time>
      </trkpt>
      <trkpt lat="43.56426" lon="3.33802">
        <ele>198.2</ele>
        <time>2016-06-29T16:21:09Z</time>
      </trkpt>
      <trkpt lat="43.56434" lon="3.33801">
        <ele>199.3</ele>
        <time>2016-06-29T16:21:11Z</time>
      </trkpt>
      <trkpt lat="43.56443" lon="3.33802">
        <ele>200.1</ele>
        <time>2016-06-29T16:21:13Z</time>
      </trkpt>
      <trkpt lat="43.5645" lon="3.33804">
        <ele>200.2</ele>
        <time>2016-06-29T16:21:15Z</time>
      </trkpt>
      <trkpt lat="43.56459" lon="3.33804">
        <ele>200.4</ele>
        <time>2016-06-29T16:21:17Z</time>
      </trkpt>
      <trkpt lat="43.56466" lon="3.33801">
        <ele>200.5</ele>
        <time>2016-06-29T16:21:19Z</time>
      </trkpt>
      <trkpt lat="43.56475" lon="3.33793">
        <ele>198.6</ele>
        <time>2016-06-29T16:21:22Z</time>
      </trkpt>
      <trkpt lat="43.56482" lon="3.33789">
        <ele>198.1</ele>
        <time>2016-06-29T16:21:24Z</time>
      </trkpt>
      <trkpt lat="43.5649" lon="3.33784">
        <ele>198.2</ele>
        <time>2016-06-29T16:21:26Z</time>
      </trkpt>
      <trkpt lat="43.56497" lon="3.33777">
        <ele>198.4</ele>
        <time>2016-06-29T16:21:28Z</time>
      </trkpt>
      <trkpt lat="43.56504" lon="3.33771">
        <ele>197.9</ele>
        <time>2016-06-29T16:21:30Z</time>
      </trkpt>
      <trkpt lat="43.5651" lon="3.33763">
        <ele>197.8</ele>
        <time>2016-06-29T16:21:32Z</time>
      </trkpt>
      <trkpt lat="43.56516" lon="3.33755">
        <ele>197.3</ele>
        <time>2016-06-29T16:21:34Z</time>
      </trkpt>
      <trkpt lat="43.56522" lon="3.33747">
        <ele>197.4</ele>
        <time>2016-06-29T16:21:36Z</time>
      </trkpt>
      <trkpt lat="43.56527" lon="3.33737">
        <ele>197.5</ele>
        <time>2016-06-29T16:21:38Z</time>
      </trkpt>
      <trkpt lat="43.5653" lon="3.33725">
        <ele>198.7</ele>
        <time>2016-06-29T16:21:40Z</time>
      </trkpt>
      <trkpt lat="43.5653" lon="3.33714">
        <ele>200.3</ele>
        <time>2016-06-29T16:21:42Z</time>
      </trkpt>
      <trkpt lat="43.56529" lon="3.33703">
        <ele>202.3</ele>
        <time>2016-06-29T16:21:44Z</time>
      </trkpt>
      <trkpt lat="43.56527" lon="3.33692">
        <ele>203</ele>
        <time>2016-06-29T16:21:46Z</time>
      </trkpt>
      <trkpt lat="43.56525" lon="3.33683">
        <ele>203.3</ele>
        <time>2016-06-29T16:21:48Z</time>
      </trkpt>
      <trkpt lat="43.56521" lon="3.33673">
        <ele>203.3</ele>
        <time>2016-06-29T16:21:50Z</time>
      </trkpt>
      <trkpt lat="43.56518" lon="3.33663">
        <ele>203.3</ele>
        <time>2016-06-29T16:21:52Z</time>
      </trkpt>
      <trkpt lat="43.56515" lon="3.33654">
        <ele>203.5</ele>
        <time>2016-06-29T16:21:54Z</time>
      </trkpt>
      <trkpt lat="43.56512" lon="3.33645">
        <ele>203.5</ele>
        <time>2016-06-29T16:21:56Z</time>
      </trkpt>
      <trkpt lat="43.56508" lon="3.33636">
        <ele>203.6</ele>
        <time>2016-06-29T16:21:58Z</time>
      </trkpt>
      <trkpt lat="43.56504" lon="3.33627">
        <ele>203.9</ele>
        <time>2016-06-29T16:22:00Z</time>
      </trkpt>
      <trkpt lat="43.56501" lon="3.33618">
        <ele>203.7</ele>
        <time>2016-06-29T16:22:02Z</time>
      </trkpt>
      <trkpt lat="43.56497" lon="3.33609">
        <ele>203.7</ele>
        <time>2016-06-29T16:22:04Z</time>
      </trkpt>
      <trkpt lat="43.56491" lon="3.336">
        <ele>204.2</ele>
        <time>2016-06-29T16:22:06Z</time>
      </trkpt>
      <trkpt lat="43.56486" lon="3.33592">
        <ele>204.3</ele>
        <time>2016-06-29T16:22:08Z</time>
      </trkpt>
      <trkpt lat="43.56481" lon="3.33584">
        <ele>204</ele>
        <time>2016-06-29T16:22:10Z</time>
      </trkpt>
      <trkpt lat="43.56474" lon="3.33573">
        <ele>204.1</ele>
        <time>2016-06-29T16:22:13Z</time>
      </trkpt>
      <trkpt lat="43.5647" lon="3.3356">
        <ele>204.2</ele>
        <time>2016-06-29T16:22:16Z</time>
      </trkpt>
      <trkpt lat="43.56466" lon="3.33547">
        <ele>204.3</ele>
        <time>2016-06-29T16:22:19Z</time>
      </trkpt>
      <trkpt lat="43.56463" lon="3.33537">
        <ele>204.5</ele>
        <time>2016-06-29T16:22:22Z</time>
      </trkpt>
      <trkpt lat="43.56459" lon="3.33527">
        <ele>204.8</ele>
        <time>2016-06-29T16:22:24Z</time>
      </trkpt>
      <trkpt lat="43.56453" lon="3.33517">
        <ele>205.3</ele>
        <time>2016-06-29T16:22:27Z</time>
      </trkpt>
      <trkpt lat="43.56447" lon="3.33506">
        <ele>205.6</ele>
        <time>2016-06-29T16:22:30Z</time>
      </trkpt>
      <trkpt lat="43.56442" lon="3.33498">
        <ele>205.8</ele>
        <time>2016-06-29T16:22:32Z</time>
      </trkpt>
      <trkpt lat="43.56436" lon="3.33488">
        <ele>206.1</ele>
        <time>2016-06-29T16:22:35Z</time>
      </trkpt>
      <trkpt lat="43.56428" lon="3.33477">
        <ele>207.6</ele>
        <time>2016-06-29T16:22:38Z</time>
      </trkpt>
      <trkpt lat="43.56422" lon="3.33466">
        <ele>209.8</ele>
        <time>2016-06-29T16:22:40Z</time>
      </trkpt>
      <trkpt lat="43.56415" lon="3.33453">
        <ele>211.2</ele>
        <time>2016-06-29T16:22:42Z</time>
      </trkpt>
      <trkpt lat="43.56406" lon="3.33439">
        <ele>210.9</ele>
        <time>2016-06-29T16:22:44Z</time>
      </trkpt>
      <trkpt lat="43.56397" lon="3.33425">
        <ele>210.1</ele>
        <time>2016-06-29T16:22:46Z</time>
      </trkpt>
      <trkpt lat="43.56388" lon="3.3341">
        <ele>209.3</ele>
        <time>2016-06-29T16:22:48Z</time>
      </trkpt>
      <trkpt lat="43.5638" lon="3.33396">
        <ele>209.5</ele>
        <time>2016-06-29T16:22:50Z</time>
      </trkpt>
      <trkpt lat="43.56373" lon="3.33383">
        <ele>209.5</ele>
        <time>2016-06-29T16:22:52Z</time>
      </trkpt>
      <trkpt lat="43.56367" lon="3.3337">
        <ele>208.6</ele>
        <time>2016-06-29T16:22:54Z</time>
      </trkpt>
      <trkpt lat="43.56363" lon="3.33355">
        <ele>207.6</ele>
        <time>2016-06-29T16:22:56Z</time>
      </trkpt>
      <trkpt lat="43.56359" lon="3.33343">
        <ele>207.1</ele>
        <time>2016-06-29T16:22:58Z</time>
      </trkpt>
      <trkpt lat="43.56355" lon="3.33328">
        <ele>207.7</ele>
        <time>2016-06-29T16:23:00Z</time>
      </trkpt>
      <trkpt lat="43.56351" lon="3.33316">
        <ele>208.9</ele>
        <time>2016-06-29T16:23:02Z</time>
      </trkpt>
      <trkpt lat="43.56346" lon="3.33305">
        <ele>209.1</ele>
        <time>2016-06-29T16:23:04Z</time>
      </trkpt>
      <trkpt lat="43.56342" lon="3.33294">
        <ele>209.5</ele>
        <time>2016-06-29T16:23:06Z</time>
      </trkpt>
      <trkpt lat="43.56337" lon="3.33283">
        <ele>210.1</ele>
        <time>2016-06-29T16:23:08Z</time>
      </trkpt>
      <trkpt lat="43.56333" lon="3.33272">
        <ele>210.8</ele>
        <time>2016-06-29T16:23:10Z</time>
      </trkpt>
      <trkpt lat="43.56328" lon="3.33261">
        <ele>211.2</ele>
        <time>2016-06-29T16:23:12Z</time>
      </trkpt>
      <trkpt lat="43.56325" lon="3.33249">
        <ele>211.8</ele>
        <time>2016-06-29T16:23:14Z</time>
      </trkpt>
      <trkpt lat="43.56322" lon="3.33239">
        <ele>212</ele>
        <time>2016-06-29T16:23:16Z</time>
      </trkpt>
      <trkpt lat="43.56319" lon="3.33226">
        <ele>211.9</ele>
        <time>2016-06-29T16:23:18Z</time>
      </trkpt>
      <trkpt lat="43.56315" lon="3.33211">
        <ele>211</ele>
        <time>2016-06-29T16:23:20Z</time>
      </trkpt>
      <trkpt lat="43.56313" lon="3.332">
        <ele>210.6</ele>
        <time>2016-06-29T16:23:22Z</time>
      </trkpt>
      <trkpt lat="43.56311" lon="3.33188">
        <ele>210.2</ele>
        <time>2016-06-29T16:23:24Z</time>
      </trkpt>
      <trkpt lat="43.56309" lon="3.33177">
        <ele>209.7</ele>
        <time>2016-06-29T16:23:26Z</time>
      </trkpt>
      <trkpt lat="43.56307" lon="3.33166">
        <ele>209.2</ele>
        <time>2016-06-29T16:23:28Z</time>
      </trkpt>
      <trkpt lat="43.56305" lon="3.33154">
        <ele>209.5</ele>
        <time>2016-06-29T16:23:30Z</time>
      </trkpt>
      <trkpt lat="43.56303" lon="3.33141">
        <ele>210</ele>
        <time>2016-06-29T16:23:32Z</time>
      </trkpt>
      <trkpt lat="43.563" lon="3.33131">
        <ele>209.9</ele>
        <time>2016-06-29T16:23:34Z</time>
      </trkpt>
      <trkpt lat="43.56298" lon="3.33118">
        <ele>210</ele>
        <time>2016-06-29T16:23:36Z</time>
      </trkpt>
      <trkpt lat="43.56296" lon="3.33105">
        <ele>209.7</ele>
        <time>2016-06-29T16:23:38Z</time>
      </trkpt>
      <trkpt lat="43.56295" lon="3.33092">
        <ele>208.3</ele>
        <time>2016-06-29T16:23:40Z</time>
      </trkpt>
      <trkpt lat="43.56295" lon="3.33081">
        <ele>207.8</ele>
        <time>2016-06-29T16:23:42Z</time>
      </trkpt>
      <trkpt lat="43.56295" lon="3.33071">
        <ele>207.4</ele>
        <time>2016-06-29T16:23:44Z</time>
      </trkpt>
      <trkpt lat="43.56297" lon="3.3306">
        <ele>208.2</ele>
        <time>2016-06-29T16:23:46Z</time>
      </trkpt>
      <trkpt lat="43.56298" lon="3.33048">
        <ele>209.2</ele>
        <time>2016-06-29T16:23:48Z</time>
      </trkpt>
      <trkpt lat="43.56301" lon="3.33038">
        <ele>210.3</ele>
        <time>2016-06-29T16:23:50Z</time>
      </trkpt>
      <trkpt lat="43.56303" lon="3.33027">
        <ele>211.2</ele>
        <time>2016-06-29T16:23:52Z</time>
      </trkpt>
      <trkpt lat="43.56304" lon="3.33014">
        <ele>211.5</ele>
        <time>2016-06-29T16:23:55Z</time>
      </trkpt>
      <trkpt lat="43.56302" lon="3.32999">
        <ele>211.9</ele>
        <time>2016-06-29T16:23:58Z</time>
      </trkpt>
      <trkpt lat="43.56296" lon="3.32987">
        <ele>211.8</ele>
        <time>2016-06-29T16:24:00Z</time>
      </trkpt>
      <trkpt lat="43.56288" lon="3.3298">
        <ele>211.5</ele>
        <time>2016-06-29T16:24:02Z</time>
      </trkpt>
      <trkpt lat="43.56282" lon="3.32974">
        <ele>211.8</ele>
        <time>2016-06-29T16:24:04Z</time>
      </trkpt>
      <trkpt lat="43.56271" lon="3.3297">
        <ele>212.3</ele>
        <time>2016-06-29T16:24:06Z</time>
      </trkpt>
      <trkpt lat="43.56263" lon="3.32964">
        <ele>212.3</ele>
        <time>2016-06-29T16:24:09Z</time>
      </trkpt>
      <trkpt lat="43.56261" lon="3.32953">
        <ele>212.3</ele>
        <time>2016-06-29T16:24:12Z</time>
      </trkpt>
      <trkpt lat="43.56262" lon="3.32939">
        <ele>212.4</ele>
        <time>2016-06-29T16:24:15Z</time>
      </trkpt>
      <trkpt lat="43.56262" lon="3.32928">
        <ele>212.1</ele>
        <time>2016-06-29T16:24:17Z</time>
      </trkpt>
      <trkpt lat="43.56262" lon="3.32916">
        <ele>211.9</ele>
        <time>2016-06-29T16:24:19Z</time>
      </trkpt>
      <trkpt lat="43.56261" lon="3.32906">
        <ele>212</ele>
        <time>2016-06-29T16:24:21Z</time>
      </trkpt>
      <trkpt lat="43.5626" lon="3.32896">
        <ele>212</ele>
        <time>2016-06-29T16:24:23Z</time>
      </trkpt>
      <trkpt lat="43.56259" lon="3.32883">
        <ele>212</ele>
        <time>2016-06-29T16:24:26Z</time>
      </trkpt>
      <trkpt lat="43.56258" lon="3.32873">
        <ele>212.1</ele>
        <time>2016-06-29T16:24:28Z</time>
      </trkpt>
      <trkpt lat="43.56257" lon="3.32862">
        <ele>212.1</ele>
        <time>2016-06-29T16:24:30Z</time>
      </trkpt>
      <trkpt lat="43.56256" lon="3.3285">
        <ele>212.2</ele>
        <time>2016-06-29T16:24:33Z</time>
      </trkpt>
      <trkpt lat="43.56256" lon="3.32836">
        <ele>212.3</ele>
        <time>2016-06-29T16:24:36Z</time>
      </trkpt>
      <trkpt lat="43.56257" lon="3.32822">
        <ele>212.6</ele>
        <time>2016-06-29T16:24:39Z</time>
      </trkpt>
      <trkpt lat="43.56258" lon="3.32811">
        <ele>212.8</ele>
        <time>2016-06-29T16:24:42Z</time>
      </trkpt>
      <trkpt lat="43.5626" lon="3.32797">
        <ele>212.9</ele>
        <time>2016-06-29T16:24:45Z</time>
      </trkpt>
      <trkpt lat="43.56264" lon="3.32789">
        <ele>213.1</ele>
        <time>2016-06-29T16:24:47Z</time>
      </trkpt>
      <trkpt lat="43.56269" lon="3.32782">
        <ele>213.5</ele>
        <time>2016-06-29T16:24:49Z</time>
      </trkpt>
      <trkpt lat="43.56274" lon="3.32771">
        <ele>214</ele>
        <time>2016-06-29T16:24:52Z</time>
      </trkpt>
      <trkpt lat="43.56275" lon="3.32757">
        <ele>214.3</ele>
        <time>2016-06-29T16:24:55Z</time>
      </trkpt>
      <trkpt lat="43.56275" lon="3.32745">
        <ele>214.5</ele>
        <time>2016-06-29T16:24:58Z</time>
      </trkpt>
      <trkpt lat="43.56273" lon="3.32732">
        <ele>214.8</ele>
        <time>2016-06-29T16:25:01Z</time>
      </trkpt>
      <trkpt lat="43.56272" lon="3.32721">
        <ele>214.9</ele>
        <time>2016-06-29T16:25:04Z</time>
      </trkpt>
      <trkpt lat="43.56271" lon="3.32711">
        <ele>215</ele>
        <time>2016-06-29T16:25:06Z</time>
      </trkpt>
      <trkpt lat="43.56271" lon="3.32698">
        <ele>215.2</ele>
        <time>2016-06-29T16:25:09Z</time>
      </trkpt>
      <trkpt lat="43.56271" lon="3.32686">
        <ele>215.4</ele>
        <time>2016-06-29T16:25:12Z</time>
      </trkpt>
      <trkpt lat="43.5627" lon="3.32672">
        <ele>215.6</ele>
        <time>2016-06-29T16:25:15Z</time>
      </trkpt>
      <trkpt lat="43.56269" lon="3.32659">
        <ele>215.9</ele>
        <time>2016-06-29T16:25:18Z</time>
      </trkpt>
      <trkpt lat="43.56268" lon="3.32647">
        <ele>216.2</ele>
        <time>2016-06-29T16:25:21Z</time>
      </trkpt>
      <trkpt lat="43.56267" lon="3.32632">
        <ele>216.6</ele>
        <time>2016-06-29T16:25:24Z</time>
      </trkpt>
      <trkpt lat="43.56266" lon="3.32621">
        <ele>216.9</ele>
        <time>2016-06-29T16:25:27Z</time>
      </trkpt>
      <trkpt lat="43.56263" lon="3.32608">
        <ele>217</ele>
        <time>2016-06-29T16:25:30Z</time>
      </trkpt>
      <trkpt lat="43.56263" lon="3.32596">
        <ele>217.3</ele>
        <time>2016-06-29T16:25:33Z</time>
      </trkpt>
      <trkpt lat="43.56262" lon="3.32583">
        <ele>217.6</ele>
        <time>2016-06-29T16:25:36Z</time>
      </trkpt>
      <trkpt lat="43.5626" lon="3.32569">
        <ele>217.9</ele>
        <time>2016-06-29T16:25:39Z</time>
      </trkpt>
      <trkpt lat="43.56258" lon="3.32556">
        <ele>218.3</ele>
        <time>2016-06-29T16:25:42Z</time>
      </trkpt>
      <trkpt lat="43.56258" lon="3.32545">
        <ele>218.6</ele>
        <time>2016-06-29T16:25:45Z</time>
      </trkpt>
      <trkpt lat="43.5626" lon="3.3253">
        <ele>219</ele>
        <time>2016-06-29T16:25:48Z</time>
      </trkpt>
      <trkpt lat="43.5626" lon="3.32518">
        <ele>219.5</ele>
        <time>2016-06-29T16:25:51Z</time>
      </trkpt>
      <trkpt lat="43.56261" lon="3.32504">
        <ele>220</ele>
        <time>2016-06-29T16:25:54Z</time>
      </trkpt>
      <trkpt lat="43.56262" lon="3.32493">
        <ele>220.4</ele>
        <time>2016-06-29T16:25:57Z</time>
      </trkpt>
      <trkpt lat="43.56264" lon="3.3248">
        <ele>221.1</ele>
        <time>2016-06-29T16:26:00Z</time>
      </trkpt>
      <trkpt lat="43.56265" lon="3.32468">
        <ele>221.6</ele>
        <time>2016-06-29T16:26:03Z</time>
      </trkpt>
      <trkpt lat="43.56266" lon="3.32456">
        <ele>222.2</ele>
        <time>2016-06-29T16:26:06Z</time>
      </trkpt>
      <trkpt lat="43.56267" lon="3.32444">
        <ele>222.8</ele>
        <time>2016-06-29T16:26:09Z</time>
      </trkpt>
      <trkpt lat="43.56269" lon="3.32429">
        <ele>223.7</ele>
        <time>2016-06-29T16:26:13Z</time>
      </trkpt>
      <trkpt lat="43.56271" lon="3.32415">
        <ele>224.2</ele>
        <time>2016-06-29T16:26:16Z</time>
      </trkpt>
      <trkpt lat="43.56275" lon="3.32403">
        <ele>225</ele>
        <time>2016-06-29T16:26:19Z</time>
      </trkpt>
      <trkpt lat="43.56278" lon="3.32391">
        <ele>225.6</ele>
        <time>2016-06-29T16:26:22Z</time>
      </trkpt>
      <trkpt lat="43.56279" lon="3.32379">
        <ele>226</ele>
        <time>2016-06-29T16:26:25Z</time>
      </trkpt>
      <trkpt lat="43.56278" lon="3.32367">
        <ele>226.3</ele>
        <time>2016-06-29T16:26:28Z</time>
      </trkpt>
      <trkpt lat="43.56271" lon="3.32365">
        <ele>227.1</ele>
        <time>2016-06-29T16:26:34Z</time>
      </trkpt>
      <trkpt lat="43.56267" lon="3.32375">
        <ele>227.7</ele>
        <time>2016-06-29T16:26:37Z</time>
      </trkpt>
      <trkpt lat="43.56263" lon="3.32385">
        <ele>228.2</ele>
        <time>2016-06-29T16:26:40Z</time>
      </trkpt>
      <trkpt lat="43.56258" lon="3.32396">
        <ele>228.6</ele>
        <time>2016-06-29T16:26:43Z</time>
      </trkpt>
      <trkpt lat="43.56255" lon="3.32407">
        <ele>229.1</ele>
        <time>2016-06-29T16:26:46Z</time>
      </trkpt>
      <trkpt lat="43.56252" lon="3.32418">
        <ele>229.6</ele>
        <time>2016-06-29T16:26:49Z</time>
      </trkpt>
      <trkpt lat="43.56249" lon="3.3243">
        <ele>230.1</ele>
        <time>2016-06-29T16:26:52Z</time>
      </trkpt>
      <trkpt lat="43.56246" lon="3.32442">
        <ele>230.5</ele>
        <time>2016-06-29T16:26:55Z</time>
      </trkpt>
      <trkpt lat="43.56244" lon="3.32455">
        <ele>231</ele>
        <time>2016-06-29T16:26:58Z</time>
      </trkpt>
      <trkpt lat="43.56241" lon="3.32467">
        <ele>231.4</ele>
        <time>2016-06-29T16:27:01Z</time>
      </trkpt>
      <trkpt lat="43.56237" lon="3.32479">
        <ele>231.8</ele>
        <time>2016-06-29T16:27:04Z</time>
      </trkpt>
      <trkpt lat="43.56233" lon="3.32491">
        <ele>232.2</ele>
        <time>2016-06-29T16:27:07Z</time>
      </trkpt>
      <trkpt lat="43.5623" lon="3.32502">
        <ele>232.8</ele>
        <time>2016-06-29T16:27:10Z</time>
      </trkpt>
      <trkpt lat="43.56226" lon="3.32513">
        <ele>233.4</ele>
        <time>2016-06-29T16:27:13Z</time>
      </trkpt>
      <trkpt lat="43.56219" lon="3.32523">
        <ele>233.8</ele>
        <time>2016-06-29T16:27:16Z</time>
      </trkpt>
      <trkpt lat="43.56214" lon="3.32531">
        <ele>234.3</ele>
        <time>2016-06-29T16:27:19Z</time>
      </trkpt>
      <trkpt lat="43.56207" lon="3.3253">
        <ele>234.7</ele>
        <time>2016-06-29T16:27:22Z</time>
      </trkpt>
      <trkpt lat="43.56206" lon="3.32519">
        <ele>235.4</ele>
        <time>2016-06-29T16:27:26Z</time>
      </trkpt>
      <trkpt lat="43.56209" lon="3.32508">
        <ele>236</ele>
        <time>2016-06-29T16:27:29Z</time>
      </trkpt>
      <trkpt lat="43.56212" lon="3.32498">
        <ele>236.7</ele>
        <time>2016-06-29T16:27:33Z</time>
      </trkpt>
      <trkpt lat="43.56215" lon="3.32488">
        <ele>237.3</ele>
        <time>2016-06-29T16:27:36Z</time>
      </trkpt>
      <trkpt lat="43.56218" lon="3.32478">
        <ele>238.1</ele>
        <time>2016-06-29T16:27:39Z</time>
      </trkpt>
      <trkpt lat="43.5622" lon="3.32468">
        <ele>238.9</ele>
        <time>2016-06-29T16:27:42Z</time>
      </trkpt>
      <trkpt lat="43.5622" lon="3.32457">
        <ele>239.9</ele>
        <time>2016-06-29T16:27:46Z</time>
      </trkpt>
      <trkpt lat="43.56219" lon="3.32446">
        <ele>240.5</ele>
        <time>2016-06-29T16:27:49Z</time>
      </trkpt>
      <trkpt lat="43.56218" lon="3.32433">
        <ele>241.3</ele>
        <time>2016-06-29T16:27:53Z</time>
      </trkpt>
      <trkpt lat="43.56218" lon="3.32421">
        <ele>241.9</ele>
        <time>2016-06-29T16:27:57Z</time>
      </trkpt>
      <trkpt lat="43.56219" lon="3.3241">
        <ele>242.3</ele>
        <time>2016-06-29T16:28:00Z</time>
      </trkpt>
      <trkpt lat="43.56218" lon="3.324">
        <ele>242.5</ele>
        <time>2016-06-29T16:28:03Z</time>
      </trkpt>
      <trkpt lat="43.56218" lon="3.32388">
        <ele>242.9</ele>
        <time>2016-06-29T16:28:07Z</time>
      </trkpt>
      <trkpt lat="43.56217" lon="3.32375">
        <ele>243.7</ele>
        <time>2016-06-29T16:28:11Z</time>
      </trkpt>
      <trkpt lat="43.5621" lon="3.32379">
        <ele>244.8</ele>
        <time>2016-06-29T16:28:17Z</time>
      </trkpt>
      <trkpt lat="43.56208" lon="3.3239">
        <ele>245.7</ele>
        <time>2016-06-29T16:28:21Z</time>
      </trkpt>
      <trkpt lat="43.56206" lon="3.324">
        <ele>246.4</ele>
        <time>2016-06-29T16:28:24Z</time>
      </trkpt>
      <trkpt lat="43.56203" lon="3.3241">
        <ele>247</ele>
        <time>2016-06-29T16:28:27Z</time>
      </trkpt>
      <trkpt lat="43.56201" lon="3.3242">
        <ele>247.7</ele>
        <time>2016-06-29T16:28:30Z</time>
      </trkpt>
      <trkpt lat="43.56198" lon="3.3243">
        <ele>248.4</ele>
        <time>2016-06-29T16:28:33Z</time>
      </trkpt>
      <trkpt lat="43.56195" lon="3.32439">
        <ele>249.1</ele>
        <time>2016-06-29T16:28:36Z</time>
      </trkpt>
      <trkpt lat="43.56193" lon="3.32449">
        <ele>249.7</ele>
        <time>2016-06-29T16:28:39Z</time>
      </trkpt>
      <trkpt lat="43.56191" lon="3.3246">
        <ele>250.4</ele>
        <time>2016-06-29T16:28:42Z</time>
      </trkpt>
      <trkpt lat="43.56187" lon="3.3247">
        <ele>251</ele>
        <time>2016-06-29T16:28:45Z</time>
      </trkpt>
      <trkpt lat="43.56183" lon="3.32479">
        <ele>251.7</ele>
        <time>2016-06-29T16:28:48Z</time>
      </trkpt>
      <trkpt lat="43.56178" lon="3.32487">
        <ele>252.3</ele>
        <time>2016-06-29T16:28:51Z</time>
      </trkpt>
      <trkpt lat="43.56173" lon="3.32494">
        <ele>252.9</ele>
        <time>2016-06-29T16:28:54Z</time>
      </trkpt>
      <trkpt lat="43.56166" lon="3.32503">
        <ele>253.7</ele>
        <time>2016-06-29T16:28:58Z</time>
      </trkpt>
      <trkpt lat="43.5616" lon="3.32513">
        <ele>254.3</ele>
        <time>2016-06-29T16:29:01Z</time>
      </trkpt>
      <trkpt lat="43.56155" lon="3.32522">
        <ele>254.9</ele>
        <time>2016-06-29T16:29:04Z</time>
      </trkpt>
      <trkpt lat="43.56151" lon="3.32532">
        <ele>255.4</ele>
        <time>2016-06-29T16:29:07Z</time>
      </trkpt>
      <trkpt lat="43.56146" lon="3.3254">
        <ele>256</ele>
        <time>2016-06-29T16:29:10Z</time>
      </trkpt>
      <trkpt lat="43.56142" lon="3.32547">
        <ele>256.6</ele>
        <time>2016-06-29T16:29:13Z</time>
      </trkpt>
      <trkpt lat="43.56137" lon="3.32555">
        <ele>257.3</ele>
        <time>2016-06-29T16:29:16Z</time>
      </trkpt>
      <trkpt lat="43.56131" lon="3.32563">
        <ele>258</ele>
        <time>2016-06-29T16:29:19Z</time>
      </trkpt>
      <trkpt lat="43.56125" lon="3.3257">
        <ele>258.6</ele>
        <time>2016-06-29T16:29:22Z</time>
      </trkpt>
      <trkpt lat="43.56119" lon="3.32579">
        <ele>259.5</ele>
        <time>2016-06-29T16:29:26Z</time>
      </trkpt>
      <trkpt lat="43.56113" lon="3.32586">
        <ele>260.1</ele>
        <time>2016-06-29T16:29:29Z</time>
      </trkpt>
      <trkpt lat="43.56106" lon="3.32593">
        <ele>260.6</ele>
        <time>2016-06-29T16:29:32Z</time>
      </trkpt>
      <trkpt lat="43.56098" lon="3.32599">
        <ele>261.3</ele>
        <time>2016-06-29T16:29:36Z</time>
      </trkpt>
      <trkpt lat="43.56091" lon="3.32602">
        <ele>261.8</ele>
        <time>2016-06-29T16:29:39Z</time>
      </trkpt>
      <trkpt lat="43.56084" lon="3.32607">
        <ele>262.3</ele>
        <time>2016-06-29T16:29:42Z</time>
      </trkpt>
      <trkpt lat="43.56076" lon="3.3261">
        <ele>263</ele>
        <time>2016-06-29T16:29:46Z</time>
      </trkpt>
      <trkpt lat="43.56067" lon="3.32615">
        <ele>263.7</ele>
        <time>2016-06-29T16:29:50Z</time>
      </trkpt>
      <trkpt lat="43.56059" lon="3.32619">
        <ele>264.4</ele>
        <time>2016-06-29T16:29:54Z</time>
      </trkpt>
      <trkpt lat="43.56051" lon="3.32623">
        <ele>265</ele>
        <time>2016-06-29T16:29:57Z</time>
      </trkpt>
      <trkpt lat="43.56044" lon="3.32625">
        <ele>265.7</ele>
        <time>2016-06-29T16:30:00Z</time>
      </trkpt>
      <trkpt lat="43.56036" lon="3.32632">
        <ele>266.5</ele>
        <time>2016-06-29T16:30:04Z</time>
      </trkpt>
      <trkpt lat="43.56033" lon="3.32644">
        <ele>267.1</ele>
        <time>2016-06-29T16:30:08Z</time>
      </trkpt>
      <trkpt lat="43.5603" lon="3.32656">
        <ele>267.6</ele>
        <time>2016-06-29T16:30:11Z</time>
      </trkpt>
      <trkpt lat="43.56029" lon="3.32667">
        <ele>268.1</ele>
        <time>2016-06-29T16:30:14Z</time>
      </trkpt>
      <trkpt lat="43.56027" lon="3.3268">
        <ele>268.9</ele>
        <time>2016-06-29T16:30:17Z</time>
      </trkpt>
      <trkpt lat="43.56025" lon="3.32692">
        <ele>269.8</ele>
        <time>2016-06-29T16:30:20Z</time>
      </trkpt>
      <trkpt lat="43.56024" lon="3.32703">
        <ele>270.6</ele>
        <time>2016-06-29T16:30:23Z</time>
      </trkpt>
      <trkpt lat="43.56022" lon="3.32715">
        <ele>271.6</ele>
        <time>2016-06-29T16:30:27Z</time>
      </trkpt>
      <trkpt lat="43.56024" lon="3.32725">
        <ele>272</ele>
        <time>2016-06-29T16:30:30Z</time>
      </trkpt>
      <trkpt lat="43.56028" lon="3.32735">
        <ele>272.4</ele>
        <time>2016-06-29T16:30:33Z</time>
      </trkpt>
      <trkpt lat="43.56033" lon="3.32745">
        <ele>272.9</ele>
        <time>2016-06-29T16:30:36Z</time>
      </trkpt>
      <trkpt lat="43.56037" lon="3.32756">
        <ele>273.4</ele>
        <time>2016-06-29T16:30:39Z</time>
      </trkpt>
      <trkpt lat="43.56039" lon="3.32767">
        <ele>273.8</ele>
        <time>2016-06-29T16:30:42Z</time>
      </trkpt>
      <trkpt lat="43.56041" lon="3.32777">
        <ele>274.2</ele>
        <time>2016-06-29T16:30:44Z</time>
      </trkpt>
      <trkpt lat="43.56042" lon="3.32787">
        <ele>275</ele>
        <time>2016-06-29T16:30:47Z</time>
      </trkpt>
      <trkpt lat="43.56042" lon="3.328">
        <ele>275.8</ele>
        <time>2016-06-29T16:30:51Z</time>
      </trkpt>
      <trkpt lat="43.56041" lon="3.32811">
        <ele>276.3</ele>
        <time>2016-06-29T16:30:54Z</time>
      </trkpt>
      <trkpt lat="43.56039" lon="3.32821">
        <ele>276.8</ele>
        <time>2016-06-29T16:30:57Z</time>
      </trkpt>
      <trkpt lat="43.56036" lon="3.32831">
        <ele>277.4</ele>
        <time>2016-06-29T16:31:00Z</time>
      </trkpt>
      <trkpt lat="43.56034" lon="3.32842">
        <ele>278</ele>
        <time>2016-06-29T16:31:03Z</time>
      </trkpt>
      <trkpt lat="43.56031" lon="3.32852">
        <ele>278.6</ele>
        <time>2016-06-29T16:31:06Z</time>
      </trkpt>
      <trkpt lat="43.56027" lon="3.32862">
        <ele>279.1</ele>
        <time>2016-06-29T16:31:09Z</time>
      </trkpt>
      <trkpt lat="43.56022" lon="3.32872">
        <ele>279.8</ele>
        <time>2016-06-29T16:31:13Z</time>
      </trkpt>
      <trkpt lat="43.56015" lon="3.32881">
        <ele>280.4</ele>
        <time>2016-06-29T16:31:17Z</time>
      </trkpt>
      <trkpt lat="43.56011" lon="3.3289">
        <ele>280.7</ele>
        <time>2016-06-29T16:31:20Z</time>
      </trkpt>
      <trkpt lat="43.56003" lon="3.32898">
        <ele>281.2</ele>
        <time>2016-06-29T16:31:23Z</time>
      </trkpt>
      <trkpt lat="43.55995" lon="3.32904">
        <ele>281.5</ele>
        <time>2016-06-29T16:31:26Z</time>
      </trkpt>
      <trkpt lat="43.55987" lon="3.32907">
        <ele>282</ele>
        <time>2016-06-29T16:31:29Z</time>
      </trkpt>
      <trkpt lat="43.55979" lon="3.3291">
        <ele>282.5</ele>
        <time>2016-06-29T16:31:32Z</time>
      </trkpt>
      <trkpt lat="43.55971" lon="3.32914">
        <ele>283</ele>
        <time>2016-06-29T16:31:35Z</time>
      </trkpt>
      <trkpt lat="43.55964" lon="3.32919">
        <ele>283.5</ele>
        <time>2016-06-29T16:31:38Z</time>
      </trkpt>
      <trkpt lat="43.55956" lon="3.32925">
        <ele>284.1</ele>
        <time>2016-06-29T16:31:41Z</time>
      </trkpt>
      <trkpt lat="43.55948" lon="3.32933">
        <ele>284.7</ele>
        <time>2016-06-29T16:31:44Z</time>
      </trkpt>
      <trkpt lat="43.55942" lon="3.3294">
        <ele>287.9</ele>
        <time>2016-06-29T16:31:46Z</time>
      </trkpt>
      <trkpt lat="43.55935" lon="3.3295">
        <ele>288.9</ele>
        <time>2016-06-29T16:31:49Z</time>
      </trkpt>
      <trkpt lat="43.55932" lon="3.32965">
        <ele>290.6</ele>
        <time>2016-06-29T16:31:52Z</time>
      </trkpt>
      <trkpt lat="43.55927" lon="3.32977">
        <ele>292.2</ele>
        <time>2016-06-29T16:31:54Z</time>
      </trkpt>
      <trkpt lat="43.55919" lon="3.32986">
        <ele>293.4</ele>
        <time>2016-06-29T16:31:56Z</time>
      </trkpt>
      <trkpt lat="43.55912" lon="3.32993">
        <ele>293.7</ele>
        <time>2016-06-29T16:31:58Z</time>
      </trkpt>
      <trkpt lat="43.55907" lon="3.33005">
        <ele>293.7</ele>
        <time>2016-06-29T16:32:01Z</time>
      </trkpt>
      <trkpt lat="43.55904" lon="3.33014">
        <ele>293.8</ele>
        <time>2016-06-29T16:32:03Z</time>
      </trkpt>
      <trkpt lat="43.55902" lon="3.33024">
        <ele>293.9</ele>
        <time>2016-06-29T16:32:05Z</time>
      </trkpt>
      <trkpt lat="43.55898" lon="3.33035">
        <ele>294.1</ele>
        <time>2016-06-29T16:32:08Z</time>
      </trkpt>
      <trkpt lat="43.55894" lon="3.33045">
        <ele>294.3</ele>
        <time>2016-06-29T16:32:11Z</time>
      </trkpt>
      <trkpt lat="43.55889" lon="3.33055">
        <ele>294.3</ele>
        <time>2016-06-29T16:32:14Z</time>
      </trkpt>
      <trkpt lat="43.55883" lon="3.33062">
        <ele>294.6</ele>
        <time>2016-06-29T16:32:16Z</time>
      </trkpt>
      <trkpt lat="43.55877" lon="3.33069">
        <ele>294.9</ele>
        <time>2016-06-29T16:32:18Z</time>
      </trkpt>
      <trkpt lat="43.55869" lon="3.33077">
        <ele>294.9</ele>
        <time>2016-06-29T16:32:21Z</time>
      </trkpt>
      <trkpt lat="43.55862" lon="3.33087">
        <ele>294.9</ele>
        <time>2016-06-29T16:32:24Z</time>
      </trkpt>
      <trkpt lat="43.55856" lon="3.33096">
        <ele>294.9</ele>
        <time>2016-06-29T16:32:27Z</time>
      </trkpt>
      <trkpt lat="43.5585" lon="3.33105">
        <ele>294.9</ele>
        <time>2016-06-29T16:32:30Z</time>
      </trkpt>
      <trkpt lat="43.55845" lon="3.33115">
        <ele>294.8</ele>
        <time>2016-06-29T16:32:33Z</time>
      </trkpt>
      <trkpt lat="43.5584" lon="3.33126">
        <ele>294.8</ele>
        <time>2016-06-29T16:32:36Z</time>
      </trkpt>
      <trkpt lat="43.55834" lon="3.33136">
        <ele>294.8</ele>
        <time>2016-06-29T16:32:39Z</time>
      </trkpt>
      <trkpt lat="43.55829" lon="3.33144">
        <ele>294.8</ele>
        <time>2016-06-29T16:32:42Z</time>
      </trkpt>
      <trkpt lat="43.55825" lon="3.33154">
        <ele>294.8</ele>
        <time>2016-06-29T16:32:45Z</time>
      </trkpt>
      <trkpt lat="43.55821" lon="3.33163">
        <ele>295</ele>
        <time>2016-06-29T16:32:48Z</time>
      </trkpt>
      <trkpt lat="43.55817" lon="3.33172">
        <ele>295.2</ele>
        <time>2016-06-29T16:32:51Z</time>
      </trkpt>
      <trkpt lat="43.55812" lon="3.33183">
        <ele>295.5</ele>
        <time>2016-06-29T16:32:55Z</time>
      </trkpt>
      <trkpt lat="43.55808" lon="3.33195">
        <ele>295.8</ele>
        <time>2016-06-29T16:32:59Z</time>
      </trkpt>
      <trkpt lat="43.55805" lon="3.33205">
        <ele>296.2</ele>
        <time>2016-06-29T16:33:02Z</time>
      </trkpt>
      <trkpt lat="43.55802" lon="3.33214">
        <ele>296.5</ele>
        <time>2016-06-29T16:33:05Z</time>
      </trkpt>
      <trkpt lat="43.55798" lon="3.33226">
        <ele>296.8</ele>
        <time>2016-06-29T16:33:09Z</time>
      </trkpt>
      <trkpt lat="43.55795" lon="3.33235">
        <ele>297</ele>
        <time>2016-06-29T16:33:12Z</time>
      </trkpt>
      <trkpt lat="43.55791" lon="3.33247">
        <ele>297.3</ele>
        <time>2016-06-29T16:33:16Z</time>
      </trkpt>
      <trkpt lat="43.55788" lon="3.33257">
        <ele>297.6</ele>
        <time>2016-06-29T16:33:19Z</time>
      </trkpt>
      <trkpt lat="43.55785" lon="3.33268">
        <ele>298</ele>
        <time>2016-06-29T16:33:23Z</time>
      </trkpt>
      <trkpt lat="43.55782" lon="3.3328">
        <ele>298.3</ele>
        <time>2016-06-29T16:33:27Z</time>
      </trkpt>
      <trkpt lat="43.55779" lon="3.3329">
        <ele>298.7</ele>
        <time>2016-06-29T16:33:30Z</time>
      </trkpt>
      <trkpt lat="43.55776" lon="3.33301">
        <ele>299.2</ele>
        <time>2016-06-29T16:33:34Z</time>
      </trkpt>
      <trkpt lat="43.55773" lon="3.33313">
        <ele>299.8</ele>
        <time>2016-06-29T16:33:38Z</time>
      </trkpt>
      <trkpt lat="43.55769" lon="3.33323">
        <ele>300.5</ele>
        <time>2016-06-29T16:33:41Z</time>
      </trkpt>
      <trkpt lat="43.55765" lon="3.33332">
        <ele>301.3</ele>
        <time>2016-06-29T16:33:45Z</time>
      </trkpt>
      <trkpt lat="43.55759" lon="3.33342">
        <ele>301.7</ele>
        <time>2016-06-29T16:33:49Z</time>
      </trkpt>
      <trkpt lat="43.55754" lon="3.33352">
        <ele>302.4</ele>
        <time>2016-06-29T16:33:53Z</time>
      </trkpt>
      <trkpt lat="43.55749" lon="3.33362">
        <ele>303.1</ele>
        <time>2016-06-29T16:33:57Z</time>
      </trkpt>
      <trkpt lat="43.55744" lon="3.33373">
        <ele>303.8</ele>
        <time>2016-06-29T16:34:01Z</time>
      </trkpt>
      <trkpt lat="43.55739" lon="3.33381">
        <ele>304.3</ele>
        <time>2016-06-29T16:34:04Z</time>
      </trkpt>
      <trkpt lat="43.55733" lon="3.33389">
        <ele>304.8</ele>
        <time>2016-06-29T16:34:08Z</time>
      </trkpt>
      <trkpt lat="43.55727" lon="3.33397">
        <ele>305.3</ele>
        <time>2016-06-29T16:34:12Z</time>
      </trkpt>
      <trkpt lat="43.55721" lon="3.33404">
        <ele>305.6</ele>
        <time>2016-06-29T16:34:15Z</time>
      </trkpt>
      <trkpt lat="43.55714" lon="3.33413">
        <ele>306</ele>
        <time>2016-06-29T16:34:19Z</time>
      </trkpt>
      <trkpt lat="43.55708" lon="3.33424">
        <ele>306.4</ele>
        <time>2016-06-29T16:34:23Z</time>
      </trkpt>
      <trkpt lat="43.55704" lon="3.33434">
        <ele>306.7</ele>
        <time>2016-06-29T16:34:27Z</time>
      </trkpt>
      <trkpt lat="43.55699" lon="3.33441">
        <ele>307.1</ele>
        <time>2016-06-29T16:34:31Z</time>
      </trkpt>
      <trkpt lat="43.55695" lon="3.33432">
        <ele>307.7</ele>
        <time>2016-06-29T16:34:38Z</time>
      </trkpt>
      <trkpt lat="43.55697" lon="3.33422">
        <ele>308.4</ele>
        <time>2016-06-29T16:34:45Z</time>
      </trkpt>
      <trkpt lat="43.55702" lon="3.33412">
        <ele>308.8</ele>
        <time>2016-06-29T16:34:51Z</time>
      </trkpt>
      <trkpt lat="43.55705" lon="3.33403">
        <ele>309</ele>
        <time>2016-06-29T16:34:57Z</time>
      </trkpt>
      <trkpt lat="43.55709" lon="3.33393">
        <ele>309.3</ele>
        <time>2016-06-29T16:35:02Z</time>
      </trkpt>
      <trkpt lat="43.55707" lon="3.33382">
        <ele>309.7</ele>
        <time>2016-06-29T16:35:07Z</time>
      </trkpt>
      <trkpt lat="43.55702" lon="3.33376">
        <ele>310.1</ele>
        <time>2016-06-29T16:35:13Z</time>
      </trkpt>
      <trkpt lat="43.55695" lon="3.33367">
        <ele>310.3</ele>
        <time>2016-06-29T16:35:17Z</time>
      </trkpt>
      <trkpt lat="43.55689" lon="3.33361">
        <ele>310.4</ele>
        <time>2016-06-29T16:35:20Z</time>
      </trkpt>
      <trkpt lat="43.55683" lon="3.33354">
        <ele>310.5</ele>
        <time>2016-06-29T16:35:23Z</time>
      </trkpt>
      <trkpt lat="43.55677" lon="3.33347">
        <ele>310.6</ele>
        <time>2016-06-29T16:35:26Z</time>
      </trkpt>
      <trkpt lat="43.55671" lon="3.33338">
        <ele>310.6</ele>
        <time>2016-06-29T16:35:29Z</time>
      </trkpt>
      <trkpt lat="43.55664" lon="3.3333">
        <ele>310.7</ele>
        <time>2016-06-29T16:35:32Z</time>
      </trkpt>
      <trkpt lat="43.55657" lon="3.33324">
        <ele>310.8</ele>
        <time>2016-06-29T16:35:35Z</time>
      </trkpt>
      <trkpt lat="43.55648" lon="3.33319">
        <ele>310.9</ele>
        <time>2016-06-29T16:35:38Z</time>
      </trkpt>
      <trkpt lat="43.5564" lon="3.33316">
        <ele>310.9</ele>
        <time>2016-06-29T16:35:41Z</time>
      </trkpt>
      <trkpt lat="43.55631" lon="3.33313">
        <ele>310.9</ele>
        <time>2016-06-29T16:35:45Z</time>
      </trkpt>
      <trkpt lat="43.55621" lon="3.3331">
        <ele>311</ele>
        <time>2016-06-29T16:35:49Z</time>
      </trkpt>
      <trkpt lat="43.55611" lon="3.33309">
        <ele>311</ele>
        <time>2016-06-29T16:35:52Z</time>
      </trkpt>
      <trkpt lat="43.55601" lon="3.33307">
        <ele>310.9</ele>
        <time>2016-06-29T16:35:55Z</time>
      </trkpt>
      <trkpt lat="43.55592" lon="3.33304">
        <ele>310.8</ele>
        <time>2016-06-29T16:35:58Z</time>
      </trkpt>
      <trkpt lat="43.55584" lon="3.33302">
        <ele>310.6</ele>
        <time>2016-06-29T16:36:01Z</time>
      </trkpt>
      <trkpt lat="43.55575" lon="3.333">
        <ele>310.4</ele>
        <time>2016-06-29T16:36:04Z</time>
      </trkpt>
      <trkpt lat="43.55566" lon="3.33298">
        <ele>310.3</ele>
        <time>2016-06-29T16:36:07Z</time>
      </trkpt>
      <trkpt lat="43.55557" lon="3.33296">
        <ele>310.1</ele>
        <time>2016-06-29T16:36:10Z</time>
      </trkpt>
      <trkpt lat="43.55548" lon="3.33294">
        <ele>309.9</ele>
        <time>2016-06-29T16:36:13Z</time>
      </trkpt>
      <trkpt lat="43.5554" lon="3.33291">
        <ele>309.7</ele>
        <time>2016-06-29T16:36:16Z</time>
      </trkpt>
      <trkpt lat="43.55536" lon="3.3329">
        <ele>309.3</ele>
        <time>2016-06-29T16:36:23Z</time>
      </trkpt>
      <trkpt lat="43.5553" lon="3.33283">
        <ele>309.7</ele>
        <time>2016-06-29T16:36:52Z</time>
      </trkpt>
      <trkpt lat="43.55526" lon="3.33273">
        <ele>309.6</ele>
        <time>2016-06-29T16:36:55Z</time>
      </trkpt>
      <trkpt lat="43.55524" lon="3.33259">
        <ele>309.6</ele>
        <time>2016-06-29T16:36:58Z</time>
      </trkpt>
      <trkpt lat="43.55521" lon="3.33247">
        <ele>309.5</ele>
        <time>2016-06-29T16:37:01Z</time>
      </trkpt>
      <trkpt lat="43.55518" lon="3.33237">
        <ele>309.4</ele>
        <time>2016-06-29T16:37:04Z</time>
      </trkpt>
      <trkpt lat="43.55515" lon="3.33228">
        <ele>309.4</ele>
        <time>2016-06-29T16:37:07Z</time>
      </trkpt>
      <trkpt lat="43.55508" lon="3.33217">
        <ele>309.4</ele>
        <time>2016-06-29T16:37:10Z</time>
      </trkpt>
      <trkpt lat="43.55501" lon="3.3321">
        <ele>308.8</ele>
        <time>2016-06-29T16:37:12Z</time>
      </trkpt>
      <trkpt lat="43.55492" lon="3.33208">
        <ele>307.9</ele>
        <time>2016-06-29T16:37:14Z</time>
      </trkpt>
      <trkpt lat="43.55482" lon="3.33205">
        <ele>306.9</ele>
        <time>2016-06-29T16:37:16Z</time>
      </trkpt>
      <trkpt lat="43.55469" lon="3.33205">
        <ele>305.6</ele>
        <time>2016-06-29T16:37:18Z</time>
      </trkpt>
      <trkpt lat="43.55462" lon="3.33206">
        <ele>304.7</ele>
        <time>2016-06-29T16:37:19Z</time>
      </trkpt>
      <trkpt lat="43.55448" lon="3.3321">
        <ele>302.6</ele>
        <time>2016-06-29T16:37:21Z</time>
      </trkpt>
      <trkpt lat="43.55435" lon="3.33214">
        <ele>301.4</ele>
        <time>2016-06-29T16:37:23Z</time>
      </trkpt>
      <trkpt lat="43.55427" lon="3.33214">
        <ele>301.1</ele>
        <time>2016-06-29T16:37:25Z</time>
      </trkpt>
      <trkpt lat="43.5542" lon="3.33204">
        <ele>301.1</ele>
        <time>2016-06-29T16:37:41Z</time>
      </trkpt>
      <trkpt lat="43.55422" lon="3.33193">
        <ele>301.3</ele>
        <time>2016-06-29T16:37:52Z</time>
      </trkpt>
      <trkpt lat="43.55419" lon="3.33181">
        <ele>302.1</ele>
        <time>2016-06-29T16:37:58Z</time>
      </trkpt>
      <trkpt lat="43.55417" lon="3.33171">
        <ele>302.5</ele>
        <time>2016-06-29T16:38:01Z</time>
      </trkpt>
      <trkpt lat="43.55413" lon="3.33159">
        <ele>302.9</ele>
        <time>2016-06-29T16:38:05Z</time>
      </trkpt>
      <trkpt lat="43.55411" lon="3.33149">
        <ele>303.2</ele>
        <time>2016-06-29T16:38:09Z</time>
      </trkpt>
      <trkpt lat="43.5541" lon="3.33139">
        <ele>303.5</ele>
        <time>2016-06-29T16:38:14Z</time>
      </trkpt>
      <trkpt lat="43.55411" lon="3.33129">
        <ele>304.1</ele>
        <time>2016-06-29T16:38:21Z</time>
      </trkpt>
      <trkpt lat="43.55416" lon="3.33121">
        <ele>304.4</ele>
        <time>2016-06-29T16:38:27Z</time>
      </trkpt>
      <trkpt lat="43.55421" lon="3.33112">
        <ele>304.8</ele>
        <time>2016-06-29T16:38:32Z</time>
      </trkpt>
      <trkpt lat="43.55423" lon="3.33102">
        <ele>305.1</ele>
        <time>2016-06-29T16:38:36Z</time>
      </trkpt>
      <trkpt lat="43.55425" lon="3.33092">
        <ele>305.3</ele>
        <time>2016-06-29T16:38:40Z</time>
      </trkpt>
      <trkpt lat="43.55428" lon="3.3308">
        <ele>305.6</ele>
        <time>2016-06-29T16:38:44Z</time>
      </trkpt>
      <trkpt lat="43.55432" lon="3.33068">
        <ele>306</ele>
        <time>2016-06-29T16:38:48Z</time>
      </trkpt>
      <trkpt lat="43.55437" lon="3.33059">
        <ele>306.2</ele>
        <time>2016-06-29T16:38:51Z</time>
      </trkpt>
      <trkpt lat="43.55442" lon="3.3305">
        <ele>306.4</ele>
        <time>2016-06-29T16:38:54Z</time>
      </trkpt>
      <trkpt lat="43.55447" lon="3.3304">
        <ele>306.7</ele>
        <time>2016-06-29T16:38:57Z</time>
      </trkpt>
      <trkpt lat="43.55453" lon="3.3303">
        <ele>306.8</ele>
        <time>2016-06-29T16:39:00Z</time>
      </trkpt>
      <trkpt lat="43.55457" lon="3.3302">
        <ele>306.9</ele>
        <time>2016-06-29T16:39:03Z</time>
      </trkpt>
      <trkpt lat="43.55462" lon="3.33009">
        <ele>307</ele>
        <time>2016-06-29T16:39:06Z</time>
      </trkpt>
      <trkpt lat="43.55466" lon="3.32999">
        <ele>307.2</ele>
        <time>2016-06-29T16:39:09Z</time>
      </trkpt>
      <trkpt lat="43.55469" lon="3.32989">
        <ele>307.5</ele>
        <time>2016-06-29T16:39:12Z</time>
      </trkpt>
      <trkpt lat="43.55472" lon="3.32978">
        <ele>307.7</ele>
        <time>2016-06-29T16:39:15Z</time>
      </trkpt>
      <trkpt lat="43.55474" lon="3.32968">
        <ele>308</ele>
        <time>2016-06-29T16:39:18Z</time>
      </trkpt>
      <trkpt lat="43.55477" lon="3.32957">
        <ele>308.3</ele>
        <time>2016-06-29T16:39:21Z</time>
      </trkpt>
      <trkpt lat="43.5548" lon="3.32947">
        <ele>308.7</ele>
        <time>2016-06-29T16:39:24Z</time>
      </trkpt>
      <trkpt lat="43.55482" lon="3.32937">
        <ele>309.1</ele>
        <time>2016-06-29T16:39:27Z</time>
      </trkpt>
      <trkpt lat="43.55486" lon="3.32927">
        <ele>309.4</ele>
        <time>2016-06-29T16:39:30Z</time>
      </trkpt>
      <trkpt lat="43.5549" lon="3.32918">
        <ele>309.7</ele>
        <time>2016-06-29T16:39:33Z</time>
      </trkpt>
      <trkpt lat="43.55495" lon="3.32909">
        <ele>310</ele>
        <time>2016-06-29T16:39:36Z</time>
      </trkpt>
      <trkpt lat="43.55499" lon="3.32899">
        <ele>310.4</ele>
        <time>2016-06-29T16:39:40Z</time>
      </trkpt>
      <trkpt lat="43.55502" lon="3.32889">
        <ele>310.8</ele>
        <time>2016-06-29T16:39:43Z</time>
      </trkpt>
      <trkpt lat="43.55505" lon="3.32878">
        <ele>311.6</ele>
        <time>2016-06-29T16:39:47Z</time>
      </trkpt>
      <trkpt lat="43.55508" lon="3.32865">
        <ele>312.4</ele>
        <time>2016-06-29T16:39:51Z</time>
      </trkpt>
      <trkpt lat="43.55508" lon="3.32854">
        <ele>312.8</ele>
        <time>2016-06-29T16:39:54Z</time>
      </trkpt>
      <trkpt lat="43.5551" lon="3.32842">
        <ele>313.2</ele>
        <time>2016-06-29T16:39:57Z</time>
      </trkpt>
      <trkpt lat="43.55512" lon="3.32832">
        <ele>313.6</ele>
        <time>2016-06-29T16:40:00Z</time>
      </trkpt>
      <trkpt lat="43.55514" lon="3.3282">
        <ele>313.9</ele>
        <time>2016-06-29T16:40:03Z</time>
      </trkpt>
      <trkpt lat="43.55517" lon="3.32808">
        <ele>314.4</ele>
        <time>2016-06-29T16:40:07Z</time>
      </trkpt>
      <trkpt lat="43.55519" lon="3.32798">
        <ele>314.7</ele>
        <time>2016-06-29T16:40:09Z</time>
      </trkpt>
      <trkpt lat="43.55522" lon="3.32787">
        <ele>315</ele>
        <time>2016-06-29T16:40:12Z</time>
      </trkpt>
      <trkpt lat="43.55525" lon="3.32772">
        <ele>315.4</ele>
        <time>2016-06-29T16:40:15Z</time>
      </trkpt>
      <trkpt lat="43.55528" lon="3.32759">
        <ele>315.8</ele>
        <time>2016-06-29T16:40:18Z</time>
      </trkpt>
      <trkpt lat="43.5553" lon="3.32749">
        <ele>316</ele>
        <time>2016-06-29T16:40:20Z</time>
      </trkpt>
      <trkpt lat="43.55533" lon="3.32739">
        <ele>316.2</ele>
        <time>2016-06-29T16:40:22Z</time>
      </trkpt>
      <trkpt lat="43.55535" lon="3.32729">
        <ele>317.2</ele>
        <time>2016-06-29T16:40:24Z</time>
      </trkpt>
      <trkpt lat="43.55537" lon="3.32719">
        <ele>317.4</ele>
        <time>2016-06-29T16:40:26Z</time>
      </trkpt>
      <trkpt lat="43.55538" lon="3.32704">
        <ele>318.7</ele>
        <time>2016-06-29T16:40:29Z</time>
      </trkpt>
      <trkpt lat="43.55539" lon="3.32689">
        <ele>319</ele>
        <time>2016-06-29T16:40:32Z</time>
      </trkpt>
      <trkpt lat="43.55539" lon="3.32678">
        <ele>319.5</ele>
        <time>2016-06-29T16:40:34Z</time>
      </trkpt>
      <trkpt lat="43.55539" lon="3.32664">
        <ele>319.5</ele>
        <time>2016-06-29T16:40:37Z</time>
      </trkpt>
      <trkpt lat="43.55539" lon="3.3265">
        <ele>319.6</ele>
        <time>2016-06-29T16:40:40Z</time>
      </trkpt>
      <trkpt lat="43.55537" lon="3.32637">
        <ele>319.6</ele>
        <time>2016-06-29T16:40:43Z</time>
      </trkpt>
      <trkpt lat="43.55537" lon="3.32624">
        <ele>319.7</ele>
        <time>2016-06-29T16:40:46Z</time>
      </trkpt>
      <trkpt lat="43.55536" lon="3.3261">
        <ele>319.7</ele>
        <time>2016-06-29T16:40:49Z</time>
      </trkpt>
      <trkpt lat="43.55536" lon="3.32598">
        <ele>319.8</ele>
        <time>2016-06-29T16:40:52Z</time>
      </trkpt>
      <trkpt lat="43.55537" lon="3.32586">
        <ele>319.9</ele>
        <time>2016-06-29T16:40:55Z</time>
      </trkpt>
      <trkpt lat="43.5554" lon="3.32573">
        <ele>320.2</ele>
        <time>2016-06-29T16:40:58Z</time>
      </trkpt>
      <trkpt lat="43.55541" lon="3.32562">
        <ele>320.4</ele>
        <time>2016-06-29T16:41:00Z</time>
      </trkpt>
      <trkpt lat="43.55541" lon="3.32551">
        <ele>320.6</ele>
        <time>2016-06-29T16:41:02Z</time>
      </trkpt>
      <trkpt lat="43.55541" lon="3.32538">
        <ele>320.6</ele>
        <time>2016-06-29T16:41:05Z</time>
      </trkpt>
      <trkpt lat="43.55539" lon="3.32526">
        <ele>320.5</ele>
        <time>2016-06-29T16:41:08Z</time>
      </trkpt>
      <trkpt lat="43.55538" lon="3.32515">
        <ele>320.5</ele>
        <time>2016-06-29T16:41:11Z</time>
      </trkpt>
      <trkpt lat="43.55537" lon="3.32505">
        <ele>320.6</ele>
        <time>2016-06-29T16:41:13Z</time>
      </trkpt>
      <trkpt lat="43.55535" lon="3.32495">
        <ele>320.8</ele>
        <time>2016-06-29T16:41:15Z</time>
      </trkpt>
      <trkpt lat="43.55533" lon="3.32481">
        <ele>320.8</ele>
        <time>2016-06-29T16:41:18Z</time>
      </trkpt>
      <trkpt lat="43.5553" lon="3.3247">
        <ele>320.8</ele>
        <time>2016-06-29T16:41:21Z</time>
      </trkpt>
      <trkpt lat="43.55525" lon="3.32457">
        <ele>320.9</ele>
        <time>2016-06-29T16:41:24Z</time>
      </trkpt>
      <trkpt lat="43.55521" lon="3.32445">
        <ele>321.1</ele>
        <time>2016-06-29T16:41:27Z</time>
      </trkpt>
      <trkpt lat="43.55517" lon="3.32432">
        <ele>321.6</ele>
        <time>2016-06-29T16:41:31Z</time>
      </trkpt>
      <trkpt lat="43.55512" lon="3.32419">
        <ele>321.8</ele>
        <time>2016-06-29T16:41:34Z</time>
      </trkpt>
      <trkpt lat="43.55506" lon="3.3241">
        <ele>322.2</ele>
        <time>2016-06-29T16:41:37Z</time>
      </trkpt>
      <trkpt lat="43.555" lon="3.324">
        <ele>322.4</ele>
        <time>2016-06-29T16:41:40Z</time>
      </trkpt>
      <trkpt lat="43.55492" lon="3.32391">
        <ele>322.6</ele>
        <time>2016-06-29T16:41:43Z</time>
      </trkpt>
      <trkpt lat="43.55485" lon="3.32383">
        <ele>322.7</ele>
        <time>2016-06-29T16:41:46Z</time>
      </trkpt>
      <trkpt lat="43.55477" lon="3.32373">
        <ele>323.1</ele>
        <time>2016-06-29T16:41:49Z</time>
      </trkpt>
      <trkpt lat="43.5547" lon="3.32362">
        <ele>323.3</ele>
        <time>2016-06-29T16:41:52Z</time>
      </trkpt>
      <trkpt lat="43.55466" lon="3.32353">
        <ele>323.4</ele>
        <time>2016-06-29T16:41:54Z</time>
      </trkpt>
      <trkpt lat="43.55461" lon="3.3234">
        <ele>323.6</ele>
        <time>2016-06-29T16:41:57Z</time>
      </trkpt>
      <trkpt lat="43.55455" lon="3.3233">
        <ele>323.9</ele>
        <time>2016-06-29T16:42:00Z</time>
      </trkpt>
      <trkpt lat="43.55448" lon="3.32323">
        <ele>324.2</ele>
        <time>2016-06-29T16:42:03Z</time>
      </trkpt>
      <trkpt lat="43.5544" lon="3.32317">
        <ele>324.5</ele>
        <time>2016-06-29T16:42:06Z</time>
      </trkpt>
      <trkpt lat="43.55432" lon="3.32312">
        <ele>324.7</ele>
        <time>2016-06-29T16:42:09Z</time>
      </trkpt>
      <trkpt lat="43.55424" lon="3.32306">
        <ele>324.8</ele>
        <time>2016-06-29T16:42:12Z</time>
      </trkpt>
      <trkpt lat="43.55416" lon="3.32301">
        <ele>324.9</ele>
        <time>2016-06-29T16:42:15Z</time>
      </trkpt>
      <trkpt lat="43.55409" lon="3.32293">
        <ele>325.1</ele>
        <time>2016-06-29T16:42:18Z</time>
      </trkpt>
      <trkpt lat="43.55402" lon="3.32283">
        <ele>325.3</ele>
        <time>2016-06-29T16:42:21Z</time>
      </trkpt>
      <trkpt lat="43.55396" lon="3.32273">
        <ele>325.7</ele>
        <time>2016-06-29T16:42:24Z</time>
      </trkpt>
      <trkpt lat="43.5539" lon="3.32265">
        <ele>326.1</ele>
        <time>2016-06-29T16:42:27Z</time>
      </trkpt>
      <trkpt lat="43.55383" lon="3.32258">
        <ele>326.3</ele>
        <time>2016-06-29T16:42:30Z</time>
      </trkpt>
      <trkpt lat="43.55375" lon="3.32254">
        <ele>326.7</ele>
        <time>2016-06-29T16:42:33Z</time>
      </trkpt>
      <trkpt lat="43.55368" lon="3.32251">
        <ele>327.1</ele>
        <time>2016-06-29T16:42:36Z</time>
      </trkpt>
      <trkpt lat="43.5536" lon="3.32249">
        <ele>327.4</ele>
        <time>2016-06-29T16:42:38Z</time>
      </trkpt>
      <trkpt lat="43.55356" lon="3.32241">
        <ele>327.9</ele>
        <time>2016-06-29T16:42:42Z</time>
      </trkpt>
      <trkpt lat="43.55358" lon="3.32232">
        <ele>328.3</ele>
        <time>2016-06-29T16:42:45Z</time>
      </trkpt>
      <trkpt lat="43.55362" lon="3.3222">
        <ele>328.7</ele>
        <time>2016-06-29T16:42:48Z</time>
      </trkpt>
      <trkpt lat="43.55364" lon="3.32208">
        <ele>329.2</ele>
        <time>2016-06-29T16:42:51Z</time>
      </trkpt>
      <trkpt lat="43.55363" lon="3.32197">
        <ele>330</ele>
        <time>2016-06-29T16:42:55Z</time>
      </trkpt>
      <trkpt lat="43.55358" lon="3.32187">
        <ele>330.8</ele>
        <time>2016-06-29T16:42:59Z</time>
      </trkpt>
      <trkpt lat="43.55352" lon="3.32176">
        <ele>331.5</ele>
        <time>2016-06-29T16:43:03Z</time>
      </trkpt>
      <trkpt lat="43.55349" lon="3.32167">
        <ele>332.1</ele>
        <time>2016-06-29T16:43:06Z</time>
      </trkpt>
      <trkpt lat="43.55342" lon="3.32158">
        <ele>332.8</ele>
        <time>2016-06-29T16:43:09Z</time>
      </trkpt>
      <trkpt lat="43.55336" lon="3.32148">
        <ele>333.6</ele>
        <time>2016-06-29T16:43:13Z</time>
      </trkpt>
      <trkpt lat="43.55331" lon="3.3214">
        <ele>334.2</ele>
        <time>2016-06-29T16:43:16Z</time>
      </trkpt>
      <trkpt lat="43.55323" lon="3.32133">
        <ele>334.8</ele>
        <time>2016-06-29T16:43:20Z</time>
      </trkpt>
      <trkpt lat="43.55317" lon="3.32127">
        <ele>335.4</ele>
        <time>2016-06-29T16:43:23Z</time>
      </trkpt>
      <trkpt lat="43.5531" lon="3.32123">
        <ele>336</ele>
        <time>2016-06-29T16:43:27Z</time>
      </trkpt>
      <trkpt lat="43.55301" lon="3.3212">
        <ele>336.5</ele>
        <time>2016-06-29T16:43:30Z</time>
      </trkpt>
      <trkpt lat="43.55293" lon="3.32121">
        <ele>337</ele>
        <time>2016-06-29T16:43:34Z</time>
      </trkpt>
      <trkpt lat="43.55286" lon="3.3213">
        <ele>337.2</ele>
        <time>2016-06-29T16:43:38Z</time>
      </trkpt>
      <trkpt lat="43.55281" lon="3.32136">
        <ele>337.4</ele>
        <time>2016-06-29T16:43:41Z</time>
      </trkpt>
      <trkpt lat="43.55274" lon="3.32143">
        <ele>337.9</ele>
        <time>2016-06-29T16:43:46Z</time>
      </trkpt>
      <trkpt lat="43.55268" lon="3.3215">
        <ele>338.7</ele>
        <time>2016-06-29T16:43:50Z</time>
      </trkpt>
      <trkpt lat="43.55261" lon="3.32156">
        <ele>339.6</ele>
        <time>2016-06-29T16:43:55Z</time>
      </trkpt>
      <trkpt lat="43.55253" lon="3.3216">
        <ele>340.4</ele>
        <time>2016-06-29T16:43:59Z</time>
      </trkpt>
      <trkpt lat="43.55246" lon="3.32162">
        <ele>341.5</ele>
        <time>2016-06-29T16:44:03Z</time>
      </trkpt>
      <trkpt lat="43.55237" lon="3.32162">
        <ele>342.7</ele>
        <time>2016-06-29T16:44:08Z</time>
      </trkpt>
      <trkpt lat="43.5523" lon="3.32162">
        <ele>343.7</ele>
        <time>2016-06-29T16:44:12Z</time>
      </trkpt>
      <trkpt lat="43.55221" lon="3.32161">
        <ele>344.5</ele>
        <time>2016-06-29T16:44:16Z</time>
      </trkpt>
      <trkpt lat="43.55214" lon="3.32158">
        <ele>345.2</ele>
        <time>2016-06-29T16:44:19Z</time>
      </trkpt>
      <trkpt lat="43.55205" lon="3.32151">
        <ele>346.1</ele>
        <time>2016-06-29T16:44:23Z</time>
      </trkpt>
      <trkpt lat="43.55201" lon="3.32141">
        <ele>346.9</ele>
        <time>2016-06-29T16:44:27Z</time>
      </trkpt>
      <trkpt lat="43.55201" lon="3.32127">
        <ele>347.8</ele>
        <time>2016-06-29T16:44:31Z</time>
      </trkpt>
      <trkpt lat="43.55203" lon="3.32113">
        <ele>348.1</ele>
        <time>2016-06-29T16:44:34Z</time>
      </trkpt>
      <trkpt lat="43.55207" lon="3.32104">
        <ele>349.3</ele>
        <time>2016-06-29T16:44:36Z</time>
      </trkpt>
      <trkpt lat="43.55208" lon="3.32092">
        <ele>350.1</ele>
        <time>2016-06-29T16:44:39Z</time>
      </trkpt>
      <trkpt lat="43.55201" lon="3.32086">
        <ele>350.1</ele>
        <time>2016-06-29T16:44:43Z</time>
      </trkpt>
      <trkpt lat="43.55192" lon="3.32087">
        <ele>350</ele>
        <time>2016-06-29T16:44:47Z</time>
      </trkpt>
      <trkpt lat="43.55184" lon="3.3209">
        <ele>350.1</ele>
        <time>2016-06-29T16:44:50Z</time>
      </trkpt>
      <trkpt lat="43.55176" lon="3.32091">
        <ele>350.4</ele>
        <time>2016-06-29T16:44:53Z</time>
      </trkpt>
      <trkpt lat="43.55168" lon="3.32093">
        <ele>350.6</ele>
        <time>2016-06-29T16:44:57Z</time>
      </trkpt>
      <trkpt lat="43.55161" lon="3.32096">
        <ele>350.8</ele>
        <time>2016-06-29T16:45:00Z</time>
      </trkpt>
      <trkpt lat="43.55151" lon="3.32098">
        <ele>351.1</ele>
        <time>2016-06-29T16:45:04Z</time>
      </trkpt>
      <trkpt lat="43.55142" lon="3.32101">
        <ele>351.4</ele>
        <time>2016-06-29T16:45:08Z</time>
      </trkpt>
      <trkpt lat="43.55135" lon="3.32102">
        <ele>351.8</ele>
        <time>2016-06-29T16:45:11Z</time>
      </trkpt>
      <trkpt lat="43.55128" lon="3.32103">
        <ele>352.2</ele>
        <time>2016-06-29T16:45:14Z</time>
      </trkpt>
      <trkpt lat="43.55118" lon="3.32106">
        <ele>352.8</ele>
        <time>2016-06-29T16:45:18Z</time>
      </trkpt>
      <trkpt lat="43.55111" lon="3.32107">
        <ele>353.3</ele>
        <time>2016-06-29T16:45:21Z</time>
      </trkpt>
      <trkpt lat="43.55102" lon="3.3211">
        <ele>354</ele>
        <time>2016-06-29T16:45:25Z</time>
      </trkpt>
      <trkpt lat="43.55094" lon="3.32113">
        <ele>354.5</ele>
        <time>2016-06-29T16:45:28Z</time>
      </trkpt>
      <trkpt lat="43.55088" lon="3.32117">
        <ele>354.9</ele>
        <time>2016-06-29T16:45:31Z</time>
      </trkpt>
      <trkpt lat="43.5508" lon="3.32121">
        <ele>355.6</ele>
        <time>2016-06-29T16:45:35Z</time>
      </trkpt>
      <trkpt lat="43.55071" lon="3.32124">
        <ele>356.2</ele>
        <time>2016-06-29T16:45:39Z</time>
      </trkpt>
      <trkpt lat="43.55062" lon="3.32125">
        <ele>356.9</ele>
        <time>2016-06-29T16:45:43Z</time>
      </trkpt>
      <trkpt lat="43.55055" lon="3.32116">
        <ele>357.8</ele>
        <time>2016-06-29T16:45:48Z</time>
      </trkpt>
      <trkpt lat="43.55051" lon="3.32106">
        <ele>358.5</ele>
        <time>2016-06-29T16:45:52Z</time>
      </trkpt>
      <trkpt lat="43.55049" lon="3.32094">
        <ele>362</ele>
        <time>2016-06-29T16:45:54Z</time>
      </trkpt>
      <trkpt lat="43.55043" lon="3.32079">
        <ele>363.1</ele>
        <time>2016-06-29T16:45:56Z</time>
      </trkpt>
      <trkpt lat="43.55035" lon="3.32068">
        <ele>363.5</ele>
        <time>2016-06-29T16:45:58Z</time>
      </trkpt>
      <trkpt lat="43.55027" lon="3.32065">
        <ele>363</ele>
        <time>2016-06-29T16:46:00Z</time>
      </trkpt>
      <trkpt lat="43.55019" lon="3.32065">
        <ele>362.4</ele>
        <time>2016-06-29T16:46:02Z</time>
      </trkpt>
      <trkpt lat="43.5501" lon="3.32067">
        <ele>362.3</ele>
        <time>2016-06-29T16:46:05Z</time>
      </trkpt>
      <trkpt lat="43.55002" lon="3.32068">
        <ele>362.2</ele>
        <time>2016-06-29T16:46:08Z</time>
      </trkpt>
      <trkpt lat="43.54993" lon="3.32069">
        <ele>362.1</ele>
        <time>2016-06-29T16:46:11Z</time>
      </trkpt>
      <trkpt lat="43.54985" lon="3.32071">
        <ele>361.9</ele>
        <time>2016-06-29T16:46:14Z</time>
      </trkpt>
      <trkpt lat="43.54977" lon="3.32065">
        <ele>362</ele>
        <time>2016-06-29T16:46:18Z</time>
      </trkpt>
      <trkpt lat="43.54973" lon="3.32054">
        <ele>362.1</ele>
        <time>2016-06-29T16:46:21Z</time>
      </trkpt>
      <trkpt lat="43.54972" lon="3.32043">
        <ele>362.3</ele>
        <time>2016-06-29T16:46:23Z</time>
      </trkpt>
      <trkpt lat="43.54971" lon="3.32033">
        <ele>362.3</ele>
        <time>2016-06-29T16:46:25Z</time>
      </trkpt>
      <trkpt lat="43.54968" lon="3.3202">
        <ele>362.3</ele>
        <time>2016-06-29T16:46:28Z</time>
      </trkpt>
      <trkpt lat="43.54969" lon="3.32008">
        <ele>362.2</ele>
        <time>2016-06-29T16:46:30Z</time>
      </trkpt>
      <trkpt lat="43.54972" lon="3.31994">
        <ele>362.1</ele>
        <time>2016-06-29T16:46:33Z</time>
      </trkpt>
      <trkpt lat="43.54976" lon="3.31982">
        <ele>362.1</ele>
        <time>2016-06-29T16:46:36Z</time>
      </trkpt>
      <trkpt lat="43.54981" lon="3.31971">
        <ele>362.1</ele>
        <time>2016-06-29T16:46:39Z</time>
      </trkpt>
      <trkpt lat="43.54986" lon="3.31963">
        <ele>362.2</ele>
        <time>2016-06-29T16:46:42Z</time>
      </trkpt>
      <trkpt lat="43.54992" lon="3.31956">
        <ele>362.3</ele>
        <time>2016-06-29T16:46:45Z</time>
      </trkpt>
      <trkpt lat="43.54999" lon="3.31948">
        <ele>362.2</ele>
        <time>2016-06-29T16:46:48Z</time>
      </trkpt>
      <trkpt lat="43.55005" lon="3.31941">
        <ele>362.2</ele>
        <time>2016-06-29T16:46:51Z</time>
      </trkpt>
      <trkpt lat="43.55012" lon="3.31933">
        <ele>362.2</ele>
        <time>2016-06-29T16:46:54Z</time>
      </trkpt>
      <trkpt lat="43.55019" lon="3.31927">
        <ele>362.3</ele>
        <time>2016-06-29T16:46:57Z</time>
      </trkpt>
      <trkpt lat="43.55027" lon="3.3192">
        <ele>362.3</ele>
        <time>2016-06-29T16:47:00Z</time>
      </trkpt>
      <trkpt lat="43.55034" lon="3.31915">
        <ele>362.3</ele>
        <time>2016-06-29T16:47:03Z</time>
      </trkpt>
      <trkpt lat="43.55042" lon="3.3191">
        <ele>362.4</ele>
        <time>2016-06-29T16:47:06Z</time>
      </trkpt>
      <trkpt lat="43.5505" lon="3.31905">
        <ele>362.3</ele>
        <time>2016-06-29T16:47:09Z</time>
      </trkpt>
      <trkpt lat="43.55057" lon="3.31901">
        <ele>362.2</ele>
        <time>2016-06-29T16:47:12Z</time>
      </trkpt>
      <trkpt lat="43.55065" lon="3.31898">
        <ele>362.2</ele>
        <time>2016-06-29T16:47:15Z</time>
      </trkpt>
      <trkpt lat="43.55072" lon="3.31895">
        <ele>362.2</ele>
        <time>2016-06-29T16:47:18Z</time>
      </trkpt>
      <trkpt lat="43.5508" lon="3.3189">
        <ele>362.3</ele>
        <time>2016-06-29T16:47:21Z</time>
      </trkpt>
      <trkpt lat="43.55088" lon="3.31885">
        <ele>362.3</ele>
        <time>2016-06-29T16:47:25Z</time>
      </trkpt>
      <trkpt lat="43.55096" lon="3.31881">
        <ele>362.5</ele>
        <time>2016-06-29T16:47:29Z</time>
      </trkpt>
      <trkpt lat="43.55102" lon="3.31877">
        <ele>362.7</ele>
        <time>2016-06-29T16:47:32Z</time>
      </trkpt>
      <trkpt lat="43.55109" lon="3.31874">
        <ele>362.9</ele>
        <time>2016-06-29T16:47:35Z</time>
      </trkpt>
      <trkpt lat="43.55116" lon="3.3187">
        <ele>363.1</ele>
        <time>2016-06-29T16:47:38Z</time>
      </trkpt>
      <trkpt lat="43.55123" lon="3.31867">
        <ele>363.3</ele>
        <time>2016-06-29T16:47:41Z</time>
      </trkpt>
      <trkpt lat="43.55132" lon="3.31866">
        <ele>363.5</ele>
        <time>2016-06-29T16:47:45Z</time>
      </trkpt>
      <trkpt lat="43.5514" lon="3.31865">
        <ele>363.8</ele>
        <time>2016-06-29T16:47:49Z</time>
      </trkpt>
      <trkpt lat="43.55148" lon="3.31862">
        <ele>364.1</ele>
        <time>2016-06-29T16:47:53Z</time>
      </trkpt>
      <trkpt lat="43.55156" lon="3.31859">
        <ele>364.6</ele>
        <time>2016-06-29T16:47:57Z</time>
      </trkpt>
      <trkpt lat="43.55165" lon="3.31857">
        <ele>365.2</ele>
        <time>2016-06-29T16:48:01Z</time>
      </trkpt>
      <trkpt lat="43.55173" lon="3.31858">
        <ele>365.9</ele>
        <time>2016-06-29T16:48:06Z</time>
      </trkpt>
      <trkpt lat="43.5518" lon="3.31862">
        <ele>366.3</ele>
        <time>2016-06-29T16:48:10Z</time>
      </trkpt>
      <trkpt lat="43.55187" lon="3.31863">
        <ele>366.9</ele>
        <time>2016-06-29T16:48:14Z</time>
      </trkpt>
      <trkpt lat="43.55195" lon="3.31864">
        <ele>367.8</ele>
        <time>2016-06-29T16:48:18Z</time>
      </trkpt>
      <trkpt lat="43.55202" lon="3.31861">
        <ele>368.5</ele>
        <time>2016-06-29T16:48:22Z</time>
      </trkpt>
      <trkpt lat="43.55211" lon="3.31857">
        <ele>369.5</ele>
        <time>2016-06-29T16:48:28Z</time>
      </trkpt>
      <trkpt lat="43.55218" lon="3.31855">
        <ele>370.5</ele>
        <time>2016-06-29T16:48:33Z</time>
      </trkpt>
      <trkpt lat="43.55227" lon="3.31854">
        <ele>371.6</ele>
        <time>2016-06-29T16:48:38Z</time>
      </trkpt>
      <trkpt lat="43.55234" lon="3.31854">
        <ele>372.7</ele>
        <time>2016-06-29T16:48:43Z</time>
      </trkpt>
      <trkpt lat="43.55242" lon="3.31857">
        <ele>373.7</ele>
        <time>2016-06-29T16:48:48Z</time>
      </trkpt>
      <trkpt lat="43.5525" lon="3.31857">
        <ele>374.6</ele>
        <time>2016-06-29T16:48:53Z</time>
      </trkpt>
      <trkpt lat="43.55258" lon="3.31857">
        <ele>375.4</ele>
        <time>2016-06-29T16:48:58Z</time>
      </trkpt>
      <trkpt lat="43.55266" lon="3.31858">
        <ele>376.3</ele>
        <time>2016-06-29T16:49:03Z</time>
      </trkpt>
      <trkpt lat="43.55274" lon="3.31855">
        <ele>377.2</ele>
        <time>2016-06-29T16:49:10Z</time>
      </trkpt>
      <trkpt lat="43.55277" lon="3.31858">
        <ele>378.3</ele>
        <time>2016-06-29T16:49:46Z</time>
      </trkpt>
      <trkpt lat="43.55283" lon="3.31856">
        <ele>378.7</ele>
        <time>2016-06-29T16:49:50Z</time>
      </trkpt>
      <trkpt lat="43.55293" lon="3.31853">
        <ele>379</ele>
        <time>2016-06-29T16:49:54Z</time>
      </trkpt>
      <trkpt lat="43.55301" lon="3.31852">
        <ele>379.4</ele>
        <time>2016-06-29T16:49:57Z</time>
      </trkpt>
      <trkpt lat="43.55308" lon="3.3185">
        <ele>380.9</ele>
        <time>2016-06-29T16:49:59Z</time>
      </trkpt>
      <trkpt lat="43.55317" lon="3.31848">
        <ele>381.4</ele>
        <time>2016-06-29T16:50:01Z</time>
      </trkpt>
      <trkpt lat="43.55327" lon="3.31846">
        <ele>381.4</ele>
        <time>2016-06-29T16:50:03Z</time>
      </trkpt>
      <trkpt lat="43.55337" lon="3.31843">
        <ele>381.2</ele>
        <time>2016-06-29T16:50:05Z</time>
      </trkpt>
      <trkpt lat="43.55349" lon="3.31837">
        <ele>380.9</ele>
        <time>2016-06-29T16:50:07Z</time>
      </trkpt>
      <trkpt lat="43.55362" lon="3.31829">
        <ele>380.8</ele>
        <time>2016-06-29T16:50:09Z</time>
      </trkpt>
      <trkpt lat="43.55373" lon="3.31818">
        <ele>380.5</ele>
        <time>2016-06-29T16:50:11Z</time>
      </trkpt>
      <trkpt lat="43.55383" lon="3.31808">
        <ele>380</ele>
        <time>2016-06-29T16:50:13Z</time>
      </trkpt>
      <trkpt lat="43.55395" lon="3.31799">
        <ele>379.4</ele>
        <time>2016-06-29T16:50:15Z</time>
      </trkpt>
      <trkpt lat="43.55407" lon="3.31791">
        <ele>378.5</ele>
        <time>2016-06-29T16:50:17Z</time>
      </trkpt>
      <trkpt lat="43.55418" lon="3.31783">
        <ele>377.9</ele>
        <time>2016-06-29T16:50:19Z</time>
      </trkpt>
      <trkpt lat="43.55425" lon="3.31774">
        <ele>377.7</ele>
        <time>2016-06-29T16:50:21Z</time>
      </trkpt>
      <trkpt lat="43.55432" lon="3.31766">
        <ele>377.6</ele>
        <time>2016-06-29T16:50:23Z</time>
      </trkpt>
      <trkpt lat="43.55439" lon="3.31757">
        <ele>377.7</ele>
        <time>2016-06-29T16:50:26Z</time>
      </trkpt>
      <trkpt lat="43.55446" lon="3.31749">
        <ele>377.7</ele>
        <time>2016-06-29T16:50:29Z</time>
      </trkpt>
      <trkpt lat="43.55453" lon="3.31741">
        <ele>377.8</ele>
        <time>2016-06-29T16:50:33Z</time>
      </trkpt>
      <trkpt lat="43.5546" lon="3.31735">
        <ele>378</ele>
        <time>2016-06-29T16:50:37Z</time>
      </trkpt>
      <trkpt lat="43.55467" lon="3.31729">
        <ele>378.1</ele>
        <time>2016-06-29T16:50:40Z</time>
      </trkpt>
      <trkpt lat="43.55474" lon="3.31723">
        <ele>378.3</ele>
        <time>2016-06-29T16:50:43Z</time>
      </trkpt>
      <trkpt lat="43.5548" lon="3.31717">
        <ele>378.6</ele>
        <time>2016-06-29T16:50:46Z</time>
      </trkpt>
      <trkpt lat="43.55486" lon="3.3171">
        <ele>378.9</ele>
        <time>2016-06-29T16:50:50Z</time>
      </trkpt>
      <trkpt lat="43.55492" lon="3.317">
        <ele>379.5</ele>
        <time>2016-06-29T16:50:54Z</time>
      </trkpt>
      <trkpt lat="43.55498" lon="3.31691">
        <ele>380</ele>
        <time>2016-06-29T16:50:58Z</time>
      </trkpt>
      <trkpt lat="43.55505" lon="3.31688">
        <ele>380.3</ele>
        <time>2016-06-29T16:51:01Z</time>
      </trkpt>
      <trkpt lat="43.55515" lon="3.31686">
        <ele>380.7</ele>
        <time>2016-06-29T16:51:05Z</time>
      </trkpt>
      <trkpt lat="43.55525" lon="3.31686">
        <ele>381</ele>
        <time>2016-06-29T16:51:09Z</time>
      </trkpt>
      <trkpt lat="43.55532" lon="3.31684">
        <ele>381.5</ele>
        <time>2016-06-29T16:51:13Z</time>
      </trkpt>
      <trkpt lat="43.5554" lon="3.31682">
        <ele>382</ele>
        <time>2016-06-29T16:51:17Z</time>
      </trkpt>
      <trkpt lat="43.55549" lon="3.3168">
        <ele>382.5</ele>
        <time>2016-06-29T16:51:21Z</time>
      </trkpt>
      <trkpt lat="43.55557" lon="3.31678">
        <ele>382.7</ele>
        <time>2016-06-29T16:51:24Z</time>
      </trkpt>
      <trkpt lat="43.55568" lon="3.31677">
        <ele>384.2</ele>
        <time>2016-06-29T16:51:27Z</time>
      </trkpt>
      <trkpt lat="43.55577" lon="3.3168">
        <ele>385.8</ele>
        <time>2016-06-29T16:51:29Z</time>
      </trkpt>
      <trkpt lat="43.55589" lon="3.31683">
        <ele>386.2</ele>
        <time>2016-06-29T16:51:31Z</time>
      </trkpt>
      <trkpt lat="43.556" lon="3.3168">
        <ele>385.8</ele>
        <time>2016-06-29T16:51:33Z</time>
      </trkpt>
      <trkpt lat="43.55611" lon="3.31675">
        <ele>384.5</ele>
        <time>2016-06-29T16:51:35Z</time>
      </trkpt>
      <trkpt lat="43.55622" lon="3.31671">
        <ele>383.6</ele>
        <time>2016-06-29T16:51:37Z</time>
      </trkpt>
      <trkpt lat="43.55636" lon="3.3167">
        <ele>381.7</ele>
        <time>2016-06-29T16:51:39Z</time>
      </trkpt>
      <trkpt lat="43.55649" lon="3.31669">
        <ele>380.7</ele>
        <time>2016-06-29T16:51:41Z</time>
      </trkpt>
      <trkpt lat="43.55663" lon="3.31667">
        <ele>378.6</ele>
        <time>2016-06-29T16:51:43Z</time>
      </trkpt>
      <trkpt lat="43.55676" lon="3.31664">
        <ele>376.2</ele>
        <time>2016-06-29T16:51:45Z</time>
      </trkpt>
      <trkpt lat="43.55688" lon="3.3167">
        <ele>374</ele>
        <time>2016-06-29T16:51:47Z</time>
      </trkpt>
      <trkpt lat="43.55699" lon="3.31675">
        <ele>372.9</ele>
        <time>2016-06-29T16:51:49Z</time>
      </trkpt>
      <trkpt lat="43.55711" lon="3.31678">
        <ele>371.5</ele>
        <time>2016-06-29T16:51:51Z</time>
      </trkpt>
      <trkpt lat="43.55726" lon="3.31682">
        <ele>369.8</ele>
        <time>2016-06-29T16:51:53Z</time>
      </trkpt>
      <trkpt lat="43.55738" lon="3.31682">
        <ele>368</ele>
        <time>2016-06-29T16:51:55Z</time>
      </trkpt>
      <trkpt lat="43.55748" lon="3.31679">
        <ele>366.4</ele>
        <time>2016-06-29T16:51:57Z</time>
      </trkpt>
      <trkpt lat="43.55755" lon="3.31673">
        <ele>366.3</ele>
        <time>2016-06-29T16:52:00Z</time>
      </trkpt>
      <trkpt lat="43.55755" lon="3.31662">
        <ele>366.1</ele>
        <time>2016-06-29T16:52:03Z</time>
      </trkpt>
      <trkpt lat="43.55755" lon="3.31649">
        <ele>365.2</ele>
        <time>2016-06-29T16:52:06Z</time>
      </trkpt>
      <trkpt lat="43.5575" lon="3.31638">
        <ele>365</ele>
        <time>2016-06-29T16:52:09Z</time>
      </trkpt>
      <trkpt lat="43.55752" lon="3.31628">
        <ele>364.7</ele>
        <time>2016-06-29T16:52:13Z</time>
      </trkpt>
      <trkpt lat="43.55752" lon="3.31617">
        <ele>364.5</ele>
        <time>2016-06-29T16:52:15Z</time>
      </trkpt>
      <trkpt lat="43.55756" lon="3.31607">
        <ele>362.9</ele>
        <time>2016-06-29T16:52:17Z</time>
      </trkpt>
      <trkpt lat="43.5576" lon="3.31598">
        <ele>362.6</ele>
        <time>2016-06-29T16:52:20Z</time>
      </trkpt>
      <trkpt lat="43.55763" lon="3.31588">
        <ele>362.4</ele>
        <time>2016-06-29T16:52:22Z</time>
      </trkpt>
      <trkpt lat="43.55766" lon="3.31578">
        <ele>360.7</ele>
        <time>2016-06-29T16:52:24Z</time>
      </trkpt>
      <trkpt lat="43.55768" lon="3.31565">
        <ele>359.4</ele>
        <time>2016-06-29T16:52:26Z</time>
      </trkpt>
      <trkpt lat="43.55769" lon="3.31552">
        <ele>358.5</ele>
        <time>2016-06-29T16:52:28Z</time>
      </trkpt>
      <trkpt lat="43.5577" lon="3.31538">
        <ele>357.6</ele>
        <time>2016-06-29T16:52:30Z</time>
      </trkpt>
      <trkpt lat="43.55771" lon="3.31524">
        <ele>357.1</ele>
        <time>2016-06-29T16:52:32Z</time>
      </trkpt>
      <trkpt lat="43.55772" lon="3.3151">
        <ele>357</ele>
        <time>2016-06-29T16:52:34Z</time>
      </trkpt>
      <trkpt lat="43.55772" lon="3.31496">
        <ele>357</ele>
        <time>2016-06-29T16:52:36Z</time>
      </trkpt>
      <trkpt lat="43.55773" lon="3.31481">
        <ele>356.8</ele>
        <time>2016-06-29T16:52:38Z</time>
      </trkpt>
      <trkpt lat="43.55775" lon="3.31465">
        <ele>356.8</ele>
        <time>2016-06-29T16:52:40Z</time>
      </trkpt>
      <trkpt lat="43.55776" lon="3.31449">
        <ele>357</ele>
        <time>2016-06-29T16:52:42Z</time>
      </trkpt>
      <trkpt lat="43.55776" lon="3.31432">
        <ele>357</ele>
        <time>2016-06-29T16:52:44Z</time>
      </trkpt>
      <trkpt lat="43.55779" lon="3.31417">
        <ele>356.6</ele>
        <time>2016-06-29T16:52:46Z</time>
      </trkpt>
      <trkpt lat="43.55785" lon="3.31407">
        <ele>356.4</ele>
        <time>2016-06-29T16:52:48Z</time>
      </trkpt>
      <trkpt lat="43.55787" lon="3.31394">
        <ele>356.6</ele>
        <time>2016-06-29T16:52:50Z</time>
      </trkpt>
      <trkpt lat="43.55787" lon="3.3138">
        <ele>356.2</ele>
        <time>2016-06-29T16:52:52Z</time>
      </trkpt>
      <trkpt lat="43.55788" lon="3.31363">
        <ele>356.1</ele>
        <time>2016-06-29T16:52:54Z</time>
      </trkpt>
      <trkpt lat="43.55788" lon="3.31347">
        <ele>356.3</ele>
        <time>2016-06-29T16:52:56Z</time>
      </trkpt>
      <trkpt lat="43.5579" lon="3.31333">
        <ele>355.7</ele>
        <time>2016-06-29T16:52:58Z</time>
      </trkpt>
      <trkpt lat="43.55792" lon="3.31316">
        <ele>355</ele>
        <time>2016-06-29T16:53:00Z</time>
      </trkpt>
      <trkpt lat="43.55799" lon="3.31304">
        <ele>354.1</ele>
        <time>2016-06-29T16:53:02Z</time>
      </trkpt>
      <trkpt lat="43.55805" lon="3.31293">
        <ele>353.3</ele>
        <time>2016-06-29T16:53:04Z</time>
      </trkpt>
      <trkpt lat="43.55812" lon="3.31279">
        <ele>352.6</ele>
        <time>2016-06-29T16:53:06Z</time>
      </trkpt>
      <trkpt lat="43.55819" lon="3.31263">
        <ele>352.6</ele>
        <time>2016-06-29T16:53:08Z</time>
      </trkpt>
      <trkpt lat="43.55826" lon="3.31249">
        <ele>351.9</ele>
        <time>2016-06-29T16:53:10Z</time>
      </trkpt>
      <trkpt lat="43.5583" lon="3.31234">
        <ele>351.4</ele>
        <time>2016-06-29T16:53:12Z</time>
      </trkpt>
      <trkpt lat="43.55834" lon="3.31217">
        <ele>351.6</ele>
        <time>2016-06-29T16:53:15Z</time>
      </trkpt>
      <trkpt lat="43.55839" lon="3.312">
        <ele>351.6</ele>
        <time>2016-06-29T16:53:16Z</time>
      </trkpt>
      <trkpt lat="43.55845" lon="3.31181">
        <ele>351.2</ele>
        <time>2016-06-29T16:53:18Z</time>
      </trkpt>
      <trkpt lat="43.55852" lon="3.31165">
        <ele>350.1</ele>
        <time>2016-06-29T16:53:20Z</time>
      </trkpt>
      <trkpt lat="43.55857" lon="3.31155">
        <ele>350</ele>
        <time>2016-06-29T16:53:21Z</time>
      </trkpt>
      <trkpt lat="43.55861" lon="3.31146">
        <ele>349.5</ele>
        <time>2016-06-29T16:53:22Z</time>
      </trkpt>
      <trkpt lat="43.55866" lon="3.31138">
        <ele>349.1</ele>
        <time>2016-06-29T16:53:23Z</time>
      </trkpt>
      <trkpt lat="43.5587" lon="3.3113">
        <ele>348.6</ele>
        <time>2016-06-29T16:53:24Z</time>
      </trkpt>
      <trkpt lat="43.5588" lon="3.3112">
        <ele>348</ele>
        <time>2016-06-29T16:53:26Z</time>
      </trkpt>
      <trkpt lat="43.55886" lon="3.3111">
        <ele>347.5</ele>
        <time>2016-06-29T16:53:28Z</time>
      </trkpt>
      <trkpt lat="43.55893" lon="3.31098">
        <ele>347.2</ele>
        <time>2016-06-29T16:53:30Z</time>
      </trkpt>
      <trkpt lat="43.55901" lon="3.31094">
        <ele>347.3</ele>
        <time>2016-06-29T16:53:32Z</time>
      </trkpt>
      <trkpt lat="43.55909" lon="3.31094">
        <ele>347.5</ele>
        <time>2016-06-29T16:53:35Z</time>
      </trkpt>
      <trkpt lat="43.5592" lon="3.31094">
        <ele>347.6</ele>
        <time>2016-06-29T16:53:38Z</time>
      </trkpt>
      <trkpt lat="43.5593" lon="3.31099">
        <ele>347</ele>
        <time>2016-06-29T16:53:40Z</time>
      </trkpt>
      <trkpt lat="43.55939" lon="3.3111">
        <ele>345.5</ele>
        <time>2016-06-29T16:53:42Z</time>
      </trkpt>
      <trkpt lat="43.55948" lon="3.31121">
        <ele>343.3</ele>
        <time>2016-06-29T16:53:44Z</time>
      </trkpt>
      <trkpt lat="43.55949" lon="3.31132">
        <ele>342.6</ele>
        <time>2016-06-29T16:53:46Z</time>
      </trkpt>
      <trkpt lat="43.55957" lon="3.31129">
        <ele>342.2</ele>
        <time>2016-06-29T16:53:50Z</time>
      </trkpt>
      <trkpt lat="43.55961" lon="3.31119">
        <ele>339.2</ele>
        <time>2016-06-29T16:53:52Z</time>
      </trkpt>
      <trkpt lat="43.55968" lon="3.31105">
        <ele>337.4</ele>
        <time>2016-06-29T16:53:54Z</time>
      </trkpt>
      <trkpt lat="43.55975" lon="3.31093">
        <ele>335.9</ele>
        <time>2016-06-29T16:53:56Z</time>
      </trkpt>
      <trkpt lat="43.5598" lon="3.31082">
        <ele>335</ele>
        <time>2016-06-29T16:53:58Z</time>
      </trkpt>
      <trkpt lat="43.55985" lon="3.31067">
        <ele>332.9</ele>
        <time>2016-06-29T16:54:00Z</time>
      </trkpt>
      <trkpt lat="43.55989" lon="3.31052">
        <ele>331.6</ele>
        <time>2016-06-29T16:54:02Z</time>
      </trkpt>
      <trkpt lat="43.55992" lon="3.31047">
        <ele>331.3</ele>
        <time>2016-06-29T16:54:09Z</time>
      </trkpt>
      <trkpt lat="43.56006" lon="3.3104">
        <ele>332.8</ele>
        <time>2016-06-29T16:57:18Z</time>
      </trkpt>
      <trkpt lat="43.56013" lon="3.31044">
        <ele>332.5</ele>
        <time>2016-06-29T16:57:22Z</time>
      </trkpt>
      <trkpt lat="43.56022" lon="3.31047">
        <ele>332.3</ele>
        <time>2016-06-29T16:57:25Z</time>
      </trkpt>
      <trkpt lat="43.56031" lon="3.31046">
        <ele>332.2</ele>
        <time>2016-06-29T16:57:28Z</time>
      </trkpt>
      <trkpt lat="43.56039" lon="3.31044">
        <ele>331.9</ele>
        <time>2016-06-29T16:57:31Z</time>
      </trkpt>
      <trkpt lat="43.5605" lon="3.31042">
        <ele>329</ele>
        <time>2016-06-29T16:57:34Z</time>
      </trkpt>
      <trkpt lat="43.56059" lon="3.31039">
        <ele>326.9</ele>
        <time>2016-06-29T16:57:36Z</time>
      </trkpt>
      <trkpt lat="43.56067" lon="3.31034">
        <ele>325.7</ele>
        <time>2016-06-29T16:57:38Z</time>
      </trkpt>
      <trkpt lat="43.56078" lon="3.31029">
        <ele>324.5</ele>
        <time>2016-06-29T16:57:40Z</time>
      </trkpt>
      <trkpt lat="43.56088" lon="3.31024">
        <ele>323.7</ele>
        <time>2016-06-29T16:57:42Z</time>
      </trkpt>
      <trkpt lat="43.56099" lon="3.31023">
        <ele>322.9</ele>
        <time>2016-06-29T16:57:44Z</time>
      </trkpt>
      <trkpt lat="43.56108" lon="3.31024">
        <ele>323</ele>
        <time>2016-06-29T16:57:46Z</time>
      </trkpt>
      <trkpt lat="43.56118" lon="3.31024">
        <ele>322.8</ele>
        <time>2016-06-29T16:57:48Z</time>
      </trkpt>
      <trkpt lat="43.56127" lon="3.31025">
        <ele>322.8</ele>
        <time>2016-06-29T16:57:51Z</time>
      </trkpt>
      <trkpt lat="43.56132" lon="3.31033">
        <ele>322.9</ele>
        <time>2016-06-29T16:57:53Z</time>
      </trkpt>
      <trkpt lat="43.56135" lon="3.31042">
        <ele>323</ele>
        <time>2016-06-29T16:57:56Z</time>
      </trkpt>
      <trkpt lat="43.5614" lon="3.31051">
        <ele>323.2</ele>
        <time>2016-06-29T16:57:58Z</time>
      </trkpt>
      <trkpt lat="43.56146" lon="3.31061">
        <ele>323.4</ele>
        <time>2016-06-29T16:58:02Z</time>
      </trkpt>
      <trkpt lat="43.56153" lon="3.3107">
        <ele>323.7</ele>
        <time>2016-06-29T16:58:05Z</time>
      </trkpt>
      <trkpt lat="43.56158" lon="3.31078">
        <ele>323.9</ele>
        <time>2016-06-29T16:58:08Z</time>
      </trkpt>
      <trkpt lat="43.56163" lon="3.31086">
        <ele>324</ele>
        <time>2016-06-29T16:58:10Z</time>
      </trkpt>
      <trkpt lat="43.56169" lon="3.31097">
        <ele>324.2</ele>
        <time>2016-06-29T16:58:13Z</time>
      </trkpt>
      <trkpt lat="43.56175" lon="3.31109">
        <ele>324.4</ele>
        <time>2016-06-29T16:58:16Z</time>
      </trkpt>
      <trkpt lat="43.56179" lon="3.31119">
        <ele>324.5</ele>
        <time>2016-06-29T16:58:18Z</time>
      </trkpt>
      <trkpt lat="43.56184" lon="3.31127">
        <ele>324.6</ele>
        <time>2016-06-29T16:58:20Z</time>
      </trkpt>
      <trkpt lat="43.56189" lon="3.31137">
        <ele>324.9</ele>
        <time>2016-06-29T16:58:23Z</time>
      </trkpt>
      <trkpt lat="43.56194" lon="3.31146">
        <ele>325</ele>
        <time>2016-06-29T16:58:26Z</time>
      </trkpt>
      <trkpt lat="43.562" lon="3.31154">
        <ele>325.1</ele>
        <time>2016-06-29T16:58:29Z</time>
      </trkpt>
      <trkpt lat="43.56205" lon="3.31163">
        <ele>325.3</ele>
        <time>2016-06-29T16:58:32Z</time>
      </trkpt>
      <trkpt lat="43.56209" lon="3.31173">
        <ele>325.5</ele>
        <time>2016-06-29T16:58:35Z</time>
      </trkpt>
      <trkpt lat="43.56216" lon="3.31182">
        <ele>325.7</ele>
        <time>2016-06-29T16:58:39Z</time>
      </trkpt>
      <trkpt lat="43.56222" lon="3.31188">
        <ele>325.8</ele>
        <time>2016-06-29T16:58:42Z</time>
      </trkpt>
      <trkpt lat="43.56228" lon="3.31195">
        <ele>326.1</ele>
        <time>2016-06-29T16:58:45Z</time>
      </trkpt>
      <trkpt lat="43.56234" lon="3.31204">
        <ele>326.5</ele>
        <time>2016-06-29T16:58:49Z</time>
      </trkpt>
      <trkpt lat="43.5624" lon="3.31213">
        <ele>327</ele>
        <time>2016-06-29T16:58:53Z</time>
      </trkpt>
      <trkpt lat="43.56246" lon="3.31222">
        <ele>327.6</ele>
        <time>2016-06-29T16:58:58Z</time>
      </trkpt>
      <trkpt lat="43.56253" lon="3.31227">
        <ele>328.1</ele>
        <time>2016-06-29T16:59:02Z</time>
      </trkpt>
      <trkpt lat="43.56259" lon="3.31234">
        <ele>328.6</ele>
        <time>2016-06-29T16:59:06Z</time>
      </trkpt>
      <trkpt lat="43.56265" lon="3.3124">
        <ele>329.2</ele>
        <time>2016-06-29T16:59:10Z</time>
      </trkpt>
      <trkpt lat="43.56272" lon="3.31247">
        <ele>329.8</ele>
        <time>2016-06-29T16:59:14Z</time>
      </trkpt>
      <trkpt lat="43.56277" lon="3.31256">
        <ele>330.6</ele>
        <time>2016-06-29T16:59:19Z</time>
      </trkpt>
      <trkpt lat="43.56283" lon="3.31263">
        <ele>331.1</ele>
        <time>2016-06-29T16:59:23Z</time>
      </trkpt>
      <trkpt lat="43.56289" lon="3.31269">
        <ele>331.8</ele>
        <time>2016-06-29T16:59:28Z</time>
      </trkpt>
      <trkpt lat="43.56297" lon="3.31271">
        <ele>332.7</ele>
        <time>2016-06-29T16:59:33Z</time>
      </trkpt>
      <trkpt lat="43.56304" lon="3.31276">
        <ele>333.6</ele>
        <time>2016-06-29T16:59:38Z</time>
      </trkpt>
      <trkpt lat="43.56312" lon="3.31278">
        <ele>334.2</ele>
        <time>2016-06-29T16:59:42Z</time>
      </trkpt>
      <trkpt lat="43.5632" lon="3.31279">
        <ele>335</ele>
        <time>2016-06-29T16:59:46Z</time>
      </trkpt>
      <trkpt lat="43.5633" lon="3.31286">
        <ele>335.5</ele>
        <time>2016-06-29T16:59:49Z</time>
      </trkpt>
      <trkpt lat="43.56337" lon="3.31294">
        <ele>338.1</ele>
        <time>2016-06-29T16:59:51Z</time>
      </trkpt>
      <trkpt lat="43.56346" lon="3.31307">
        <ele>340.2</ele>
        <time>2016-06-29T16:59:53Z</time>
      </trkpt>
      <trkpt lat="43.56355" lon="3.31318">
        <ele>341.1</ele>
        <time>2016-06-29T16:59:55Z</time>
      </trkpt>
      <trkpt lat="43.56363" lon="3.31328">
        <ele>341.8</ele>
        <time>2016-06-29T16:59:57Z</time>
      </trkpt>
      <trkpt lat="43.56371" lon="3.31333">
        <ele>341.9</ele>
        <time>2016-06-29T16:59:59Z</time>
      </trkpt>
      <trkpt lat="43.56378" lon="3.31343">
        <ele>341.2</ele>
        <time>2016-06-29T17:00:01Z</time>
      </trkpt>
      <trkpt lat="43.56385" lon="3.31351">
        <ele>341.2</ele>
        <time>2016-06-29T17:00:03Z</time>
      </trkpt>
      <trkpt lat="43.56393" lon="3.31358">
        <ele>340</ele>
        <time>2016-06-29T17:00:05Z</time>
      </trkpt>
      <trkpt lat="43.564" lon="3.31362">
        <ele>339.4</ele>
        <time>2016-06-29T17:00:07Z</time>
      </trkpt>
      <trkpt lat="43.56407" lon="3.31364">
        <ele>339</ele>
        <time>2016-06-29T17:00:09Z</time>
      </trkpt>
      <trkpt lat="43.56416" lon="3.31365">
        <ele>339.1</ele>
        <time>2016-06-29T17:00:11Z</time>
      </trkpt>
      <trkpt lat="43.56427" lon="3.31368">
        <ele>339.6</ele>
        <time>2016-06-29T17:00:13Z</time>
      </trkpt>
      <trkpt lat="43.56439" lon="3.31371">
        <ele>339.7</ele>
        <time>2016-06-29T17:00:15Z</time>
      </trkpt>
      <trkpt lat="43.5645" lon="3.31376">
        <ele>339</ele>
        <time>2016-06-29T17:00:17Z</time>
      </trkpt>
      <trkpt lat="43.56463" lon="3.31379">
        <ele>337.6</ele>
        <time>2016-06-29T17:00:19Z</time>
      </trkpt>
      <trkpt lat="43.56472" lon="3.3138">
        <ele>336.3</ele>
        <time>2016-06-29T17:00:21Z</time>
      </trkpt>
      <trkpt lat="43.56484" lon="3.31383">
        <ele>336.4</ele>
        <time>2016-06-29T17:00:23Z</time>
      </trkpt>
      <trkpt lat="43.56495" lon="3.31385">
        <ele>335.1</ele>
        <time>2016-06-29T17:00:25Z</time>
      </trkpt>
      <trkpt lat="43.56504" lon="3.31386">
        <ele>333.7</ele>
        <time>2016-06-29T17:00:27Z</time>
      </trkpt>
      <trkpt lat="43.56513" lon="3.31388">
        <ele>333.5</ele>
        <time>2016-06-29T17:00:29Z</time>
      </trkpt>
      <trkpt lat="43.56524" lon="3.3139">
        <ele>332.2</ele>
        <time>2016-06-29T17:00:31Z</time>
      </trkpt>
      <trkpt lat="43.56535" lon="3.31394">
        <ele>331.5</ele>
        <time>2016-06-29T17:00:33Z</time>
      </trkpt>
      <trkpt lat="43.56547" lon="3.31396">
        <ele>331.6</ele>
        <time>2016-06-29T17:00:35Z</time>
      </trkpt>
      <trkpt lat="43.56556" lon="3.31396">
        <ele>331.4</ele>
        <time>2016-06-29T17:00:37Z</time>
      </trkpt>
      <trkpt lat="43.56566" lon="3.31399">
        <ele>331.5</ele>
        <time>2016-06-29T17:00:39Z</time>
      </trkpt>
      <trkpt lat="43.56572" lon="3.31404">
        <ele>331.7</ele>
        <time>2016-06-29T17:00:42Z</time>
      </trkpt>
      <trkpt lat="43.56577" lon="3.31403">
        <ele>332.4</ele>
        <time>2016-06-29T17:00:49Z</time>
      </trkpt>
      <trkpt lat="43.5658" lon="3.31403">
        <ele>331.8</ele>
        <time>2016-06-29T17:02:08Z</time>
      </trkpt>
      <trkpt lat="43.56589" lon="3.31405">
        <ele>332.5</ele>
        <time>2016-06-29T17:02:43Z</time>
      </trkpt>
      <trkpt lat="43.56597" lon="3.31406">
        <ele>332.7</ele>
        <time>2016-06-29T17:02:47Z</time>
      </trkpt>
      <trkpt lat="43.56604" lon="3.31407">
        <ele>333.1</ele>
        <time>2016-06-29T17:02:51Z</time>
      </trkpt>
      <trkpt lat="43.56613" lon="3.31409">
        <ele>333.6</ele>
        <time>2016-06-29T17:02:54Z</time>
      </trkpt>
      <trkpt lat="43.56619" lon="3.31417">
        <ele>334.3</ele>
        <time>2016-06-29T17:02:59Z</time>
      </trkpt>
      <trkpt lat="43.56628" lon="3.31418">
        <ele>334.7</ele>
        <time>2016-06-29T17:03:04Z</time>
      </trkpt>
      <trkpt lat="43.56636" lon="3.31416">
        <ele>335.1</ele>
        <time>2016-06-29T17:03:09Z</time>
      </trkpt>
      <trkpt lat="43.56644" lon="3.3141">
        <ele>335.5</ele>
        <time>2016-06-29T17:03:13Z</time>
      </trkpt>
      <trkpt lat="43.56651" lon="3.31406">
        <ele>335.6</ele>
        <time>2016-06-29T17:03:17Z</time>
      </trkpt>
      <trkpt lat="43.5666" lon="3.31402">
        <ele>335.8</ele>
        <time>2016-06-29T17:03:22Z</time>
      </trkpt>
      <trkpt lat="43.56669" lon="3.31402">
        <ele>336.1</ele>
        <time>2016-06-29T17:03:27Z</time>
      </trkpt>
      <trkpt lat="43.56677" lon="3.31402">
        <ele>336.7</ele>
        <time>2016-06-29T17:03:32Z</time>
      </trkpt>
      <trkpt lat="43.56685" lon="3.31401">
        <ele>337.2</ele>
        <time>2016-06-29T17:03:37Z</time>
      </trkpt>
      <trkpt lat="43.56693" lon="3.314">
        <ele>337.5</ele>
        <time>2016-06-29T17:03:40Z</time>
      </trkpt>
      <trkpt lat="43.56701" lon="3.31402">
        <ele>338</ele>
        <time>2016-06-29T17:03:43Z</time>
      </trkpt>
      <trkpt lat="43.56709" lon="3.31404">
        <ele>338.4</ele>
        <time>2016-06-29T17:03:46Z</time>
      </trkpt>
      <trkpt lat="43.56717" lon="3.31404">
        <ele>338.8</ele>
        <time>2016-06-29T17:03:48Z</time>
      </trkpt>
      <trkpt lat="43.56725" lon="3.31403">
        <ele>339.3</ele>
        <time>2016-06-29T17:03:51Z</time>
      </trkpt>
      <trkpt lat="43.56733" lon="3.31405">
        <ele>339.8</ele>
        <time>2016-06-29T17:03:54Z</time>
      </trkpt>
      <trkpt lat="43.5674" lon="3.31406">
        <ele>340.3</ele>
        <time>2016-06-29T17:03:57Z</time>
      </trkpt>
      <trkpt lat="43.56747" lon="3.31408">
        <ele>340.8</ele>
        <time>2016-06-29T17:04:00Z</time>
      </trkpt>
      <trkpt lat="43.56756" lon="3.31409">
        <ele>341.6</ele>
        <time>2016-06-29T17:04:04Z</time>
      </trkpt>
      <trkpt lat="43.56763" lon="3.31405">
        <ele>342.2</ele>
        <time>2016-06-29T17:04:08Z</time>
      </trkpt>
      <trkpt lat="43.56771" lon="3.31401">
        <ele>343.4</ele>
        <time>2016-06-29T17:04:14Z</time>
      </trkpt>
      <trkpt lat="43.56779" lon="3.31397">
        <ele>344.8</ele>
        <time>2016-06-29T17:04:21Z</time>
      </trkpt>
      <trkpt lat="43.56786" lon="3.31393">
        <ele>345.3</ele>
        <time>2016-06-29T17:04:24Z</time>
      </trkpt>
      <trkpt lat="43.56793" lon="3.31387">
        <ele>346.1</ele>
        <time>2016-06-29T17:04:29Z</time>
      </trkpt>
      <trkpt lat="43.56801" lon="3.31383">
        <ele>346.6</ele>
        <time>2016-06-29T17:04:33Z</time>
      </trkpt>
      <trkpt lat="43.56808" lon="3.31381">
        <ele>347.4</ele>
        <time>2016-06-29T17:04:37Z</time>
      </trkpt>
      <trkpt lat="43.56816" lon="3.31379">
        <ele>348.5</ele>
        <time>2016-06-29T17:04:42Z</time>
      </trkpt>
      <trkpt lat="43.56824" lon="3.31383">
        <ele>349.2</ele>
        <time>2016-06-29T17:04:46Z</time>
      </trkpt>
      <trkpt lat="43.56833" lon="3.31383">
        <ele>350.2</ele>
        <time>2016-06-29T17:04:51Z</time>
      </trkpt>
      <trkpt lat="43.56841" lon="3.31383">
        <ele>350.9</ele>
        <time>2016-06-29T17:04:55Z</time>
      </trkpt>
      <trkpt lat="43.5685" lon="3.31378">
        <ele>351.2</ele>
        <time>2016-06-29T17:04:58Z</time>
      </trkpt>
      <trkpt lat="43.56859" lon="3.31377">
        <ele>351.4</ele>
        <time>2016-06-29T17:05:00Z</time>
      </trkpt>
      <trkpt lat="43.56868" lon="3.31378">
        <ele>351.5</ele>
        <time>2016-06-29T17:05:02Z</time>
      </trkpt>
      <trkpt lat="43.56878" lon="3.31379">
        <ele>352.5</ele>
        <time>2016-06-29T17:05:04Z</time>
      </trkpt>
      <trkpt lat="43.56886" lon="3.31378">
        <ele>352.7</ele>
        <time>2016-06-29T17:05:06Z</time>
      </trkpt>
      <trkpt lat="43.56896" lon="3.31375">
        <ele>352.9</ele>
        <time>2016-06-29T17:05:09Z</time>
      </trkpt>
      <trkpt lat="43.56904" lon="3.31373">
        <ele>353.1</ele>
        <time>2016-06-29T17:05:11Z</time>
      </trkpt>
      <trkpt lat="43.56912" lon="3.31369">
        <ele>353.3</ele>
        <time>2016-06-29T17:05:13Z</time>
      </trkpt>
      <trkpt lat="43.5692" lon="3.31366">
        <ele>353.3</ele>
        <time>2016-06-29T17:05:15Z</time>
      </trkpt>
      <trkpt lat="43.56927" lon="3.31359">
        <ele>353.4</ele>
        <time>2016-06-29T17:05:17Z</time>
      </trkpt>
      <trkpt lat="43.56934" lon="3.31351">
        <ele>353.5</ele>
        <time>2016-06-29T17:05:19Z</time>
      </trkpt>
      <trkpt lat="43.56943" lon="3.31344">
        <ele>353.5</ele>
        <time>2016-06-29T17:05:22Z</time>
      </trkpt>
      <trkpt lat="43.56949" lon="3.31337">
        <ele>353.6</ele>
        <time>2016-06-29T17:05:24Z</time>
      </trkpt>
      <trkpt lat="43.56955" lon="3.31332">
        <ele>353.6</ele>
        <time>2016-06-29T17:05:26Z</time>
      </trkpt>
      <trkpt lat="43.56963" lon="3.31324">
        <ele>353.7</ele>
        <time>2016-06-29T17:05:29Z</time>
      </trkpt>
      <trkpt lat="43.56971" lon="3.31317">
        <ele>353.7</ele>
        <time>2016-06-29T17:05:32Z</time>
      </trkpt>
      <trkpt lat="43.56979" lon="3.31313">
        <ele>353.8</ele>
        <time>2016-06-29T17:05:35Z</time>
      </trkpt>
      <trkpt lat="43.56987" lon="3.31307">
        <ele>354</ele>
        <time>2016-06-29T17:05:38Z</time>
      </trkpt>
      <trkpt lat="43.56995" lon="3.31304">
        <ele>354.3</ele>
        <time>2016-06-29T17:05:41Z</time>
      </trkpt>
      <trkpt lat="43.57003" lon="3.31299">
        <ele>354.6</ele>
        <time>2016-06-29T17:05:45Z</time>
      </trkpt>
      <trkpt lat="43.5701" lon="3.31298">
        <ele>354.7</ele>
        <time>2016-06-29T17:05:48Z</time>
      </trkpt>
      <trkpt lat="43.5702" lon="3.31297">
        <ele>354.8</ele>
        <time>2016-06-29T17:05:52Z</time>
      </trkpt>
      <trkpt lat="43.57029" lon="3.31298">
        <ele>355</ele>
        <time>2016-06-29T17:05:55Z</time>
      </trkpt>
      <trkpt lat="43.57037" lon="3.31295">
        <ele>355.4</ele>
        <time>2016-06-29T17:05:59Z</time>
      </trkpt>
      <trkpt lat="43.57045" lon="3.31291">
        <ele>355.7</ele>
        <time>2016-06-29T17:06:03Z</time>
      </trkpt>
      <trkpt lat="43.57053" lon="3.31287">
        <ele>356.3</ele>
        <time>2016-06-29T17:06:08Z</time>
      </trkpt>
      <trkpt lat="43.57061" lon="3.31283">
        <ele>357.1</ele>
        <time>2016-06-29T17:06:13Z</time>
      </trkpt>
      <trkpt lat="43.57068" lon="3.31284">
        <ele>357.5</ele>
        <time>2016-06-29T17:06:17Z</time>
      </trkpt>
      <trkpt lat="43.57074" lon="3.31291">
        <ele>357.6</ele>
        <time>2016-06-29T17:06:21Z</time>
      </trkpt>
      <trkpt lat="43.57078" lon="3.313">
        <ele>357.6</ele>
        <time>2016-06-29T17:06:26Z</time>
      </trkpt>
      <trkpt lat="43.57084" lon="3.31308">
        <ele>357.7</ele>
        <time>2016-06-29T17:06:30Z</time>
      </trkpt>
      <trkpt lat="43.57088" lon="3.31318">
        <ele>357.9</ele>
        <time>2016-06-29T17:06:34Z</time>
      </trkpt>
      <trkpt lat="43.57094" lon="3.31325">
        <ele>358.2</ele>
        <time>2016-06-29T17:06:39Z</time>
      </trkpt>
      <trkpt lat="43.571" lon="3.31332">
        <ele>358.5</ele>
        <time>2016-06-29T17:06:43Z</time>
      </trkpt>
      <trkpt lat="43.57105" lon="3.31339">
        <ele>359</ele>
        <time>2016-06-29T17:06:48Z</time>
      </trkpt>
      <trkpt lat="43.57113" lon="3.31345">
        <ele>359.6</ele>
        <time>2016-06-29T17:06:54Z</time>
      </trkpt>
      <trkpt lat="43.57119" lon="3.31352">
        <ele>360.5</ele>
        <time>2016-06-29T17:06:59Z</time>
      </trkpt>
      <trkpt lat="43.57124" lon="3.3136">
        <ele>361.3</ele>
        <time>2016-06-29T17:07:03Z</time>
      </trkpt>
      <trkpt lat="43.57131" lon="3.31364">
        <ele>362.2</ele>
        <time>2016-06-29T17:07:08Z</time>
      </trkpt>
      <trkpt lat="43.57139" lon="3.31368">
        <ele>363.3</ele>
        <time>2016-06-29T17:07:13Z</time>
      </trkpt>
      <trkpt lat="43.57146" lon="3.31371">
        <ele>364.1</ele>
        <time>2016-06-29T17:07:17Z</time>
      </trkpt>
      <trkpt lat="43.57153" lon="3.31377">
        <ele>364.9</ele>
        <time>2016-06-29T17:07:22Z</time>
      </trkpt>
      <trkpt lat="43.57161" lon="3.31382">
        <ele>366.1</ele>
        <time>2016-06-29T17:07:28Z</time>
      </trkpt>
      <trkpt lat="43.57167" lon="3.31387">
        <ele>367.1</ele>
        <time>2016-06-29T17:07:33Z</time>
      </trkpt>
      <trkpt lat="43.57175" lon="3.3139">
        <ele>367.9</ele>
        <time>2016-06-29T17:07:38Z</time>
      </trkpt>
      <trkpt lat="43.57183" lon="3.31391">
        <ele>368.8</ele>
        <time>2016-06-29T17:07:43Z</time>
      </trkpt>
      <trkpt lat="43.57191" lon="3.31395">
        <ele>369.8</ele>
        <time>2016-06-29T17:07:48Z</time>
      </trkpt>
      <trkpt lat="43.57198" lon="3.31398">
        <ele>370.6</ele>
        <time>2016-06-29T17:07:52Z</time>
      </trkpt>
      <trkpt lat="43.57207" lon="3.31401">
        <ele>371.1</ele>
        <time>2016-06-29T17:07:56Z</time>
      </trkpt>
      <trkpt lat="43.57215" lon="3.31401">
        <ele>371.5</ele>
        <time>2016-06-29T17:07:59Z</time>
      </trkpt>
      <trkpt lat="43.57223" lon="3.31399">
        <ele>371.8</ele>
        <time>2016-06-29T17:08:03Z</time>
      </trkpt>
      <trkpt lat="43.5723" lon="3.31398">
        <ele>372.1</ele>
        <time>2016-06-29T17:08:06Z</time>
      </trkpt>
      <trkpt lat="43.57238" lon="3.31399">
        <ele>372.4</ele>
        <time>2016-06-29T17:08:09Z</time>
      </trkpt>
      <trkpt lat="43.57247" lon="3.31398">
        <ele>372.6</ele>
        <time>2016-06-29T17:08:12Z</time>
      </trkpt>
      <trkpt lat="43.57255" lon="3.31398">
        <ele>373</ele>
        <time>2016-06-29T17:08:15Z</time>
      </trkpt>
      <trkpt lat="43.57263" lon="3.31399">
        <ele>373.3</ele>
        <time>2016-06-29T17:08:18Z</time>
      </trkpt>
      <trkpt lat="43.5727" lon="3.31401">
        <ele>373.6</ele>
        <time>2016-06-29T17:08:21Z</time>
      </trkpt>
      <trkpt lat="43.57278" lon="3.31398">
        <ele>373.9</ele>
        <time>2016-06-29T17:08:24Z</time>
      </trkpt>
      <trkpt lat="43.57286" lon="3.31395">
        <ele>374.2</ele>
        <time>2016-06-29T17:08:28Z</time>
      </trkpt>
      <trkpt lat="43.57294" lon="3.31392">
        <ele>374.5</ele>
        <time>2016-06-29T17:08:31Z</time>
      </trkpt>
      <trkpt lat="43.57301" lon="3.31391">
        <ele>374.9</ele>
        <time>2016-06-29T17:08:34Z</time>
      </trkpt>
      <trkpt lat="43.5731" lon="3.31391">
        <ele>375.4</ele>
        <time>2016-06-29T17:08:38Z</time>
      </trkpt>
      <trkpt lat="43.57317" lon="3.31392">
        <ele>375.8</ele>
        <time>2016-06-29T17:08:41Z</time>
      </trkpt>
      <trkpt lat="43.57326" lon="3.31392">
        <ele>376.2</ele>
        <time>2016-06-29T17:08:45Z</time>
      </trkpt>
      <trkpt lat="43.57335" lon="3.31391">
        <ele>376.5</ele>
        <time>2016-06-29T17:08:49Z</time>
      </trkpt>
      <trkpt lat="43.57343" lon="3.31396">
        <ele>377.3</ele>
        <time>2016-06-29T17:08:54Z</time>
      </trkpt>
      <trkpt lat="43.5735" lon="3.31398">
        <ele>377.6</ele>
        <time>2016-06-29T17:08:57Z</time>
      </trkpt>
      <trkpt lat="43.57359" lon="3.314">
        <ele>378.2</ele>
        <time>2016-06-29T17:09:01Z</time>
      </trkpt>
      <trkpt lat="43.57366" lon="3.31403">
        <ele>378.8</ele>
        <time>2016-06-29T17:09:05Z</time>
      </trkpt>
      <trkpt lat="43.57371" lon="3.31413">
        <ele>379.6</ele>
        <time>2016-06-29T17:09:10Z</time>
      </trkpt>
      <trkpt lat="43.57374" lon="3.31424">
        <ele>380.3</ele>
        <time>2016-06-29T17:09:14Z</time>
      </trkpt>
      <trkpt lat="43.57379" lon="3.31434">
        <ele>381</ele>
        <time>2016-06-29T17:09:18Z</time>
      </trkpt>
      <trkpt lat="43.57383" lon="3.31442">
        <ele>381.6</ele>
        <time>2016-06-29T17:09:22Z</time>
      </trkpt>
      <trkpt lat="43.57386" lon="3.31451">
        <ele>382.2</ele>
        <time>2016-06-29T17:09:26Z</time>
      </trkpt>
      <trkpt lat="43.57389" lon="3.31463">
        <ele>383.1</ele>
        <time>2016-06-29T17:09:31Z</time>
      </trkpt>
      <trkpt lat="43.57391" lon="3.31472">
        <ele>384</ele>
        <time>2016-06-29T17:09:38Z</time>
      </trkpt>
      <trkpt lat="43.5739" lon="3.31484">
        <ele>385.4</ele>
        <time>2016-06-29T17:09:45Z</time>
      </trkpt>
      <trkpt lat="43.57392" lon="3.31494">
        <ele>386.6</ele>
        <time>2016-06-29T17:09:51Z</time>
      </trkpt>
      <trkpt lat="43.57394" lon="3.31504">
        <ele>387.4</ele>
        <time>2016-06-29T17:09:57Z</time>
      </trkpt>
      <trkpt lat="43.57396" lon="3.31514">
        <ele>388.2</ele>
        <time>2016-06-29T17:10:03Z</time>
      </trkpt>
      <trkpt lat="43.57395" lon="3.31522">
        <ele>388.9</ele>
        <time>2016-06-29T17:10:10Z</time>
      </trkpt>
      <trkpt lat="43.57392" lon="3.3153">
        <ele>393.1</ele>
        <time>2016-06-29T17:11:12Z</time>
      </trkpt>
      <trkpt lat="43.57387" lon="3.31539">
        <ele>393.3</ele>
        <time>2016-06-29T17:11:15Z</time>
      </trkpt>
      <trkpt lat="43.57383" lon="3.31548">
        <ele>393.7</ele>
        <time>2016-06-29T17:11:19Z</time>
      </trkpt>
      <trkpt lat="43.57378" lon="3.31557">
        <ele>394</ele>
        <time>2016-06-29T17:11:23Z</time>
      </trkpt>
      <trkpt lat="43.57375" lon="3.31567">
        <ele>394</ele>
        <time>2016-06-29T17:11:27Z</time>
      </trkpt>
      <trkpt lat="43.57371" lon="3.31578">
        <ele>394.3</ele>
        <time>2016-06-29T17:11:32Z</time>
      </trkpt>
      <trkpt lat="43.57369" lon="3.31587">
        <ele>394.5</ele>
        <time>2016-06-29T17:11:36Z</time>
      </trkpt>
      <trkpt lat="43.57366" lon="3.31598">
        <ele>394.5</ele>
        <time>2016-06-29T17:11:40Z</time>
      </trkpt>
      <trkpt lat="43.57364" lon="3.31608">
        <ele>394.8</ele>
        <time>2016-06-29T17:11:45Z</time>
      </trkpt>
      <trkpt lat="43.57365" lon="3.31619">
        <ele>395.3</ele>
        <time>2016-06-29T17:11:52Z</time>
      </trkpt>
      <trkpt lat="43.57367" lon="3.3163">
        <ele>395.6</ele>
        <time>2016-06-29T17:11:58Z</time>
      </trkpt>
      <trkpt lat="43.5737" lon="3.31641">
        <ele>395.8</ele>
        <time>2016-06-29T17:12:03Z</time>
      </trkpt>
      <trkpt lat="43.57374" lon="3.31651">
        <ele>396.1</ele>
        <time>2016-06-29T17:12:08Z</time>
      </trkpt>
      <trkpt lat="43.57378" lon="3.31661">
        <ele>396.3</ele>
        <time>2016-06-29T17:12:13Z</time>
      </trkpt>
      <trkpt lat="43.57381" lon="3.31672">
        <ele>396.5</ele>
        <time>2016-06-29T17:12:18Z</time>
      </trkpt>
      <trkpt lat="43.57383" lon="3.31683">
        <ele>396.8</ele>
        <time>2016-06-29T17:12:23Z</time>
      </trkpt>
      <trkpt lat="43.57383" lon="3.31695">
        <ele>397</ele>
        <time>2016-06-29T17:12:27Z</time>
      </trkpt>
      <trkpt lat="43.57382" lon="3.31708">
        <ele>397.2</ele>
        <time>2016-06-29T17:12:30Z</time>
      </trkpt>
      <trkpt lat="43.57381" lon="3.31719">
        <ele>397.5</ele>
        <time>2016-06-29T17:12:32Z</time>
      </trkpt>
      <trkpt lat="43.57381" lon="3.31733">
        <ele>397.6</ele>
        <time>2016-06-29T17:12:34Z</time>
      </trkpt>
      <trkpt lat="43.57383" lon="3.31748">
        <ele>397</ele>
        <time>2016-06-29T17:12:36Z</time>
      </trkpt>
      <trkpt lat="43.57388" lon="3.31761">
        <ele>396.4</ele>
        <time>2016-06-29T17:12:38Z</time>
      </trkpt>
      <trkpt lat="43.57393" lon="3.31774">
        <ele>396.8</ele>
        <time>2016-06-29T17:12:40Z</time>
      </trkpt>
      <trkpt lat="43.57399" lon="3.31785">
        <ele>396.8</ele>
        <time>2016-06-29T17:12:42Z</time>
      </trkpt>
      <trkpt lat="43.57407" lon="3.31801">
        <ele>396.8</ele>
        <time>2016-06-29T17:12:44Z</time>
      </trkpt>
      <trkpt lat="43.57411" lon="3.31809">
        <ele>396.5</ele>
        <time>2016-06-29T17:12:45Z</time>
      </trkpt>
      <trkpt lat="43.57417" lon="3.31826">
        <ele>396</ele>
        <time>2016-06-29T17:12:47Z</time>
      </trkpt>
      <trkpt lat="43.57423" lon="3.3184">
        <ele>395</ele>
        <time>2016-06-29T17:12:49Z</time>
      </trkpt>
      <trkpt lat="43.57431" lon="3.31847">
        <ele>394</ele>
        <time>2016-06-29T17:12:51Z</time>
      </trkpt>
      <trkpt lat="43.57435" lon="3.31848">
        <ele>393.6</ele>
        <time>2016-06-29T17:12:58Z</time>
      </trkpt>
      <trkpt lat="43.57441" lon="3.31842">
        <ele>392.4</ele>
        <time>2016-06-29T17:16:04Z</time>
      </trkpt>
      <trkpt lat="43.57443" lon="3.31847">
        <ele>392</ele>
        <time>2016-06-29T17:16:11Z</time>
      </trkpt>
      <trkpt lat="43.57438" lon="3.31855">
        <ele>391.8</ele>
        <time>2016-06-29T17:16:14Z</time>
      </trkpt>
      <trkpt lat="43.57432" lon="3.31861">
        <ele>391.7</ele>
        <time>2016-06-29T17:16:17Z</time>
      </trkpt>
      <trkpt lat="43.57434" lon="3.3187">
        <ele>391.1</ele>
        <time>2016-06-29T17:16:24Z</time>
      </trkpt>
      <trkpt lat="43.57437" lon="3.3188">
        <ele>390.9</ele>
        <time>2016-06-29T17:16:27Z</time>
      </trkpt>
      <trkpt lat="43.57441" lon="3.31891">
        <ele>390</ele>
        <time>2016-06-29T17:16:30Z</time>
      </trkpt>
      <trkpt lat="43.57446" lon="3.31903">
        <ele>388.9</ele>
        <time>2016-06-29T17:16:32Z</time>
      </trkpt>
      <trkpt lat="43.57452" lon="3.31919">
        <ele>387.4</ele>
        <time>2016-06-29T17:16:34Z</time>
      </trkpt>
      <trkpt lat="43.57457" lon="3.31936">
        <ele>385.5</ele>
        <time>2016-06-29T17:16:36Z</time>
      </trkpt>
      <trkpt lat="43.57461" lon="3.31949">
        <ele>382.9</ele>
        <time>2016-06-29T17:16:38Z</time>
      </trkpt>
      <trkpt lat="43.57465" lon="3.31962">
        <ele>381</ele>
        <time>2016-06-29T17:16:40Z</time>
      </trkpt>
      <trkpt lat="43.5747" lon="3.31978">
        <ele>379.9</ele>
        <time>2016-06-29T17:16:42Z</time>
      </trkpt>
      <trkpt lat="43.57475" lon="3.31993">
        <ele>377.8</ele>
        <time>2016-06-29T17:16:44Z</time>
      </trkpt>
      <trkpt lat="43.5748" lon="3.32008">
        <ele>376.4</ele>
        <time>2016-06-29T17:16:46Z</time>
      </trkpt>
      <trkpt lat="43.57483" lon="3.32019">
        <ele>376.2</ele>
        <time>2016-06-29T17:16:48Z</time>
      </trkpt>
      <trkpt lat="43.57488" lon="3.32032">
        <ele>373.3</ele>
        <time>2016-06-29T17:16:50Z</time>
      </trkpt>
      <trkpt lat="43.57494" lon="3.32046">
        <ele>370.8</ele>
        <time>2016-06-29T17:16:52Z</time>
      </trkpt>
      <trkpt lat="43.57501" lon="3.32059">
        <ele>368.5</ele>
        <time>2016-06-29T17:16:54Z</time>
      </trkpt>
      <trkpt lat="43.57505" lon="3.32068">
        <ele>367.8</ele>
        <time>2016-06-29T17:16:56Z</time>
      </trkpt>
      <trkpt lat="43.57509" lon="3.32076">
        <ele>366.8</ele>
        <time>2016-06-29T17:16:58Z</time>
      </trkpt>
      <trkpt lat="43.57515" lon="3.32085">
        <ele>365.2</ele>
        <time>2016-06-29T17:17:00Z</time>
      </trkpt>
      <trkpt lat="43.57518" lon="3.32098">
        <ele>361.5</ele>
        <time>2016-06-29T17:17:02Z</time>
      </trkpt>
      <trkpt lat="43.57518" lon="3.32108">
        <ele>358.8</ele>
        <time>2016-06-29T17:17:04Z</time>
      </trkpt>
      <trkpt lat="43.5752" lon="3.32121">
        <ele>358.5</ele>
        <time>2016-06-29T17:17:07Z</time>
      </trkpt>
      <trkpt lat="43.57526" lon="3.32132">
        <ele>356.4</ele>
        <time>2016-06-29T17:17:13Z</time>
      </trkpt>
      <trkpt lat="43.57529" lon="3.32143">
        <ele>356</ele>
        <time>2016-06-29T17:17:16Z</time>
      </trkpt>
      <trkpt lat="43.57526" lon="3.32155">
        <ele>355.5</ele>
        <time>2016-06-29T17:17:19Z</time>
      </trkpt>
      <trkpt lat="43.5753" lon="3.32168">
        <ele>354.9</ele>
        <time>2016-06-29T17:17:22Z</time>
      </trkpt>
      <trkpt lat="43.57528" lon="3.32178">
        <ele>354.2</ele>
        <time>2016-06-29T17:17:25Z</time>
      </trkpt>
      <trkpt lat="43.57523" lon="3.32185">
        <ele>353.4</ele>
        <time>2016-06-29T17:17:28Z</time>
      </trkpt>
      <trkpt lat="43.57518" lon="3.32196">
        <ele>352.6</ele>
        <time>2016-06-29T17:17:31Z</time>
      </trkpt>
      <trkpt lat="43.57515" lon="3.32205">
        <ele>352.1</ele>
        <time>2016-06-29T17:17:33Z</time>
      </trkpt>
      <trkpt lat="43.57523" lon="3.32203">
        <ele>351</ele>
        <time>2016-06-29T17:17:39Z</time>
      </trkpt>
      <trkpt lat="43.57529" lon="3.32194">
        <ele>348.6</ele>
        <time>2016-06-29T17:17:41Z</time>
      </trkpt>
      <trkpt lat="43.57537" lon="3.32186">
        <ele>345.9</ele>
        <time>2016-06-29T17:17:43Z</time>
      </trkpt>
      <trkpt lat="43.57546" lon="3.32175">
        <ele>343.7</ele>
        <time>2016-06-29T17:17:45Z</time>
      </trkpt>
      <trkpt lat="43.57552" lon="3.32167">
        <ele>343.2</ele>
        <time>2016-06-29T17:17:46Z</time>
      </trkpt>
      <trkpt lat="43.57562" lon="3.32159">
        <ele>342.2</ele>
        <time>2016-06-29T17:17:48Z</time>
      </trkpt>
      <trkpt lat="43.57569" lon="3.32165">
        <ele>340.8</ele>
        <time>2016-06-29T17:17:50Z</time>
      </trkpt>
      <trkpt lat="43.57574" lon="3.32175">
        <ele>339.3</ele>
        <time>2016-06-29T17:17:52Z</time>
      </trkpt>
      <trkpt lat="43.57579" lon="3.32185">
        <ele>335.7</ele>
        <time>2016-06-29T17:17:54Z</time>
      </trkpt>
      <trkpt lat="43.57583" lon="3.32193">
        <ele>335.4</ele>
        <time>2016-06-29T17:17:56Z</time>
      </trkpt>
      <trkpt lat="43.57583" lon="3.32204">
        <ele>335</ele>
        <time>2016-06-29T17:18:01Z</time>
      </trkpt>
      <trkpt lat="43.57594" lon="3.32204">
        <ele>334.4</ele>
        <time>2016-06-29T17:18:10Z</time>
      </trkpt>
      <trkpt lat="43.57604" lon="3.322">
        <ele>334.1</ele>
        <time>2016-06-29T17:18:15Z</time>
      </trkpt>
      <trkpt lat="43.57613" lon="3.32201">
        <ele>333.9</ele>
        <time>2016-06-29T17:18:18Z</time>
      </trkpt>
      <trkpt lat="43.5762" lon="3.32204">
        <ele>333.5</ele>
        <time>2016-06-29T17:18:20Z</time>
      </trkpt>
      <trkpt lat="43.57628" lon="3.32206">
        <ele>333</ele>
        <time>2016-06-29T17:18:23Z</time>
      </trkpt>
      <trkpt lat="43.57638" lon="3.32205">
        <ele>332.3</ele>
        <time>2016-06-29T17:18:26Z</time>
      </trkpt>
      <trkpt lat="43.57647" lon="3.32206">
        <ele>328.3</ele>
        <time>2016-06-29T17:18:28Z</time>
      </trkpt>
      <trkpt lat="43.57654" lon="3.32207">
        <ele>326.6</ele>
        <time>2016-06-29T17:18:29Z</time>
      </trkpt>
      <trkpt lat="43.57662" lon="3.32206">
        <ele>325</ele>
        <time>2016-06-29T17:18:30Z</time>
      </trkpt>
      <trkpt lat="43.5767" lon="3.32205">
        <ele>323.4</ele>
        <time>2016-06-29T17:18:31Z</time>
      </trkpt>
      <trkpt lat="43.57679" lon="3.32205">
        <ele>322</ele>
        <time>2016-06-29T17:18:32Z</time>
      </trkpt>
      <trkpt lat="43.57691" lon="3.32211">
        <ele>319.3</ele>
        <time>2016-06-29T17:18:34Z</time>
      </trkpt>
      <trkpt lat="43.57687" lon="3.32222">
        <ele>317.8</ele>
        <time>2016-06-29T17:19:55Z</time>
      </trkpt>
      <trkpt lat="43.57683" lon="3.32231">
        <ele>317.6</ele>
        <time>2016-06-29T17:19:58Z</time>
      </trkpt>
      <trkpt lat="43.5768" lon="3.32242">
        <ele>317.6</ele>
        <time>2016-06-29T17:20:01Z</time>
      </trkpt>
      <trkpt lat="43.57675" lon="3.32254">
        <ele>317.5</ele>
        <time>2016-06-29T17:20:04Z</time>
      </trkpt>
      <trkpt lat="43.5767" lon="3.32262">
        <ele>317.5</ele>
        <time>2016-06-29T17:20:06Z</time>
      </trkpt>
      <trkpt lat="43.57666" lon="3.3227">
        <ele>317.4</ele>
        <time>2016-06-29T17:20:09Z</time>
      </trkpt>
      <trkpt lat="43.5766" lon="3.32277">
        <ele>317.4</ele>
        <time>2016-06-29T17:20:11Z</time>
      </trkpt>
      <trkpt lat="43.57654" lon="3.32283">
        <ele>316.6</ele>
        <time>2016-06-29T17:20:13Z</time>
      </trkpt>
      <trkpt lat="43.57648" lon="3.3229">
        <ele>316.1</ele>
        <time>2016-06-29T17:20:15Z</time>
      </trkpt>
      <trkpt lat="43.57642" lon="3.32297">
        <ele>315.5</ele>
        <time>2016-06-29T17:20:17Z</time>
      </trkpt>
      <trkpt lat="43.57635" lon="3.32306">
        <ele>314.5</ele>
        <time>2016-06-29T17:20:19Z</time>
      </trkpt>
      <trkpt lat="43.57628" lon="3.32314">
        <ele>314</ele>
        <time>2016-06-29T17:20:21Z</time>
      </trkpt>
      <trkpt lat="43.57619" lon="3.32323">
        <ele>313.1</ele>
        <time>2016-06-29T17:20:23Z</time>
      </trkpt>
      <trkpt lat="43.57614" lon="3.32332">
        <ele>312.2</ele>
        <time>2016-06-29T17:20:25Z</time>
      </trkpt>
      <trkpt lat="43.5761" lon="3.32344">
        <ele>311.2</ele>
        <time>2016-06-29T17:20:27Z</time>
      </trkpt>
      <trkpt lat="43.57605" lon="3.32352">
        <ele>311.1</ele>
        <time>2016-06-29T17:20:30Z</time>
      </trkpt>
      <trkpt lat="43.57598" lon="3.32356">
        <ele>310.9</ele>
        <time>2016-06-29T17:20:33Z</time>
      </trkpt>
      <trkpt lat="43.57591" lon="3.3236">
        <ele>310.9</ele>
        <time>2016-06-29T17:20:36Z</time>
      </trkpt>
      <trkpt lat="43.57585" lon="3.32367">
        <ele>310.8</ele>
        <time>2016-06-29T17:20:39Z</time>
      </trkpt>
      <trkpt lat="43.57579" lon="3.32374">
        <ele>310.7</ele>
        <time>2016-06-29T17:20:42Z</time>
      </trkpt>
      <trkpt lat="43.57572" lon="3.32382">
        <ele>310.8</ele>
        <time>2016-06-29T17:20:46Z</time>
      </trkpt>
      <trkpt lat="43.57566" lon="3.32389">
        <ele>311.3</ele>
        <time>2016-06-29T17:20:50Z</time>
      </trkpt>
      <trkpt lat="43.57561" lon="3.32397">
        <ele>311.6</ele>
        <time>2016-06-29T17:20:53Z</time>
      </trkpt>
      <trkpt lat="43.57555" lon="3.32404">
        <ele>311.9</ele>
        <time>2016-06-29T17:20:57Z</time>
      </trkpt>
      <trkpt lat="43.57547" lon="3.32412">
        <ele>312.3</ele>
        <time>2016-06-29T17:21:01Z</time>
      </trkpt>
      <trkpt lat="43.5754" lon="3.32419">
        <ele>312.7</ele>
        <time>2016-06-29T17:21:05Z</time>
      </trkpt>
      <trkpt lat="43.57534" lon="3.32425">
        <ele>313</ele>
        <time>2016-06-29T17:21:10Z</time>
      </trkpt>
      <trkpt lat="43.57528" lon="3.32434">
        <ele>313.1</ele>
        <time>2016-06-29T17:21:15Z</time>
      </trkpt>
      <trkpt lat="43.57521" lon="3.32442">
        <ele>313.3</ele>
        <time>2016-06-29T17:21:19Z</time>
      </trkpt>
      <trkpt lat="43.57513" lon="3.32448">
        <ele>313.8</ele>
        <time>2016-06-29T17:21:24Z</time>
      </trkpt>
      <trkpt lat="43.57507" lon="3.32454">
        <ele>314.2</ele>
        <time>2016-06-29T17:21:28Z</time>
      </trkpt>
      <trkpt lat="43.57501" lon="3.32461">
        <ele>314.7</ele>
        <time>2016-06-29T17:21:32Z</time>
      </trkpt>
      <trkpt lat="43.57494" lon="3.32468">
        <ele>315.6</ele>
        <time>2016-06-29T17:21:37Z</time>
      </trkpt>
      <trkpt lat="43.57487" lon="3.32473">
        <ele>316.5</ele>
        <time>2016-06-29T17:21:42Z</time>
      </trkpt>
      <trkpt lat="43.57481" lon="3.3248">
        <ele>317.2</ele>
        <time>2016-06-29T17:21:47Z</time>
      </trkpt>
      <trkpt lat="43.57473" lon="3.32485">
        <ele>317.8</ele>
        <time>2016-06-29T17:21:52Z</time>
      </trkpt>
      <trkpt lat="43.57469" lon="3.32494">
        <ele>318.2</ele>
        <time>2016-06-29T17:21:56Z</time>
      </trkpt>
      <trkpt lat="43.57476" lon="3.32497">
        <ele>318.8</ele>
        <time>2016-06-29T17:22:01Z</time>
      </trkpt>
      <trkpt lat="43.57482" lon="3.3249">
        <ele>319.4</ele>
        <time>2016-06-29T17:22:05Z</time>
      </trkpt>
      <trkpt lat="43.57488" lon="3.32484">
        <ele>320.1</ele>
        <time>2016-06-29T17:22:09Z</time>
      </trkpt>
      <trkpt lat="43.57496" lon="3.3248">
        <ele>321.1</ele>
        <time>2016-06-29T17:22:13Z</time>
      </trkpt>
      <trkpt lat="43.57505" lon="3.32475">
        <ele>322</ele>
        <time>2016-06-29T17:22:18Z</time>
      </trkpt>
      <trkpt lat="43.57513" lon="3.32472">
        <ele>322.4</ele>
        <time>2016-06-29T17:22:22Z</time>
      </trkpt>
      <trkpt lat="43.57521" lon="3.32467">
        <ele>323</ele>
        <time>2016-06-29T17:22:27Z</time>
      </trkpt>
      <trkpt lat="43.57528" lon="3.32461">
        <ele>323.7</ele>
        <time>2016-06-29T17:22:31Z</time>
      </trkpt>
      <trkpt lat="43.57536" lon="3.32459">
        <ele>324.5</ele>
        <time>2016-06-29T17:22:36Z</time>
      </trkpt>
      <trkpt lat="43.57545" lon="3.32458">
        <ele>325.1</ele>
        <time>2016-06-29T17:22:40Z</time>
      </trkpt>
      <trkpt lat="43.57553" lon="3.32454">
        <ele>325.6</ele>
        <time>2016-06-29T17:22:44Z</time>
      </trkpt>
      <trkpt lat="43.57561" lon="3.32454">
        <ele>326.8</ele>
        <time>2016-06-29T17:22:50Z</time>
      </trkpt>
      <trkpt lat="43.57569" lon="3.32451">
        <ele>327.4</ele>
        <time>2016-06-29T17:22:54Z</time>
      </trkpt>
      <trkpt lat="43.57578" lon="3.32447">
        <ele>328.3</ele>
        <time>2016-06-29T17:22:58Z</time>
      </trkpt>
      <trkpt lat="43.57585" lon="3.32442">
        <ele>329.3</ele>
        <time>2016-06-29T17:23:02Z</time>
      </trkpt>
      <trkpt lat="43.57593" lon="3.3244">
        <ele>330.5</ele>
        <time>2016-06-29T17:23:07Z</time>
      </trkpt>
      <trkpt lat="43.57601" lon="3.32438">
        <ele>331.5</ele>
        <time>2016-06-29T17:23:12Z</time>
      </trkpt>
      <trkpt lat="43.57611" lon="3.32439">
        <ele>332.2</ele>
        <time>2016-06-29T17:23:17Z</time>
      </trkpt>
      <trkpt lat="43.57619" lon="3.32438">
        <ele>332.8</ele>
        <time>2016-06-29T17:23:21Z</time>
      </trkpt>
      <trkpt lat="43.57627" lon="3.32441">
        <ele>333.3</ele>
        <time>2016-06-29T17:23:25Z</time>
      </trkpt>
      <trkpt lat="43.57634" lon="3.32443">
        <ele>333.8</ele>
        <time>2016-06-29T17:23:29Z</time>
      </trkpt>
      <trkpt lat="43.57641" lon="3.32439">
        <ele>334.4</ele>
        <time>2016-06-29T17:23:33Z</time>
      </trkpt>
      <trkpt lat="43.57649" lon="3.32433">
        <ele>335</ele>
        <time>2016-06-29T17:23:37Z</time>
      </trkpt>
      <trkpt lat="43.57654" lon="3.32425">
        <ele>335.9</ele>
        <time>2016-06-29T17:23:41Z</time>
      </trkpt>
      <trkpt lat="43.57659" lon="3.32417">
        <ele>336.6</ele>
        <time>2016-06-29T17:23:45Z</time>
      </trkpt>
      <trkpt lat="43.57664" lon="3.32409">
        <ele>337.1</ele>
        <time>2016-06-29T17:23:48Z</time>
      </trkpt>
      <trkpt lat="43.57669" lon="3.32401">
        <ele>337.3</ele>
        <time>2016-06-29T17:23:51Z</time>
      </trkpt>
      <trkpt lat="43.57674" lon="3.32392">
        <ele>337.8</ele>
        <time>2016-06-29T17:23:55Z</time>
      </trkpt>
      <trkpt lat="43.57679" lon="3.32385">
        <ele>338.3</ele>
        <time>2016-06-29T17:23:59Z</time>
      </trkpt>
      <trkpt lat="43.57685" lon="3.32376">
        <ele>338.9</ele>
        <time>2016-06-29T17:24:03Z</time>
      </trkpt>
      <trkpt lat="43.5769" lon="3.32367">
        <ele>339.5</ele>
        <time>2016-06-29T17:24:07Z</time>
      </trkpt>
      <trkpt lat="43.57696" lon="3.3236">
        <ele>340.2</ele>
        <time>2016-06-29T17:24:11Z</time>
      </trkpt>
      <trkpt lat="43.57703" lon="3.32354">
        <ele>340.8</ele>
        <time>2016-06-29T17:24:15Z</time>
      </trkpt>
      <trkpt lat="43.5771" lon="3.32347">
        <ele>341.3</ele>
        <time>2016-06-29T17:24:20Z</time>
      </trkpt>
      <trkpt lat="43.57717" lon="3.32343">
        <ele>341.8</ele>
        <time>2016-06-29T17:24:24Z</time>
      </trkpt>
      <trkpt lat="43.57725" lon="3.32337">
        <ele>342.2</ele>
        <time>2016-06-29T17:24:28Z</time>
      </trkpt>
      <trkpt lat="43.57733" lon="3.32332">
        <ele>342.7</ele>
        <time>2016-06-29T17:24:32Z</time>
      </trkpt>
      <trkpt lat="43.57741" lon="3.32327">
        <ele>343.1</ele>
        <time>2016-06-29T17:24:36Z</time>
      </trkpt>
      <trkpt lat="43.57747" lon="3.3232">
        <ele>343.8</ele>
        <time>2016-06-29T17:24:40Z</time>
      </trkpt>
      <trkpt lat="43.57754" lon="3.32314">
        <ele>344.5</ele>
        <time>2016-06-29T17:24:44Z</time>
      </trkpt>
      <trkpt lat="43.57762" lon="3.3231">
        <ele>345.1</ele>
        <time>2016-06-29T17:24:50Z</time>
      </trkpt>
      <trkpt lat="43.57769" lon="3.32304">
        <ele>345.7</ele>
        <time>2016-06-29T17:24:54Z</time>
      </trkpt>
      <trkpt lat="43.57777" lon="3.32301">
        <ele>346.1</ele>
        <time>2016-06-29T17:24:58Z</time>
      </trkpt>
      <trkpt lat="43.57784" lon="3.32298">
        <ele>346.6</ele>
        <time>2016-06-29T17:25:02Z</time>
      </trkpt>
      <trkpt lat="43.57792" lon="3.32298">
        <ele>346.9</ele>
        <time>2016-06-29T17:25:06Z</time>
      </trkpt>
      <trkpt lat="43.578" lon="3.32299">
        <ele>347.1</ele>
        <time>2016-06-29T17:25:10Z</time>
      </trkpt>
      <trkpt lat="43.57808" lon="3.323">
        <ele>347.5</ele>
        <time>2016-06-29T17:25:14Z</time>
      </trkpt>
      <trkpt lat="43.57817" lon="3.32302">
        <ele>348.4</ele>
        <time>2016-06-29T17:25:19Z</time>
      </trkpt>
      <trkpt lat="43.57825" lon="3.32305">
        <ele>349.3</ele>
        <time>2016-06-29T17:25:24Z</time>
      </trkpt>
      <trkpt lat="43.57831" lon="3.32311">
        <ele>350.1</ele>
        <time>2016-06-29T17:25:28Z</time>
      </trkpt>
      <trkpt lat="43.57837" lon="3.32317">
        <ele>350.8</ele>
        <time>2016-06-29T17:25:32Z</time>
      </trkpt>
      <trkpt lat="43.57844" lon="3.32323">
        <ele>351.3</ele>
        <time>2016-06-29T17:25:36Z</time>
      </trkpt>
      <trkpt lat="43.57851" lon="3.32328">
        <ele>351.9</ele>
        <time>2016-06-29T17:25:40Z</time>
      </trkpt>
      <trkpt lat="43.57858" lon="3.32334">
        <ele>352.5</ele>
        <time>2016-06-29T17:25:44Z</time>
      </trkpt>
      <trkpt lat="43.57865" lon="3.32341">
        <ele>353.2</ele>
        <time>2016-06-29T17:25:49Z</time>
      </trkpt>
      <trkpt lat="43.57872" lon="3.32347">
        <ele>353.9</ele>
        <time>2016-06-29T17:25:53Z</time>
      </trkpt>
      <trkpt lat="43.57879" lon="3.32343">
        <ele>354.8</ele>
        <time>2016-06-29T17:25:57Z</time>
      </trkpt>
      <trkpt lat="43.57885" lon="3.32336">
        <ele>355.9</ele>
        <time>2016-06-29T17:26:01Z</time>
      </trkpt>
      <trkpt lat="43.5789" lon="3.32327">
        <ele>357</ele>
        <time>2016-06-29T17:26:05Z</time>
      </trkpt>
      <trkpt lat="43.57888" lon="3.32315">
        <ele>357.8</ele>
        <time>2016-06-29T17:26:10Z</time>
      </trkpt>
      <trkpt lat="43.57885" lon="3.32304">
        <ele>358.2</ele>
        <time>2016-06-29T17:26:13Z</time>
      </trkpt>
      <trkpt lat="43.57883" lon="3.32291">
        <ele>358.4</ele>
        <time>2016-06-29T17:26:16Z</time>
      </trkpt>
      <trkpt lat="43.57883" lon="3.32279">
        <ele>358.6</ele>
        <time>2016-06-29T17:26:18Z</time>
      </trkpt>
      <trkpt lat="43.57886" lon="3.32268">
        <ele>358.8</ele>
        <time>2016-06-29T17:26:21Z</time>
      </trkpt>
      <trkpt lat="43.57889" lon="3.32258">
        <ele>358.9</ele>
        <time>2016-06-29T17:26:24Z</time>
      </trkpt>
      <trkpt lat="43.57894" lon="3.32249">
        <ele>359</ele>
        <time>2016-06-29T17:26:27Z</time>
      </trkpt>
      <trkpt lat="43.57899" lon="3.3224">
        <ele>359.1</ele>
        <time>2016-06-29T17:26:30Z</time>
      </trkpt>
      <trkpt lat="43.57906" lon="3.32232">
        <ele>359.3</ele>
        <time>2016-06-29T17:26:33Z</time>
      </trkpt>
      <trkpt lat="43.57912" lon="3.32225">
        <ele>359.6</ele>
        <time>2016-06-29T17:26:36Z</time>
      </trkpt>
      <trkpt lat="43.57918" lon="3.32218">
        <ele>359.8</ele>
        <time>2016-06-29T17:26:39Z</time>
      </trkpt>
      <trkpt lat="43.5792" lon="3.32206">
        <ele>360</ele>
        <time>2016-06-29T17:26:42Z</time>
      </trkpt>
      <trkpt lat="43.57919" lon="3.32194">
        <ele>359.9</ele>
        <time>2016-06-29T17:26:45Z</time>
      </trkpt>
      <trkpt lat="43.57915" lon="3.32185">
        <ele>359.9</ele>
        <time>2016-06-29T17:26:48Z</time>
      </trkpt>
      <trkpt lat="43.57911" lon="3.32175">
        <ele>359.8</ele>
        <time>2016-06-29T17:26:51Z</time>
      </trkpt>
      <trkpt lat="43.57909" lon="3.32163">
        <ele>360</ele>
        <time>2016-06-29T17:26:55Z</time>
      </trkpt>
      <trkpt lat="43.57909" lon="3.32149">
        <ele>360.1</ele>
        <time>2016-06-29T17:26:58Z</time>
      </trkpt>
      <trkpt lat="43.57912" lon="3.32138">
        <ele>360.1</ele>
        <time>2016-06-29T17:27:01Z</time>
      </trkpt>
      <trkpt lat="43.57916" lon="3.32128">
        <ele>360.1</ele>
        <time>2016-06-29T17:27:04Z</time>
      </trkpt>
      <trkpt lat="43.57923" lon="3.3212">
        <ele>360.3</ele>
        <time>2016-06-29T17:27:08Z</time>
      </trkpt>
      <trkpt lat="43.5793" lon="3.32113">
        <ele>360.7</ele>
        <time>2016-06-29T17:27:12Z</time>
      </trkpt>
      <trkpt lat="43.57936" lon="3.32107">
        <ele>361</ele>
        <time>2016-06-29T17:27:16Z</time>
      </trkpt>
      <trkpt lat="43.57941" lon="3.32098">
        <ele>361.4</ele>
        <time>2016-06-29T17:27:19Z</time>
      </trkpt>
      <trkpt lat="43.57948" lon="3.3209">
        <ele>361.8</ele>
        <time>2016-06-29T17:27:22Z</time>
      </trkpt>
      <trkpt lat="43.57954" lon="3.32083">
        <ele>362.2</ele>
        <time>2016-06-29T17:27:26Z</time>
      </trkpt>
      <trkpt lat="43.5796" lon="3.32075">
        <ele>362.6</ele>
        <time>2016-06-29T17:27:30Z</time>
      </trkpt>
      <trkpt lat="43.57966" lon="3.32068">
        <ele>362.8</ele>
        <time>2016-06-29T17:27:34Z</time>
      </trkpt>
      <trkpt lat="43.57971" lon="3.32062">
        <ele>363.3</ele>
        <time>2016-06-29T17:27:37Z</time>
      </trkpt>
      <trkpt lat="43.57979" lon="3.32055">
        <ele>363.8</ele>
        <time>2016-06-29T17:27:41Z</time>
      </trkpt>
      <trkpt lat="43.57986" lon="3.32048">
        <ele>364.3</ele>
        <time>2016-06-29T17:27:46Z</time>
      </trkpt>
      <trkpt lat="43.57993" lon="3.32043">
        <ele>364.4</ele>
        <time>2016-06-29T17:27:50Z</time>
      </trkpt>
      <trkpt lat="43.58" lon="3.32038">
        <ele>364.7</ele>
        <time>2016-06-29T17:27:54Z</time>
      </trkpt>
      <trkpt lat="43.58006" lon="3.32031">
        <ele>365.3</ele>
        <time>2016-06-29T17:27:59Z</time>
      </trkpt>
      <trkpt lat="43.58011" lon="3.32024">
        <ele>366</ele>
        <time>2016-06-29T17:28:03Z</time>
      </trkpt>
      <trkpt lat="43.58016" lon="3.32017">
        <ele>366.6</ele>
        <time>2016-06-29T17:28:07Z</time>
      </trkpt>
      <trkpt lat="43.58023" lon="3.32011">
        <ele>367.5</ele>
        <time>2016-06-29T17:28:12Z</time>
      </trkpt>
      <trkpt lat="43.58031" lon="3.32004">
        <ele>368.1</ele>
        <time>2016-06-29T17:28:17Z</time>
      </trkpt>
      <trkpt lat="43.58038" lon="3.31998">
        <ele>368.7</ele>
        <time>2016-06-29T17:28:21Z</time>
      </trkpt>
      <trkpt lat="43.58045" lon="3.31996">
        <ele>369.3</ele>
        <time>2016-06-29T17:28:25Z</time>
      </trkpt>
      <trkpt lat="43.58053" lon="3.31996">
        <ele>369.9</ele>
        <time>2016-06-29T17:28:30Z</time>
      </trkpt>
      <trkpt lat="43.58061" lon="3.31999">
        <ele>370.4</ele>
        <time>2016-06-29T17:28:34Z</time>
      </trkpt>
      <trkpt lat="43.58069" lon="3.32004">
        <ele>370.7</ele>
        <time>2016-06-29T17:28:39Z</time>
      </trkpt>
      <trkpt lat="43.58076" lon="3.32008">
        <ele>371.1</ele>
        <time>2016-06-29T17:28:43Z</time>
      </trkpt>
      <trkpt lat="43.58084" lon="3.32009">
        <ele>372</ele>
        <time>2016-06-29T17:28:48Z</time>
      </trkpt>
      <trkpt lat="43.58092" lon="3.32013">
        <ele>373.1</ele>
        <time>2016-06-29T17:28:53Z</time>
      </trkpt>
      <trkpt lat="43.581" lon="3.32015">
        <ele>374</ele>
        <time>2016-06-29T17:28:58Z</time>
      </trkpt>
      <trkpt lat="43.58107" lon="3.32015">
        <ele>374.9</ele>
        <time>2016-06-29T17:29:02Z</time>
      </trkpt>
      <trkpt lat="43.58116" lon="3.32014">
        <ele>375.8</ele>
        <time>2016-06-29T17:29:06Z</time>
      </trkpt>
      <trkpt lat="43.58123" lon="3.3201">
        <ele>376.5</ele>
        <time>2016-06-29T17:29:10Z</time>
      </trkpt>
      <trkpt lat="43.58131" lon="3.32007">
        <ele>377.6</ele>
        <time>2016-06-29T17:29:15Z</time>
      </trkpt>
      <trkpt lat="43.58138" lon="3.32004">
        <ele>378.5</ele>
        <time>2016-06-29T17:29:20Z</time>
      </trkpt>
      <trkpt lat="43.58142" lon="3.32012">
        <ele>379.2</ele>
        <time>2016-06-29T17:29:27Z</time>
      </trkpt>
      <trkpt lat="43.58135" lon="3.32019">
        <ele>379.8</ele>
        <time>2016-06-29T17:29:33Z</time>
      </trkpt>
      <trkpt lat="43.58128" lon="3.32023">
        <ele>380.4</ele>
        <time>2016-06-29T17:29:37Z</time>
      </trkpt>
      <trkpt lat="43.58119" lon="3.32027">
        <ele>380.9</ele>
        <time>2016-06-29T17:29:42Z</time>
      </trkpt>
      <trkpt lat="43.58112" lon="3.32031">
        <ele>381.6</ele>
        <time>2016-06-29T17:29:46Z</time>
      </trkpt>
      <trkpt lat="43.58105" lon="3.32036">
        <ele>382.3</ele>
        <time>2016-06-29T17:29:50Z</time>
      </trkpt>
      <trkpt lat="43.58098" lon="3.3204">
        <ele>383.2</ele>
        <time>2016-06-29T17:29:54Z</time>
      </trkpt>
      <trkpt lat="43.58091" lon="3.32044">
        <ele>384</ele>
        <time>2016-06-29T17:29:59Z</time>
      </trkpt>
      <trkpt lat="43.58083" lon="3.32047">
        <ele>384.5</ele>
        <time>2016-06-29T17:30:03Z</time>
      </trkpt>
      <trkpt lat="43.58076" lon="3.3205">
        <ele>384.8</ele>
        <time>2016-06-29T17:30:06Z</time>
      </trkpt>
      <trkpt lat="43.58069" lon="3.32055">
        <ele>385.1</ele>
        <time>2016-06-29T17:30:09Z</time>
      </trkpt>
      <trkpt lat="43.58062" lon="3.3206">
        <ele>385.5</ele>
        <time>2016-06-29T17:30:12Z</time>
      </trkpt>
      <trkpt lat="43.58056" lon="3.32066">
        <ele>385.7</ele>
        <time>2016-06-29T17:30:15Z</time>
      </trkpt>
      <trkpt lat="43.5805" lon="3.32074">
        <ele>386</ele>
        <time>2016-06-29T17:30:18Z</time>
      </trkpt>
      <trkpt lat="43.58044" lon="3.32082">
        <ele>386.4</ele>
        <time>2016-06-29T17:30:22Z</time>
      </trkpt>
      <trkpt lat="43.58039" lon="3.32091">
        <ele>386.7</ele>
        <time>2016-06-29T17:30:25Z</time>
      </trkpt>
      <trkpt lat="43.58033" lon="3.32101">
        <ele>387</ele>
        <time>2016-06-29T17:30:29Z</time>
      </trkpt>
      <trkpt lat="43.5803" lon="3.3211">
        <ele>387.3</ele>
        <time>2016-06-29T17:30:32Z</time>
      </trkpt>
      <trkpt lat="43.58025" lon="3.3212">
        <ele>387.6</ele>
        <time>2016-06-29T17:30:35Z</time>
      </trkpt>
      <trkpt lat="43.58021" lon="3.32131">
        <ele>388</ele>
        <time>2016-06-29T17:30:39Z</time>
      </trkpt>
      <trkpt lat="43.58018" lon="3.32143">
        <ele>388.4</ele>
        <time>2016-06-29T17:30:43Z</time>
      </trkpt>
      <trkpt lat="43.58016" lon="3.32152">
        <ele>388.6</ele>
        <time>2016-06-29T17:30:46Z</time>
      </trkpt>
      <trkpt lat="43.58013" lon="3.32162">
        <ele>388.9</ele>
        <time>2016-06-29T17:30:49Z</time>
      </trkpt>
      <trkpt lat="43.5801" lon="3.32171">
        <ele>389.3</ele>
        <time>2016-06-29T17:30:52Z</time>
      </trkpt>
      <trkpt lat="43.58009" lon="3.32181">
        <ele>389.6</ele>
        <time>2016-06-29T17:30:55Z</time>
      </trkpt>
      <trkpt lat="43.58007" lon="3.32193">
        <ele>390</ele>
        <time>2016-06-29T17:30:59Z</time>
      </trkpt>
      <trkpt lat="43.58005" lon="3.32203">
        <ele>390.2</ele>
        <time>2016-06-29T17:31:02Z</time>
      </trkpt>
      <trkpt lat="43.58003" lon="3.32213">
        <ele>390.5</ele>
        <time>2016-06-29T17:31:05Z</time>
      </trkpt>
      <trkpt lat="43.58003" lon="3.32223">
        <ele>390.7</ele>
        <time>2016-06-29T17:31:08Z</time>
      </trkpt>
      <trkpt lat="43.58001" lon="3.32233">
        <ele>391</ele>
        <time>2016-06-29T17:31:11Z</time>
      </trkpt>
      <trkpt lat="43.58" lon="3.32244">
        <ele>391.3</ele>
        <time>2016-06-29T17:31:14Z</time>
      </trkpt>
      <trkpt lat="43.57999" lon="3.32255">
        <ele>391.4</ele>
        <time>2016-06-29T17:31:17Z</time>
      </trkpt>
      <trkpt lat="43.57998" lon="3.32267">
        <ele>391.7</ele>
        <time>2016-06-29T17:31:21Z</time>
      </trkpt>
      <trkpt lat="43.57995" lon="3.32277">
        <ele>391.9</ele>
        <time>2016-06-29T17:31:25Z</time>
      </trkpt>
      <trkpt lat="43.57992" lon="3.32287">
        <ele>392.3</ele>
        <time>2016-06-29T17:31:28Z</time>
      </trkpt>
      <trkpt lat="43.57989" lon="3.32296">
        <ele>392.5</ele>
        <time>2016-06-29T17:31:31Z</time>
      </trkpt>
      <trkpt lat="43.57985" lon="3.32306">
        <ele>392.9</ele>
        <time>2016-06-29T17:31:35Z</time>
      </trkpt>
      <trkpt lat="43.57981" lon="3.32316">
        <ele>393.6</ele>
        <time>2016-06-29T17:31:39Z</time>
      </trkpt>
      <trkpt lat="43.5798" lon="3.32327">
        <ele>394.2</ele>
        <time>2016-06-29T17:31:43Z</time>
      </trkpt>
      <trkpt lat="43.57978" lon="3.3234">
        <ele>394.8</ele>
        <time>2016-06-29T17:31:47Z</time>
      </trkpt>
      <trkpt lat="43.57978" lon="3.32352">
        <ele>395.4</ele>
        <time>2016-06-29T17:31:51Z</time>
      </trkpt>
      <trkpt lat="43.57979" lon="3.32363">
        <ele>395.9</ele>
        <time>2016-06-29T17:31:55Z</time>
      </trkpt>
      <trkpt lat="43.57979" lon="3.32374">
        <ele>396.3</ele>
        <time>2016-06-29T17:31:58Z</time>
      </trkpt>
      <trkpt lat="43.57978" lon="3.32385">
        <ele>397.1</ele>
        <time>2016-06-29T17:32:02Z</time>
      </trkpt>
      <trkpt lat="43.57977" lon="3.32397">
        <ele>397.8</ele>
        <time>2016-06-29T17:32:06Z</time>
      </trkpt>
      <trkpt lat="43.57974" lon="3.32409">
        <ele>398.5</ele>
        <time>2016-06-29T17:32:10Z</time>
      </trkpt>
      <trkpt lat="43.57972" lon="3.3242">
        <ele>399.1</ele>
        <time>2016-06-29T17:32:14Z</time>
      </trkpt>
      <trkpt lat="43.57967" lon="3.3243">
        <ele>399.7</ele>
        <time>2016-06-29T17:32:18Z</time>
      </trkpt>
      <trkpt lat="43.57965" lon="3.32441">
        <ele>400.4</ele>
        <time>2016-06-29T17:32:22Z</time>
      </trkpt>
      <trkpt lat="43.57962" lon="3.32452">
        <ele>401.2</ele>
        <time>2016-06-29T17:32:27Z</time>
      </trkpt>
      <trkpt lat="43.57956" lon="3.3246">
        <ele>401.8</ele>
        <time>2016-06-29T17:32:31Z</time>
      </trkpt>
      <trkpt lat="43.5795" lon="3.32468">
        <ele>402.3</ele>
        <time>2016-06-29T17:32:35Z</time>
      </trkpt>
      <trkpt lat="43.57945" lon="3.32476">
        <ele>402.7</ele>
        <time>2016-06-29T17:32:38Z</time>
      </trkpt>
      <trkpt lat="43.57937" lon="3.32483">
        <ele>403.1</ele>
        <time>2016-06-29T17:32:41Z</time>
      </trkpt>
      <trkpt lat="43.57928" lon="3.32489">
        <ele>403.4</ele>
        <time>2016-06-29T17:32:44Z</time>
      </trkpt>
      <trkpt lat="43.57921" lon="3.32494">
        <ele>405.6</ele>
        <time>2016-06-29T17:32:46Z</time>
      </trkpt>
      <trkpt lat="43.57914" lon="3.325">
        <ele>407.1</ele>
        <time>2016-06-29T17:32:48Z</time>
      </trkpt>
      <trkpt lat="43.57906" lon="3.32505">
        <ele>408</ele>
        <time>2016-06-29T17:32:50Z</time>
      </trkpt>
      <trkpt lat="43.57899" lon="3.32508">
        <ele>408.4</ele>
        <time>2016-06-29T17:32:52Z</time>
      </trkpt>
      <trkpt lat="43.57889" lon="3.32512">
        <ele>407.7</ele>
        <time>2016-06-29T17:32:55Z</time>
      </trkpt>
      <trkpt lat="43.57879" lon="3.32516">
        <ele>407.1</ele>
        <time>2016-06-29T17:32:58Z</time>
      </trkpt>
      <trkpt lat="43.57872" lon="3.32518">
        <ele>407.2</ele>
        <time>2016-06-29T17:33:00Z</time>
      </trkpt>
      <trkpt lat="43.57863" lon="3.32522">
        <ele>407.3</ele>
        <time>2016-06-29T17:33:02Z</time>
      </trkpt>
      <trkpt lat="43.57856" lon="3.32525">
        <ele>407.4</ele>
        <time>2016-06-29T17:33:04Z</time>
      </trkpt>
      <trkpt lat="43.57848" lon="3.3253">
        <ele>407.4</ele>
        <time>2016-06-29T17:33:07Z</time>
      </trkpt>
      <trkpt lat="43.57838" lon="3.32535">
        <ele>407.5</ele>
        <time>2016-06-29T17:33:10Z</time>
      </trkpt>
      <trkpt lat="43.57831" lon="3.32538">
        <ele>407.6</ele>
        <time>2016-06-29T17:33:12Z</time>
      </trkpt>
      <trkpt lat="43.57822" lon="3.32542">
        <ele>407.8</ele>
        <time>2016-06-29T17:33:15Z</time>
      </trkpt>
      <trkpt lat="43.57817" lon="3.32548">
        <ele>408.3</ele>
        <time>2016-06-29T17:33:22Z</time>
      </trkpt>
      <trkpt lat="43.57816" lon="3.32552">
        <ele>408.6</ele>
        <time>2016-06-29T17:33:35Z</time>
      </trkpt>
      <trkpt lat="43.57817" lon="3.32547">
        <ele>409.1</ele>
        <time>2016-06-29T17:34:01Z</time>
      </trkpt>
      <trkpt lat="43.57815" lon="3.32551">
        <ele>409.3</ele>
        <time>2016-06-29T17:34:11Z</time>
      </trkpt>
      <trkpt lat="43.57809" lon="3.32556">
        <ele>410.5</ele>
        <time>2016-06-29T17:36:33Z</time>
      </trkpt>
      <trkpt lat="43.57801" lon="3.32564">
        <ele>410.2</ele>
        <time>2016-06-29T17:36:35Z</time>
      </trkpt>
      <trkpt lat="43.57793" lon="3.32573">
        <ele>410</ele>
        <time>2016-06-29T17:36:37Z</time>
      </trkpt>
      <trkpt lat="43.57786" lon="3.32582">
        <ele>409.9</ele>
        <time>2016-06-29T17:36:39Z</time>
      </trkpt>
      <trkpt lat="43.5778" lon="3.32592">
        <ele>409.6</ele>
        <time>2016-06-29T17:36:41Z</time>
      </trkpt>
      <trkpt lat="43.57773" lon="3.32605">
        <ele>409.6</ele>
        <time>2016-06-29T17:36:43Z</time>
      </trkpt>
      <trkpt lat="43.57768" lon="3.32617">
        <ele>409.7</ele>
        <time>2016-06-29T17:36:45Z</time>
      </trkpt>
      <trkpt lat="43.57761" lon="3.32627">
        <ele>409.8</ele>
        <time>2016-06-29T17:36:47Z</time>
      </trkpt>
      <trkpt lat="43.57753" lon="3.32641">
        <ele>410.1</ele>
        <time>2016-06-29T17:36:49Z</time>
      </trkpt>
      <trkpt lat="43.57744" lon="3.32654">
        <ele>410.7</ele>
        <time>2016-06-29T17:36:51Z</time>
      </trkpt>
      <trkpt lat="43.57739" lon="3.32662">
        <ele>410.9</ele>
        <time>2016-06-29T17:36:52Z</time>
      </trkpt>
      <trkpt lat="43.57726" lon="3.32673">
        <ele>410.3</ele>
        <time>2016-06-29T17:36:54Z</time>
      </trkpt>
      <trkpt lat="43.57715" lon="3.32681">
        <ele>409.4</ele>
        <time>2016-06-29T17:36:56Z</time>
      </trkpt>
      <trkpt lat="43.57701" lon="3.32688">
        <ele>408.6</ele>
        <time>2016-06-29T17:36:58Z</time>
      </trkpt>
      <trkpt lat="43.57693" lon="3.32692">
        <ele>408.1</ele>
        <time>2016-06-29T17:36:59Z</time>
      </trkpt>
      <trkpt lat="43.57686" lon="3.32695">
        <ele>407.6</ele>
        <time>2016-06-29T17:37:00Z</time>
      </trkpt>
      <trkpt lat="43.57678" lon="3.32699">
        <ele>407</ele>
        <time>2016-06-29T17:37:01Z</time>
      </trkpt>
      <trkpt lat="43.57672" lon="3.32705">
        <ele>406.4</ele>
        <time>2016-06-29T17:37:02Z</time>
      </trkpt>
      <trkpt lat="43.57658" lon="3.32716">
        <ele>405.5</ele>
        <time>2016-06-29T17:37:04Z</time>
      </trkpt>
      <trkpt lat="43.57649" lon="3.32721">
        <ele>405.1</ele>
        <time>2016-06-29T17:37:05Z</time>
      </trkpt>
      <trkpt lat="43.57642" lon="3.32726">
        <ele>404.7</ele>
        <time>2016-06-29T17:37:06Z</time>
      </trkpt>
      <trkpt lat="43.57633" lon="3.32731">
        <ele>404.3</ele>
        <time>2016-06-29T17:37:07Z</time>
      </trkpt>
      <trkpt lat="43.57626" lon="3.32735">
        <ele>404.3</ele>
        <time>2016-06-29T17:37:08Z</time>
      </trkpt>
      <trkpt lat="43.57616" lon="3.32739">
        <ele>404.2</ele>
        <time>2016-06-29T17:37:10Z</time>
      </trkpt>
      <trkpt lat="43.57607" lon="3.32743">
        <ele>402.4</ele>
        <time>2016-06-29T17:37:12Z</time>
      </trkpt>
      <trkpt lat="43.57598" lon="3.32747">
        <ele>400.1</ele>
        <time>2016-06-29T17:37:14Z</time>
      </trkpt>
      <trkpt lat="43.57591" lon="3.32753">
        <ele>399.9</ele>
        <time>2016-06-29T17:37:16Z</time>
      </trkpt>
      <trkpt lat="43.57581" lon="3.32758">
        <ele>399.4</ele>
        <time>2016-06-29T17:37:18Z</time>
      </trkpt>
      <trkpt lat="43.57571" lon="3.32769">
        <ele>396.8</ele>
        <time>2016-06-29T17:37:21Z</time>
      </trkpt>
      <trkpt lat="43.5756" lon="3.32785">
        <ele>395.7</ele>
        <time>2016-06-29T17:37:23Z</time>
      </trkpt>
      <trkpt lat="43.57554" lon="3.32793">
        <ele>395.1</ele>
        <time>2016-06-29T17:37:24Z</time>
      </trkpt>
      <trkpt lat="43.57549" lon="3.32799">
        <ele>394.5</ele>
        <time>2016-06-29T17:37:25Z</time>
      </trkpt>
      <trkpt lat="43.57543" lon="3.32805">
        <ele>393.6</ele>
        <time>2016-06-29T17:37:26Z</time>
      </trkpt>
      <trkpt lat="43.57535" lon="3.32813">
        <ele>392.4</ele>
        <time>2016-06-29T17:37:27Z</time>
      </trkpt>
      <trkpt lat="43.57527" lon="3.32821">
        <ele>391.7</ele>
        <time>2016-06-29T17:37:28Z</time>
      </trkpt>
      <trkpt lat="43.5752" lon="3.3283">
        <ele>390.5</ele>
        <time>2016-06-29T17:37:29Z</time>
      </trkpt>
      <trkpt lat="43.57511" lon="3.32838">
        <ele>388.8</ele>
        <time>2016-06-29T17:37:30Z</time>
      </trkpt>
      <trkpt lat="43.57505" lon="3.32845">
        <ele>386.9</ele>
        <time>2016-06-29T17:37:31Z</time>
      </trkpt>
      <trkpt lat="43.57499" lon="3.32851">
        <ele>385.1</ele>
        <time>2016-06-29T17:37:32Z</time>
      </trkpt>
      <trkpt lat="43.57486" lon="3.32863">
        <ele>382.6</ele>
        <time>2016-06-29T17:37:34Z</time>
      </trkpt>
      <trkpt lat="43.5748" lon="3.3287">
        <ele>381.6</ele>
        <time>2016-06-29T17:37:35Z</time>
      </trkpt>
      <trkpt lat="43.57473" lon="3.32876">
        <ele>380.8</ele>
        <time>2016-06-29T17:37:36Z</time>
      </trkpt>
      <trkpt lat="43.57463" lon="3.32888">
        <ele>379.9</ele>
        <time>2016-06-29T17:37:38Z</time>
      </trkpt>
      <trkpt lat="43.57452" lon="3.329">
        <ele>378.4</ele>
        <time>2016-06-29T17:37:40Z</time>
      </trkpt>
      <trkpt lat="43.57441" lon="3.3291">
        <ele>376.8</ele>
        <time>2016-06-29T17:37:42Z</time>
      </trkpt>
      <trkpt lat="43.57432" lon="3.32923">
        <ele>375</ele>
        <time>2016-06-29T17:37:44Z</time>
      </trkpt>
      <trkpt lat="43.57427" lon="3.32937">
        <ele>373.7</ele>
        <time>2016-06-29T17:37:46Z</time>
      </trkpt>
      <trkpt lat="43.57421" lon="3.32951">
        <ele>372.4</ele>
        <time>2016-06-29T17:37:48Z</time>
      </trkpt>
      <trkpt lat="43.57416" lon="3.32966">
        <ele>370.2</ele>
        <time>2016-06-29T17:37:50Z</time>
      </trkpt>
      <trkpt lat="43.57412" lon="3.32979">
        <ele>369.3</ele>
        <time>2016-06-29T17:37:52Z</time>
      </trkpt>
      <trkpt lat="43.57409" lon="3.3299">
        <ele>368.2</ele>
        <time>2016-06-29T17:37:54Z</time>
      </trkpt>
      <trkpt lat="43.57407" lon="3.33">
        <ele>367.8</ele>
        <time>2016-06-29T17:37:56Z</time>
      </trkpt>
      <trkpt lat="43.57403" lon="3.33011">
        <ele>367.4</ele>
        <time>2016-06-29T17:37:58Z</time>
      </trkpt>
      <trkpt lat="43.574" lon="3.33023">
        <ele>367</ele>
        <time>2016-06-29T17:38:00Z</time>
      </trkpt>
      <trkpt lat="43.57395" lon="3.33034">
        <ele>364</ele>
        <time>2016-06-29T17:38:02Z</time>
      </trkpt>
      <trkpt lat="43.57389" lon="3.33045">
        <ele>363.3</ele>
        <time>2016-06-29T17:38:05Z</time>
      </trkpt>
      <trkpt lat="43.57385" lon="3.33058">
        <ele>362.8</ele>
        <time>2016-06-29T17:38:08Z</time>
      </trkpt>
      <trkpt lat="43.5738" lon="3.33071">
        <ele>362.1</ele>
        <time>2016-06-29T17:38:11Z</time>
      </trkpt>
      <trkpt lat="43.57379" lon="3.33075">
        <ele>361.2</ele>
        <time>2016-06-29T17:38:18Z</time>
      </trkpt>
      <trkpt lat="43.57377" lon="3.33085">
        <ele>360</ele>
        <time>2016-06-29T17:38:26Z</time>
      </trkpt>
      <trkpt lat="43.57376" lon="3.331">
        <ele>359.2</ele>
        <time>2016-06-29T17:38:29Z</time>
      </trkpt>
      <trkpt lat="43.57374" lon="3.3311">
        <ele>358.1</ele>
        <time>2016-06-29T17:38:33Z</time>
      </trkpt>
      <trkpt lat="43.57366" lon="3.33118">
        <ele>357.2</ele>
        <time>2016-06-29T17:38:36Z</time>
      </trkpt>
      <trkpt lat="43.57357" lon="3.33125">
        <ele>355.9</ele>
        <time>2016-06-29T17:38:40Z</time>
      </trkpt>
      <trkpt lat="43.57353" lon="3.33134">
        <ele>355.2</ele>
        <time>2016-06-29T17:38:42Z</time>
      </trkpt>
      <trkpt lat="43.57345" lon="3.33144">
        <ele>349.3</ele>
        <time>2016-06-29T17:38:44Z</time>
      </trkpt>
      <trkpt lat="43.57337" lon="3.33158">
        <ele>344.2</ele>
        <time>2016-06-29T17:38:46Z</time>
      </trkpt>
      <trkpt lat="43.57329" lon="3.33172">
        <ele>339</ele>
        <time>2016-06-29T17:38:48Z</time>
      </trkpt>
      <trkpt lat="43.5732" lon="3.33187">
        <ele>336.2</ele>
        <time>2016-06-29T17:38:50Z</time>
      </trkpt>
      <trkpt lat="43.57313" lon="3.33201">
        <ele>332.3</ele>
        <time>2016-06-29T17:38:52Z</time>
      </trkpt>
      <trkpt lat="43.57308" lon="3.33211">
        <ele>330.5</ele>
        <time>2016-06-29T17:38:53Z</time>
      </trkpt>
      <trkpt lat="43.57304" lon="3.33221">
        <ele>328.6</ele>
        <time>2016-06-29T17:38:54Z</time>
      </trkpt>
      <trkpt lat="43.573" lon="3.3323">
        <ele>326.7</ele>
        <time>2016-06-29T17:38:55Z</time>
      </trkpt>
      <trkpt lat="43.57296" lon="3.33239">
        <ele>325</ele>
        <time>2016-06-29T17:38:56Z</time>
      </trkpt>
      <trkpt lat="43.57294" lon="3.33249">
        <ele>323.5</ele>
        <time>2016-06-29T17:38:57Z</time>
      </trkpt>
      <trkpt lat="43.57291" lon="3.33259">
        <ele>322.2</ele>
        <time>2016-06-29T17:38:58Z</time>
      </trkpt>
      <trkpt lat="43.5729" lon="3.33272">
        <ele>320.8</ele>
        <time>2016-06-29T17:39:00Z</time>
      </trkpt>
      <trkpt lat="43.57286" lon="3.33286">
        <ele>319.4</ele>
        <time>2016-06-29T17:39:02Z</time>
      </trkpt>
      <trkpt lat="43.57281" lon="3.33299">
        <ele>317.8</ele>
        <time>2016-06-29T17:39:04Z</time>
      </trkpt>
      <trkpt lat="43.57273" lon="3.33309">
        <ele>315.8</ele>
        <time>2016-06-29T17:39:06Z</time>
      </trkpt>
      <trkpt lat="43.57265" lon="3.33325">
        <ele>313.4</ele>
        <time>2016-06-29T17:39:08Z</time>
      </trkpt>
      <trkpt lat="43.57258" lon="3.33336">
        <ele>312.1</ele>
        <time>2016-06-29T17:39:10Z</time>
      </trkpt>
      <trkpt lat="43.57251" lon="3.33349">
        <ele>309.9</ele>
        <time>2016-06-29T17:39:13Z</time>
      </trkpt>
      <trkpt lat="43.57242" lon="3.33357">
        <ele>306.8</ele>
        <time>2016-06-29T17:39:15Z</time>
      </trkpt>
      <trkpt lat="43.5724" lon="3.33359">
        <ele>306.4</ele>
        <time>2016-06-29T17:39:22Z</time>
      </trkpt>
      <trkpt lat="43.57237" lon="3.33368">
        <ele>303.9</ele>
        <time>2016-06-29T17:38:58Z</time>
      </trkpt>
      <trkpt lat="43.57233" lon="3.33381">
        <ele>301.6</ele>
        <time>2016-06-29T17:40:07Z</time>
      </trkpt>
      <trkpt lat="43.5723" lon="3.33393">
        <ele>300.1</ele>
        <time>2016-06-29T17:40:09Z</time>
      </trkpt>
      <trkpt lat="43.57228" lon="3.33409">
        <ele>299.1</ele>
        <time>2016-06-29T17:40:11Z</time>
      </trkpt>
      <trkpt lat="43.57226" lon="3.33425">
        <ele>298.1</ele>
        <time>2016-06-29T17:40:13Z</time>
      </trkpt>
      <trkpt lat="43.57224" lon="3.33445">
        <ele>296.8</ele>
        <time>2016-06-29T17:40:15Z</time>
      </trkpt>
      <trkpt lat="43.57224" lon="3.33457">
        <ele>296.3</ele>
        <time>2016-06-29T17:40:16Z</time>
      </trkpt>
      <trkpt lat="43.57223" lon="3.33468">
        <ele>295.6</ele>
        <time>2016-06-29T17:40:17Z</time>
      </trkpt>
      <trkpt lat="43.57222" lon="3.33481">
        <ele>294.8</ele>
        <time>2016-06-29T17:40:18Z</time>
      </trkpt>
      <trkpt lat="43.57222" lon="3.33495">
        <ele>294</ele>
        <time>2016-06-29T17:40:19Z</time>
      </trkpt>
      <trkpt lat="43.57222" lon="3.33507">
        <ele>293.5</ele>
        <time>2016-06-29T17:40:20Z</time>
      </trkpt>
      <trkpt lat="43.57222" lon="3.33517">
        <ele>293.1</ele>
        <time>2016-06-29T17:40:21Z</time>
      </trkpt>
      <trkpt lat="43.57223" lon="3.33531">
        <ele>292.3</ele>
        <time>2016-06-29T17:40:23Z</time>
      </trkpt>
      <trkpt lat="43.57222" lon="3.33545">
        <ele>292.3</ele>
        <time>2016-06-29T17:40:26Z</time>
      </trkpt>
      <trkpt lat="43.57222" lon="3.33557">
        <ele>292.4</ele>
        <time>2016-06-29T17:40:29Z</time>
      </trkpt>
      <trkpt lat="43.57222" lon="3.33569">
        <ele>292.4</ele>
        <time>2016-06-29T17:40:32Z</time>
      </trkpt>
      <trkpt lat="43.57221" lon="3.3358">
        <ele>292.6</ele>
        <time>2016-06-29T17:40:36Z</time>
      </trkpt>
      <trkpt lat="43.5722" lon="3.3359">
        <ele>292.8</ele>
        <time>2016-06-29T17:40:39Z</time>
      </trkpt>
      <trkpt lat="43.57221" lon="3.33602">
        <ele>293.3</ele>
        <time>2016-06-29T17:40:43Z</time>
      </trkpt>
      <trkpt lat="43.57223" lon="3.33613">
        <ele>293.7</ele>
        <time>2016-06-29T17:40:47Z</time>
      </trkpt>
      <trkpt lat="43.57228" lon="3.33623">
        <ele>294.2</ele>
        <time>2016-06-29T17:40:52Z</time>
      </trkpt>
      <trkpt lat="43.57232" lon="3.33632">
        <ele>294.9</ele>
        <time>2016-06-29T17:40:57Z</time>
      </trkpt>
      <trkpt lat="43.57237" lon="3.3364">
        <ele>295.5</ele>
        <time>2016-06-29T17:41:01Z</time>
      </trkpt>
      <trkpt lat="43.57244" lon="3.33648">
        <ele>296.3</ele>
        <time>2016-06-29T17:41:06Z</time>
      </trkpt>
      <trkpt lat="43.57252" lon="3.33654">
        <ele>297.2</ele>
        <time>2016-06-29T17:41:11Z</time>
      </trkpt>
      <trkpt lat="43.57261" lon="3.33655">
        <ele>298.1</ele>
        <time>2016-06-29T17:41:16Z</time>
      </trkpt>
      <trkpt lat="43.57269" lon="3.33654">
        <ele>298.7</ele>
        <time>2016-06-29T17:41:20Z</time>
      </trkpt>
      <trkpt lat="43.57277" lon="3.33654">
        <ele>299.3</ele>
        <time>2016-06-29T17:41:24Z</time>
      </trkpt>
      <trkpt lat="43.57286" lon="3.33653">
        <ele>299.7</ele>
        <time>2016-06-29T17:41:28Z</time>
      </trkpt>
      <trkpt lat="43.57293" lon="3.3365">
        <ele>300.2</ele>
        <time>2016-06-29T17:41:32Z</time>
      </trkpt>
      <trkpt lat="43.573" lon="3.33647">
        <ele>300.6</ele>
        <time>2016-06-29T17:41:35Z</time>
      </trkpt>
      <trkpt lat="43.57309" lon="3.33644">
        <ele>301.1</ele>
        <time>2016-06-29T17:41:38Z</time>
      </trkpt>
      <trkpt lat="43.57317" lon="3.33641">
        <ele>301.6</ele>
        <time>2016-06-29T17:41:41Z</time>
      </trkpt>
      <trkpt lat="43.57326" lon="3.33639">
        <ele>302</ele>
        <time>2016-06-29T17:41:44Z</time>
      </trkpt>
      <trkpt lat="43.57335" lon="3.33637">
        <ele>302.4</ele>
        <time>2016-06-29T17:41:48Z</time>
      </trkpt>
      <trkpt lat="43.57343" lon="3.33634">
        <ele>302.6</ele>
        <time>2016-06-29T17:41:51Z</time>
      </trkpt>
      <trkpt lat="43.57351" lon="3.33632">
        <ele>302.9</ele>
        <time>2016-06-29T17:41:54Z</time>
      </trkpt>
      <trkpt lat="43.57361" lon="3.3363">
        <ele>303.3</ele>
        <time>2016-06-29T17:41:58Z</time>
      </trkpt>
      <trkpt lat="43.57371" lon="3.33629">
        <ele>303.9</ele>
        <time>2016-06-29T17:42:01Z</time>
      </trkpt>
      <trkpt lat="43.57378" lon="3.33627">
        <ele>304.1</ele>
        <time>2016-06-29T17:42:03Z</time>
      </trkpt>
      <trkpt lat="43.57388" lon="3.33623">
        <ele>304.9</ele>
        <time>2016-06-29T17:42:06Z</time>
      </trkpt>
      <trkpt lat="43.57395" lon="3.33618">
        <ele>306.4</ele>
        <time>2016-06-29T17:42:08Z</time>
      </trkpt>
      <trkpt lat="43.57401" lon="3.33612">
        <ele>307.9</ele>
        <time>2016-06-29T17:42:10Z</time>
      </trkpt>
      <trkpt lat="43.57406" lon="3.33603">
        <ele>308.4</ele>
        <time>2016-06-29T17:42:12Z</time>
      </trkpt>
      <trkpt lat="43.57412" lon="3.33592">
        <ele>307.8</ele>
        <time>2016-06-29T17:42:14Z</time>
      </trkpt>
      <trkpt lat="43.5742" lon="3.33577">
        <ele>307.5</ele>
        <time>2016-06-29T17:42:16Z</time>
      </trkpt>
      <trkpt lat="43.57427" lon="3.33564">
        <ele>307.2</ele>
        <time>2016-06-29T17:42:18Z</time>
      </trkpt>
      <trkpt lat="43.57435" lon="3.33552">
        <ele>307.1</ele>
        <time>2016-06-29T17:42:20Z</time>
      </trkpt>
      <trkpt lat="43.57443" lon="3.33542">
        <ele>307.5</ele>
        <time>2016-06-29T17:42:22Z</time>
      </trkpt>
      <trkpt lat="43.57451" lon="3.33535">
        <ele>307.6</ele>
        <time>2016-06-29T17:42:24Z</time>
      </trkpt>
      <trkpt lat="43.57461" lon="3.33528">
        <ele>308.4</ele>
        <time>2016-06-29T17:42:26Z</time>
      </trkpt>
      <trkpt lat="43.57472" lon="3.33521">
        <ele>309.8</ele>
        <time>2016-06-29T17:42:28Z</time>
      </trkpt>
      <trkpt lat="43.57483" lon="3.33515">
        <ele>310.4</ele>
        <time>2016-06-29T17:42:30Z</time>
      </trkpt>
      <trkpt lat="43.57494" lon="3.3351">
        <ele>310.9</ele>
        <time>2016-06-29T17:42:32Z</time>
      </trkpt>
      <trkpt lat="43.57505" lon="3.33508">
        <ele>310.8</ele>
        <time>2016-06-29T17:42:34Z</time>
      </trkpt>
      <trkpt lat="43.57517" lon="3.33505">
        <ele>311</ele>
        <time>2016-06-29T17:42:36Z</time>
      </trkpt>
      <trkpt lat="43.57533" lon="3.33501">
        <ele>310.5</ele>
        <time>2016-06-29T17:42:38Z</time>
      </trkpt>
      <trkpt lat="43.57546" lon="3.33497">
        <ele>309.8</ele>
        <time>2016-06-29T17:42:40Z</time>
      </trkpt>
      <trkpt lat="43.57557" lon="3.33489">
        <ele>308.8</ele>
        <time>2016-06-29T17:42:42Z</time>
      </trkpt>
      <trkpt lat="43.57569" lon="3.33478">
        <ele>308.1</ele>
        <time>2016-06-29T17:42:44Z</time>
      </trkpt>
      <trkpt lat="43.57575" lon="3.33472">
        <ele>307.5</ele>
        <time>2016-06-29T17:42:45Z</time>
      </trkpt>
      <trkpt lat="43.57581" lon="3.33465">
        <ele>307.1</ele>
        <time>2016-06-29T17:42:46Z</time>
      </trkpt>
      <trkpt lat="43.57591" lon="3.33454">
        <ele>306.4</ele>
        <time>2016-06-29T17:42:48Z</time>
      </trkpt>
      <trkpt lat="43.576" lon="3.33445">
        <ele>306.1</ele>
        <time>2016-06-29T17:42:50Z</time>
      </trkpt>
      <trkpt lat="43.5761" lon="3.33443">
        <ele>305.8</ele>
        <time>2016-06-29T17:42:52Z</time>
      </trkpt>
      <trkpt lat="43.57617" lon="3.33444">
        <ele>305.8</ele>
        <time>2016-06-29T17:42:54Z</time>
      </trkpt>
      <trkpt lat="43.57628" lon="3.33449">
        <ele>305.8</ele>
        <time>2016-06-29T17:42:57Z</time>
      </trkpt>
      <trkpt lat="43.57636" lon="3.33457">
        <ele>305.8</ele>
        <time>2016-06-29T17:43:00Z</time>
      </trkpt>
      <trkpt lat="43.57642" lon="3.33464">
        <ele>305.9</ele>
        <time>2016-06-29T17:43:03Z</time>
      </trkpt>
      <trkpt lat="43.57645" lon="3.33476">
        <ele>306.1</ele>
        <time>2016-06-29T17:43:06Z</time>
      </trkpt>
      <trkpt lat="43.57648" lon="3.33488">
        <ele>306.4</ele>
        <time>2016-06-29T17:43:09Z</time>
      </trkpt>
      <trkpt lat="43.57651" lon="3.33499">
        <ele>306.7</ele>
        <time>2016-06-29T17:43:12Z</time>
      </trkpt>
      <trkpt lat="43.57656" lon="3.3351">
        <ele>306.7</ele>
        <time>2016-06-29T17:43:15Z</time>
      </trkpt>
      <trkpt lat="43.5766" lon="3.33518">
        <ele>306.9</ele>
        <time>2016-06-29T17:43:18Z</time>
      </trkpt>
      <trkpt lat="43.57666" lon="3.33526">
        <ele>307</ele>
        <time>2016-06-29T17:43:21Z</time>
      </trkpt>
      <trkpt lat="43.57675" lon="3.33529">
        <ele>307.2</ele>
        <time>2016-06-29T17:43:25Z</time>
      </trkpt>
      <trkpt lat="43.57684" lon="3.33525">
        <ele>307.4</ele>
        <time>2016-06-29T17:43:28Z</time>
      </trkpt>
      <trkpt lat="43.57692" lon="3.33518">
        <ele>307.5</ele>
        <time>2016-06-29T17:43:31Z</time>
      </trkpt>
      <trkpt lat="43.57698" lon="3.33512">
        <ele>307.6</ele>
        <time>2016-06-29T17:43:33Z</time>
      </trkpt>
      <trkpt lat="43.57706" lon="3.33503">
        <ele>307.7</ele>
        <time>2016-06-29T17:43:36Z</time>
      </trkpt>
      <trkpt lat="43.57713" lon="3.33494">
        <ele>307.9</ele>
        <time>2016-06-29T17:43:39Z</time>
      </trkpt>
      <trkpt lat="43.57719" lon="3.33487">
        <ele>308.1</ele>
        <time>2016-06-29T17:43:41Z</time>
      </trkpt>
      <trkpt lat="43.57726" lon="3.33476">
        <ele>309.7</ele>
        <time>2016-06-29T17:43:44Z</time>
      </trkpt>
      <trkpt lat="43.57732" lon="3.3347">
        <ele>311</ele>
        <time>2016-06-29T17:43:46Z</time>
      </trkpt>
      <trkpt lat="43.57739" lon="3.33463">
        <ele>311.3</ele>
        <time>2016-06-29T17:43:48Z</time>
      </trkpt>
      <trkpt lat="43.57746" lon="3.33455">
        <ele>312.4</ele>
        <time>2016-06-29T17:43:50Z</time>
      </trkpt>
      <trkpt lat="43.57753" lon="3.33448">
        <ele>313</ele>
        <time>2016-06-29T17:43:52Z</time>
      </trkpt>
      <trkpt lat="43.57762" lon="3.33441">
        <ele>313.6</ele>
        <time>2016-06-29T17:43:54Z</time>
      </trkpt>
      <trkpt lat="43.57772" lon="3.33434">
        <ele>314.3</ele>
        <time>2016-06-29T17:43:56Z</time>
      </trkpt>
      <trkpt lat="43.57781" lon="3.33428">
        <ele>315</ele>
        <time>2016-06-29T17:43:58Z</time>
      </trkpt>
      <trkpt lat="43.57791" lon="3.33423">
        <ele>314.4</ele>
        <time>2016-06-29T17:44:00Z</time>
      </trkpt>
      <trkpt lat="43.57802" lon="3.33417">
        <ele>314.4</ele>
        <time>2016-06-29T17:44:02Z</time>
      </trkpt>
      <trkpt lat="43.57811" lon="3.33412">
        <ele>314.1</ele>
        <time>2016-06-29T17:44:04Z</time>
      </trkpt>
      <trkpt lat="43.57822" lon="3.33406">
        <ele>313.9</ele>
        <time>2016-06-29T17:44:06Z</time>
      </trkpt>
      <trkpt lat="43.57832" lon="3.33399">
        <ele>313.9</ele>
        <time>2016-06-29T17:44:08Z</time>
      </trkpt>
      <trkpt lat="43.57842" lon="3.33391">
        <ele>314.2</ele>
        <time>2016-06-29T17:44:10Z</time>
      </trkpt>
      <trkpt lat="43.5785" lon="3.33383">
        <ele>315.3</ele>
        <time>2016-06-29T17:44:12Z</time>
      </trkpt>
      <trkpt lat="43.5786" lon="3.33373">
        <ele>315.3</ele>
        <time>2016-06-29T17:44:14Z</time>
      </trkpt>
      <trkpt lat="43.57867" lon="3.33361">
        <ele>313.7</ele>
        <time>2016-06-29T17:44:16Z</time>
      </trkpt>
      <trkpt lat="43.57873" lon="3.33348">
        <ele>311.9</ele>
        <time>2016-06-29T17:44:18Z</time>
      </trkpt>
      <trkpt lat="43.57876" lon="3.33336">
        <ele>310.1</ele>
        <time>2016-06-29T17:44:20Z</time>
      </trkpt>
      <trkpt lat="43.57878" lon="3.33327">
        <ele>309.1</ele>
        <time>2016-06-29T17:44:22Z</time>
      </trkpt>
      <trkpt lat="43.57881" lon="3.33315">
        <ele>309</ele>
        <time>2016-06-29T17:44:24Z</time>
      </trkpt>
      <trkpt lat="43.57883" lon="3.33303">
        <ele>308.8</ele>
        <time>2016-06-29T17:44:27Z</time>
      </trkpt>
      <trkpt lat="43.57886" lon="3.33291">
        <ele>308.8</ele>
        <time>2016-06-29T17:44:30Z</time>
      </trkpt>
      <trkpt lat="43.57891" lon="3.33281">
        <ele>309</ele>
        <time>2016-06-29T17:44:33Z</time>
      </trkpt>
      <trkpt lat="43.57894" lon="3.33272">
        <ele>309.3</ele>
        <time>2016-06-29T17:44:36Z</time>
      </trkpt>
      <trkpt lat="43.579" lon="3.33261">
        <ele>309.6</ele>
        <time>2016-06-29T17:44:39Z</time>
      </trkpt>
      <trkpt lat="43.57904" lon="3.33252">
        <ele>309.9</ele>
        <time>2016-06-29T17:44:42Z</time>
      </trkpt>
      <trkpt lat="43.5791" lon="3.33244">
        <ele>310.3</ele>
        <time>2016-06-29T17:44:46Z</time>
      </trkpt>
      <trkpt lat="43.57917" lon="3.3324">
        <ele>310.7</ele>
        <time>2016-06-29T17:44:51Z</time>
      </trkpt>
      <trkpt lat="43.57924" lon="3.33247">
        <ele>311</ele>
        <time>2016-06-29T17:44:57Z</time>
      </trkpt>
      <trkpt lat="43.57927" lon="3.33257">
        <ele>311.4</ele>
        <time>2016-06-29T17:45:03Z</time>
      </trkpt>
      <trkpt lat="43.57927" lon="3.33268">
        <ele>311.9</ele>
        <time>2016-06-29T17:45:08Z</time>
      </trkpt>
      <trkpt lat="43.57927" lon="3.3328">
        <ele>312</ele>
        <time>2016-06-29T17:45:13Z</time>
      </trkpt>
      <trkpt lat="43.57926" lon="3.33291">
        <ele>312.1</ele>
        <time>2016-06-29T17:45:17Z</time>
      </trkpt>
      <trkpt lat="43.57926" lon="3.33304">
        <ele>312.2</ele>
        <time>2016-06-29T17:45:21Z</time>
      </trkpt>
      <trkpt lat="43.57927" lon="3.33316">
        <ele>312.4</ele>
        <time>2016-06-29T17:45:25Z</time>
      </trkpt>
      <trkpt lat="43.57927" lon="3.33327">
        <ele>312.5</ele>
        <time>2016-06-29T17:45:28Z</time>
      </trkpt>
      <trkpt lat="43.57926" lon="3.33338">
        <ele>312.8</ele>
        <time>2016-06-29T17:45:32Z</time>
      </trkpt>
      <trkpt lat="43.57928" lon="3.33352">
        <ele>313.1</ele>
        <time>2016-06-29T17:45:36Z</time>
      </trkpt>
      <trkpt lat="43.57931" lon="3.33362">
        <ele>313.2</ele>
        <time>2016-06-29T17:45:39Z</time>
      </trkpt>
      <trkpt lat="43.57935" lon="3.33372">
        <ele>313.3</ele>
        <time>2016-06-29T17:45:42Z</time>
      </trkpt>
      <trkpt lat="43.5794" lon="3.33382">
        <ele>313.4</ele>
        <time>2016-06-29T17:45:45Z</time>
      </trkpt>
      <trkpt lat="43.57943" lon="3.33395">
        <ele>313.4</ele>
        <time>2016-06-29T17:45:48Z</time>
      </trkpt>
      <trkpt lat="43.57939" lon="3.33406">
        <ele>313.5</ele>
        <time>2016-06-29T17:45:51Z</time>
      </trkpt>
      <trkpt lat="43.57934" lon="3.33415">
        <ele>313.6</ele>
        <time>2016-06-29T17:45:54Z</time>
      </trkpt>
      <trkpt lat="43.57927" lon="3.33423">
        <ele>313.8</ele>
        <time>2016-06-29T17:45:57Z</time>
      </trkpt>
      <trkpt lat="43.5792" lon="3.33429">
        <ele>314.2</ele>
        <time>2016-06-29T17:46:01Z</time>
      </trkpt>
      <trkpt lat="43.57913" lon="3.33434">
        <ele>314.5</ele>
        <time>2016-06-29T17:46:04Z</time>
      </trkpt>
      <trkpt lat="43.57907" lon="3.33442">
        <ele>314.9</ele>
        <time>2016-06-29T17:46:07Z</time>
      </trkpt>
      <trkpt lat="43.57901" lon="3.3345">
        <ele>315.2</ele>
        <time>2016-06-29T17:46:10Z</time>
      </trkpt>
      <trkpt lat="43.57895" lon="3.33459">
        <ele>315.5</ele>
        <time>2016-06-29T17:46:13Z</time>
      </trkpt>
      <trkpt lat="43.57889" lon="3.33469">
        <ele>315.8</ele>
        <time>2016-06-29T17:46:16Z</time>
      </trkpt>
      <trkpt lat="43.57884" lon="3.3348">
        <ele>316</ele>
        <time>2016-06-29T17:46:19Z</time>
      </trkpt>
      <trkpt lat="43.5788" lon="3.33492">
        <ele>316.2</ele>
        <time>2016-06-29T17:46:22Z</time>
      </trkpt>
      <trkpt lat="43.57877" lon="3.33504">
        <ele>316.4</ele>
        <time>2016-06-29T17:46:25Z</time>
      </trkpt>
      <trkpt lat="43.57874" lon="3.33518">
        <ele>316.5</ele>
        <time>2016-06-29T17:46:28Z</time>
      </trkpt>
      <trkpt lat="43.57873" lon="3.33532">
        <ele>316.6</ele>
        <time>2016-06-29T17:46:31Z</time>
      </trkpt>
      <trkpt lat="43.57872" lon="3.33546">
        <ele>316.7</ele>
        <time>2016-06-29T17:46:34Z</time>
      </trkpt>
      <trkpt lat="43.57867" lon="3.3356">
        <ele>316.9</ele>
        <time>2016-06-29T17:46:37Z</time>
      </trkpt>
      <trkpt lat="43.5786" lon="3.33569">
        <ele>317.1</ele>
        <time>2016-06-29T17:46:40Z</time>
      </trkpt>
      <trkpt lat="43.57853" lon="3.33577">
        <ele>317.2</ele>
        <time>2016-06-29T17:46:43Z</time>
      </trkpt>
      <trkpt lat="43.57847" lon="3.33586">
        <ele>317.2</ele>
        <time>2016-06-29T17:46:46Z</time>
      </trkpt>
      <trkpt lat="43.57841" lon="3.33595">
        <ele>317.3</ele>
        <time>2016-06-29T17:46:49Z</time>
      </trkpt>
      <trkpt lat="43.57837" lon="3.33607">
        <ele>317.3</ele>
        <time>2016-06-29T17:46:52Z</time>
      </trkpt>
      <trkpt lat="43.57834" lon="3.33618">
        <ele>317.4</ele>
        <time>2016-06-29T17:46:55Z</time>
      </trkpt>
      <trkpt lat="43.57831" lon="3.33631">
        <ele>317.5</ele>
        <time>2016-06-29T17:46:58Z</time>
      </trkpt>
      <trkpt lat="43.57827" lon="3.33644">
        <ele>317.6</ele>
        <time>2016-06-29T17:47:01Z</time>
      </trkpt>
      <trkpt lat="43.57824" lon="3.33653">
        <ele>318.5</ele>
        <time>2016-06-29T17:47:03Z</time>
      </trkpt>
      <trkpt lat="43.5782" lon="3.33667">
        <ele>319.8</ele>
        <time>2016-06-29T17:47:06Z</time>
      </trkpt>
      <trkpt lat="43.57817" lon="3.33676">
        <ele>320.7</ele>
        <time>2016-06-29T17:47:08Z</time>
      </trkpt>
      <trkpt lat="43.57814" lon="3.33687">
        <ele>320.7</ele>
        <time>2016-06-29T17:47:10Z</time>
      </trkpt>
      <trkpt lat="43.57811" lon="3.33696">
        <ele>320.7</ele>
        <time>2016-06-29T17:47:12Z</time>
      </trkpt>
      <trkpt lat="43.57806" lon="3.33708">
        <ele>320.6</ele>
        <time>2016-06-29T17:47:15Z</time>
      </trkpt>
      <trkpt lat="43.57802" lon="3.33718">
        <ele>320.6</ele>
        <time>2016-06-29T17:47:17Z</time>
      </trkpt>
      <trkpt lat="43.57797" lon="3.33729">
        <ele>320.7</ele>
        <time>2016-06-29T17:47:20Z</time>
      </trkpt>
      <trkpt lat="43.57793" lon="3.33739">
        <ele>320.8</ele>
        <time>2016-06-29T17:47:22Z</time>
      </trkpt>
      <trkpt lat="43.57789" lon="3.33748">
        <ele>321.1</ele>
        <time>2016-06-29T17:47:24Z</time>
      </trkpt>
      <trkpt lat="43.57784" lon="3.33761">
        <ele>321.2</ele>
        <time>2016-06-29T17:47:27Z</time>
      </trkpt>
      <trkpt lat="43.57781" lon="3.33771">
        <ele>321.2</ele>
        <time>2016-06-29T17:47:29Z</time>
      </trkpt>
      <trkpt lat="43.57778" lon="3.33781">
        <ele>321.2</ele>
        <time>2016-06-29T17:47:31Z</time>
      </trkpt>
      <trkpt lat="43.57776" lon="3.33791">
        <ele>321.3</ele>
        <time>2016-06-29T17:47:33Z</time>
      </trkpt>
      <trkpt lat="43.57773" lon="3.33804">
        <ele>321.3</ele>
        <time>2016-06-29T17:47:36Z</time>
      </trkpt>
      <trkpt lat="43.57771" lon="3.33819">
        <ele>321.4</ele>
        <time>2016-06-29T17:47:39Z</time>
      </trkpt>
      <trkpt lat="43.5777" lon="3.33833">
        <ele>321.4</ele>
        <time>2016-06-29T17:47:42Z</time>
      </trkpt>
      <trkpt lat="43.57768" lon="3.33846">
        <ele>321.3</ele>
        <time>2016-06-29T17:47:45Z</time>
      </trkpt>
      <trkpt lat="43.57767" lon="3.33856">
        <ele>321.3</ele>
        <time>2016-06-29T17:47:47Z</time>
      </trkpt>
      <trkpt lat="43.57765" lon="3.33866">
        <ele>321.3</ele>
        <time>2016-06-29T17:47:49Z</time>
      </trkpt>
      <trkpt lat="43.57763" lon="3.33876">
        <ele>321.3</ele>
        <time>2016-06-29T17:47:51Z</time>
      </trkpt>
      <trkpt lat="43.57761" lon="3.33886">
        <ele>321.2</ele>
        <time>2016-06-29T17:47:53Z</time>
      </trkpt>
      <trkpt lat="43.5776" lon="3.33897">
        <ele>321.2</ele>
        <time>2016-06-29T17:47:55Z</time>
      </trkpt>
      <trkpt lat="43.57763" lon="3.3391">
        <ele>321.1</ele>
        <time>2016-06-29T17:47:58Z</time>
      </trkpt>
      <trkpt lat="43.57769" lon="3.33921">
        <ele>321.2</ele>
        <time>2016-06-29T17:48:01Z</time>
      </trkpt>
      <trkpt lat="43.57779" lon="3.33928">
        <ele>321.3</ele>
        <time>2016-06-29T17:48:04Z</time>
      </trkpt>
      <trkpt lat="43.57786" lon="3.33931">
        <ele>321.4</ele>
        <time>2016-06-29T17:48:06Z</time>
      </trkpt>
      <trkpt lat="43.57796" lon="3.33929">
        <ele>321.6</ele>
        <time>2016-06-29T17:48:10Z</time>
      </trkpt>
      <trkpt lat="43.57804" lon="3.33927">
        <ele>321.9</ele>
        <time>2016-06-29T17:48:13Z</time>
      </trkpt>
      <trkpt lat="43.57812" lon="3.33924">
        <ele>322.8</ele>
        <time>2016-06-29T17:48:18Z</time>
      </trkpt>
      <trkpt lat="43.5782" lon="3.3392">
        <ele>323.4</ele>
        <time>2016-06-29T17:48:22Z</time>
      </trkpt>
      <trkpt lat="43.57828" lon="3.33917">
        <ele>323.8</ele>
        <time>2016-06-29T17:48:25Z</time>
      </trkpt>
      <trkpt lat="43.57835" lon="3.33913">
        <ele>324.2</ele>
        <time>2016-06-29T17:48:28Z</time>
      </trkpt>
      <trkpt lat="43.57844" lon="3.33906">
        <ele>324.6</ele>
        <time>2016-06-29T17:48:31Z</time>
      </trkpt>
      <trkpt lat="43.57852" lon="3.33901">
        <ele>324.9</ele>
        <time>2016-06-29T17:48:34Z</time>
      </trkpt>
      <trkpt lat="43.57863" lon="3.33897">
        <ele>325.1</ele>
        <time>2016-06-29T17:48:37Z</time>
      </trkpt>
      <trkpt lat="43.5787" lon="3.33895">
        <ele>325.2</ele>
        <time>2016-06-29T17:48:40Z</time>
      </trkpt>
      <trkpt lat="43.5788" lon="3.33895">
        <ele>325.2</ele>
        <time>2016-06-29T17:48:43Z</time>
      </trkpt>
      <trkpt lat="43.57889" lon="3.33895">
        <ele>325.3</ele>
        <time>2016-06-29T17:48:45Z</time>
      </trkpt>
      <trkpt lat="43.57897" lon="3.33897">
        <ele>325.5</ele>
        <time>2016-06-29T17:48:47Z</time>
      </trkpt>
      <trkpt lat="43.57905" lon="3.33899">
        <ele>325.9</ele>
        <time>2016-06-29T17:48:50Z</time>
      </trkpt>
      <trkpt lat="43.57917" lon="3.33901">
        <ele>326.3</ele>
        <time>2016-06-29T17:48:53Z</time>
      </trkpt>
      <trkpt lat="43.57925" lon="3.33904">
        <ele>326.6</ele>
        <time>2016-06-29T17:48:55Z</time>
      </trkpt>
      <trkpt lat="43.57934" lon="3.33909">
        <ele>327.1</ele>
        <time>2016-06-29T17:48:58Z</time>
      </trkpt>
      <trkpt lat="43.57942" lon="3.33914">
        <ele>327.4</ele>
        <time>2016-06-29T17:49:01Z</time>
      </trkpt>
      <trkpt lat="43.57952" lon="3.33918">
        <ele>327.6</ele>
        <time>2016-06-29T17:49:04Z</time>
      </trkpt>
      <trkpt lat="43.57959" lon="3.33921">
        <ele>327.8</ele>
        <time>2016-06-29T17:49:06Z</time>
      </trkpt>
      <trkpt lat="43.57967" lon="3.33925">
        <ele>328</ele>
        <time>2016-06-29T17:49:08Z</time>
      </trkpt>
      <trkpt lat="43.57976" lon="3.33928">
        <ele>328.3</ele>
        <time>2016-06-29T17:49:11Z</time>
      </trkpt>
      <trkpt lat="43.57981" lon="3.33941">
        <ele>328.3</ele>
        <time>2016-06-29T17:49:14Z</time>
      </trkpt>
      <trkpt lat="43.57979" lon="3.33954">
        <ele>328.3</ele>
        <time>2016-06-29T17:49:17Z</time>
      </trkpt>
      <trkpt lat="43.57973" lon="3.33964">
        <ele>328.3</ele>
        <time>2016-06-29T17:49:20Z</time>
      </trkpt>
      <trkpt lat="43.57965" lon="3.33974">
        <ele>328.4</ele>
        <time>2016-06-29T17:49:23Z</time>
      </trkpt>
      <trkpt lat="43.5796" lon="3.33981">
        <ele>328.5</ele>
        <time>2016-06-29T17:49:25Z</time>
      </trkpt>
      <trkpt lat="43.57954" lon="3.33993">
        <ele>328.5</ele>
        <time>2016-06-29T17:49:28Z</time>
      </trkpt>
      <trkpt lat="43.5795" lon="3.34002">
        <ele>328.4</ele>
        <time>2016-06-29T17:49:30Z</time>
      </trkpt>
      <trkpt lat="43.57945" lon="3.34016">
        <ele>327.2</ele>
        <time>2016-06-29T17:49:33Z</time>
      </trkpt>
      <trkpt lat="43.57943" lon="3.34026">
        <ele>327.1</ele>
        <time>2016-06-29T17:49:35Z</time>
      </trkpt>
      <trkpt lat="43.5794" lon="3.34038">
        <ele>327.2</ele>
        <time>2016-06-29T17:49:38Z</time>
      </trkpt>
      <trkpt lat="43.5794" lon="3.34047">
        <ele>327.8</ele>
        <time>2016-06-29T17:49:40Z</time>
      </trkpt>
      <trkpt lat="43.5794" lon="3.34058">
        <ele>327.9</ele>
        <time>2016-06-29T17:49:42Z</time>
      </trkpt>
      <trkpt lat="43.57942" lon="3.34068">
        <ele>328</ele>
        <time>2016-06-29T17:49:44Z</time>
      </trkpt>
      <trkpt lat="43.57943" lon="3.34078">
        <ele>328</ele>
        <time>2016-06-29T17:49:46Z</time>
      </trkpt>
      <trkpt lat="43.57946" lon="3.34089">
        <ele>328</ele>
        <time>2016-06-29T17:49:48Z</time>
      </trkpt>
      <trkpt lat="43.57948" lon="3.34103">
        <ele>328</ele>
        <time>2016-06-29T17:49:51Z</time>
      </trkpt>
      <trkpt lat="43.57951" lon="3.34113">
        <ele>328</ele>
        <time>2016-06-29T17:49:53Z</time>
      </trkpt>
      <trkpt lat="43.57954" lon="3.34123">
        <ele>328.3</ele>
        <time>2016-06-29T17:49:55Z</time>
      </trkpt>
      <trkpt lat="43.57958" lon="3.34132">
        <ele>328</ele>
        <time>2016-06-29T17:49:57Z</time>
      </trkpt>
      <trkpt lat="43.57962" lon="3.34142">
        <ele>327.5</ele>
        <time>2016-06-29T17:49:59Z</time>
      </trkpt>
      <trkpt lat="43.57966" lon="3.34155">
        <ele>327.3</ele>
        <time>2016-06-29T17:50:02Z</time>
      </trkpt>
      <trkpt lat="43.57971" lon="3.34168">
        <ele>326.3</ele>
        <time>2016-06-29T17:50:05Z</time>
      </trkpt>
      <trkpt lat="43.57974" lon="3.34177">
        <ele>326.2</ele>
        <time>2016-06-29T17:50:07Z</time>
      </trkpt>
      <trkpt lat="43.57979" lon="3.3419">
        <ele>326.2</ele>
        <time>2016-06-29T17:50:10Z</time>
      </trkpt>
      <trkpt lat="43.57981" lon="3.34202">
        <ele>326.2</ele>
        <time>2016-06-29T17:50:13Z</time>
      </trkpt>
      <trkpt lat="43.57984" lon="3.34214">
        <ele>326.4</ele>
        <time>2016-06-29T17:50:16Z</time>
      </trkpt>
      <trkpt lat="43.57985" lon="3.34225">
        <ele>326.3</ele>
        <time>2016-06-29T17:50:18Z</time>
      </trkpt>
      <trkpt lat="43.57986" lon="3.34236">
        <ele>326.3</ele>
        <time>2016-06-29T17:50:20Z</time>
      </trkpt>
      <trkpt lat="43.57987" lon="3.3425">
        <ele>326.4</ele>
        <time>2016-06-29T17:50:23Z</time>
      </trkpt>
      <trkpt lat="43.57988" lon="3.34263">
        <ele>326.4</ele>
        <time>2016-06-29T17:50:26Z</time>
      </trkpt>
      <trkpt lat="43.57992" lon="3.34276">
        <ele>326.5</ele>
        <time>2016-06-29T17:50:29Z</time>
      </trkpt>
      <trkpt lat="43.57999" lon="3.34278">
        <ele>327.2</ele>
        <time>2016-06-29T17:50:32Z</time>
      </trkpt>
      <trkpt lat="43.58006" lon="3.34272">
        <ele>327.4</ele>
        <time>2016-06-29T17:50:35Z</time>
      </trkpt>
      <trkpt lat="43.58013" lon="3.34267">
        <ele>327.8</ele>
        <time>2016-06-29T17:50:39Z</time>
      </trkpt>
      <trkpt lat="43.5802" lon="3.34262">
        <ele>328.2</ele>
        <time>2016-06-29T17:50:43Z</time>
      </trkpt>
      <trkpt lat="43.58027" lon="3.34254">
        <ele>328.7</ele>
        <time>2016-06-29T17:50:47Z</time>
      </trkpt>
      <trkpt lat="43.58034" lon="3.34249">
        <ele>329.3</ele>
        <time>2016-06-29T17:50:51Z</time>
      </trkpt>
      <trkpt lat="43.58043" lon="3.34243">
        <ele>330</ele>
        <time>2016-06-29T17:50:55Z</time>
      </trkpt>
      <trkpt lat="43.5805" lon="3.34241">
        <ele>330.5</ele>
        <time>2016-06-29T17:50:58Z</time>
      </trkpt>
      <trkpt lat="43.58058" lon="3.34236">
        <ele>331.2</ele>
        <time>2016-06-29T17:51:02Z</time>
      </trkpt>
      <trkpt lat="43.58065" lon="3.34233">
        <ele>332.1</ele>
        <time>2016-06-29T17:51:06Z</time>
      </trkpt>
      <trkpt lat="43.58074" lon="3.34233">
        <ele>332.9</ele>
        <time>2016-06-29T17:51:10Z</time>
      </trkpt>
      <trkpt lat="43.58083" lon="3.34231">
        <ele>333.8</ele>
        <time>2016-06-29T17:51:14Z</time>
      </trkpt>
      <trkpt lat="43.58092" lon="3.34231">
        <ele>334.4</ele>
        <time>2016-06-29T17:51:18Z</time>
      </trkpt>
      <trkpt lat="43.581" lon="3.34233">
        <ele>335.3</ele>
        <time>2016-06-29T17:51:22Z</time>
      </trkpt>
      <trkpt lat="43.58108" lon="3.34238">
        <ele>335.9</ele>
        <time>2016-06-29T17:51:25Z</time>
      </trkpt>
      <trkpt lat="43.58115" lon="3.34246">
        <ele>336.3</ele>
        <time>2016-06-29T17:51:29Z</time>
      </trkpt>
      <trkpt lat="43.58119" lon="3.34256">
        <ele>336.9</ele>
        <time>2016-06-29T17:51:33Z</time>
      </trkpt>
      <trkpt lat="43.5812" lon="3.34267">
        <ele>337.5</ele>
        <time>2016-06-29T17:51:37Z</time>
      </trkpt>
      <trkpt lat="43.58121" lon="3.34278">
        <ele>337.9</ele>
        <time>2016-06-29T17:51:41Z</time>
      </trkpt>
      <trkpt lat="43.58123" lon="3.3429">
        <ele>338.3</ele>
        <time>2016-06-29T17:51:45Z</time>
      </trkpt>
      <trkpt lat="43.58125" lon="3.34302">
        <ele>338.8</ele>
        <time>2016-06-29T17:51:49Z</time>
      </trkpt>
      <trkpt lat="43.58126" lon="3.34313">
        <ele>339.2</ele>
        <time>2016-06-29T17:51:53Z</time>
      </trkpt>
      <trkpt lat="43.5813" lon="3.34324">
        <ele>339.8</ele>
        <time>2016-06-29T17:51:57Z</time>
      </trkpt>
      <trkpt lat="43.58133" lon="3.34334">
        <ele>340.3</ele>
        <time>2016-06-29T17:52:01Z</time>
      </trkpt>
      <trkpt lat="43.58136" lon="3.34344">
        <ele>340.8</ele>
        <time>2016-06-29T17:52:05Z</time>
      </trkpt>
      <trkpt lat="43.5814" lon="3.34354">
        <ele>341.3</ele>
        <time>2016-06-29T17:52:09Z</time>
      </trkpt>
      <trkpt lat="43.58143" lon="3.34364">
        <ele>341.8</ele>
        <time>2016-06-29T17:52:13Z</time>
      </trkpt>
      <trkpt lat="43.58146" lon="3.34372">
        <ele>342.3</ele>
        <time>2016-06-29T17:52:17Z</time>
      </trkpt>
      <trkpt lat="43.58152" lon="3.34381">
        <ele>342.8</ele>
        <time>2016-06-29T17:52:21Z</time>
      </trkpt>
      <trkpt lat="43.58157" lon="3.34389">
        <ele>343.3</ele>
        <time>2016-06-29T17:52:25Z</time>
      </trkpt>
      <trkpt lat="43.58163" lon="3.34397">
        <ele>343.7</ele>
        <time>2016-06-29T17:52:29Z</time>
      </trkpt>
      <trkpt lat="43.58169" lon="3.34405">
        <ele>343.9</ele>
        <time>2016-06-29T17:52:33Z</time>
      </trkpt>
      <trkpt lat="43.58174" lon="3.34412">
        <ele>344.2</ele>
        <time>2016-06-29T17:52:37Z</time>
      </trkpt>
      <trkpt lat="43.5818" lon="3.34419">
        <ele>344.5</ele>
        <time>2016-06-29T17:52:41Z</time>
      </trkpt>
      <trkpt lat="43.58185" lon="3.34425">
        <ele>345</ele>
        <time>2016-06-29T17:52:45Z</time>
      </trkpt>
      <trkpt lat="43.5819" lon="3.34434">
        <ele>345.7</ele>
        <time>2016-06-29T17:52:50Z</time>
      </trkpt>
      <trkpt lat="43.58195" lon="3.34441">
        <ele>346.4</ele>
        <time>2016-06-29T17:52:54Z</time>
      </trkpt>
      <trkpt lat="43.58202" lon="3.34449">
        <ele>347.1</ele>
        <time>2016-06-29T17:52:58Z</time>
      </trkpt>
      <trkpt lat="43.58209" lon="3.34455">
        <ele>347.8</ele>
        <time>2016-06-29T17:53:02Z</time>
      </trkpt>
      <trkpt lat="43.58217" lon="3.3446">
        <ele>349.1</ele>
        <time>2016-06-29T17:53:07Z</time>
      </trkpt>
      <trkpt lat="43.58224" lon="3.34463">
        <ele>350.1</ele>
        <time>2016-06-29T17:53:11Z</time>
      </trkpt>
      <trkpt lat="43.58232" lon="3.34464">
        <ele>350.9</ele>
        <time>2016-06-29T17:53:15Z</time>
      </trkpt>
      <trkpt lat="43.5824" lon="3.34465">
        <ele>352</ele>
        <time>2016-06-29T17:53:20Z</time>
      </trkpt>
      <trkpt lat="43.58247" lon="3.34466">
        <ele>353.2</ele>
        <time>2016-06-29T17:53:25Z</time>
      </trkpt>
      <trkpt lat="43.58254" lon="3.34465">
        <ele>355.2</ele>
        <time>2016-06-29T17:53:32Z</time>
      </trkpt>
      <trkpt lat="43.58254" lon="3.34465">
        <ele>359.7</ele>
        <time>2016-06-29T17:54:32Z</time>
      </trkpt>
      <trkpt lat="43.58256" lon="3.34463">
        <ele>361.1</ele>
        <time>2016-06-29T17:54:30Z</time>
      </trkpt>
      <trkpt lat="43.58253" lon="3.34467">
        <ele>361.2</ele>
        <time>2016-06-29T17:56:02Z</time>
      </trkpt>
      <trkpt lat="43.58255" lon="3.34465">
        <ele>361.3</ele>
        <time>2016-06-29T17:56:36Z</time>
      </trkpt>
      <trkpt lat="43.58254" lon="3.34464">
        <ele>363.4</ele>
        <time>2016-06-29T17:57:47Z</time>
      </trkpt>
      <trkpt lat="43.58256" lon="3.34465">
        <ele>363.3</ele>
        <time>2016-06-29T17:57:54Z</time>
      </trkpt>
      <trkpt lat="43.58257" lon="3.34476">
        <ele>364.9</ele>
        <time>2016-06-29T17:59:08Z</time>
      </trkpt>
      <trkpt lat="43.58263" lon="3.34491">
        <ele>365.4</ele>
        <time>2016-06-29T17:59:10Z</time>
      </trkpt>
      <trkpt lat="43.58267" lon="3.34504">
        <ele>365.6</ele>
        <time>2016-06-29T17:59:12Z</time>
      </trkpt>
      <trkpt lat="43.58272" lon="3.34518">
        <ele>365.2</ele>
        <time>2016-06-29T17:59:14Z</time>
      </trkpt>
      <trkpt lat="43.58279" lon="3.34529">
        <ele>364.3</ele>
        <time>2016-06-29T17:59:16Z</time>
      </trkpt>
      <trkpt lat="43.58286" lon="3.34538">
        <ele>363.3</ele>
        <time>2016-06-29T17:59:18Z</time>
      </trkpt>
      <trkpt lat="43.58293" lon="3.34544">
        <ele>363</ele>
        <time>2016-06-29T17:59:20Z</time>
      </trkpt>
      <trkpt lat="43.58299" lon="3.34553">
        <ele>362.5</ele>
        <time>2016-06-29T17:59:23Z</time>
      </trkpt>
      <trkpt lat="43.58306" lon="3.34565">
        <ele>359.8</ele>
        <time>2016-06-29T17:59:26Z</time>
      </trkpt>
      <trkpt lat="43.58314" lon="3.34572">
        <ele>357</ele>
        <time>2016-06-29T17:59:28Z</time>
      </trkpt>
      <trkpt lat="43.58321" lon="3.34577">
        <ele>356.6</ele>
        <time>2016-06-29T17:59:30Z</time>
      </trkpt>
      <trkpt lat="43.58328" lon="3.34585">
        <ele>356.1</ele>
        <time>2016-06-29T17:59:32Z</time>
      </trkpt>
      <trkpt lat="43.58337" lon="3.34599">
        <ele>353.5</ele>
        <time>2016-06-29T17:59:34Z</time>
      </trkpt>
      <trkpt lat="43.58344" lon="3.34604">
        <ele>353.2</ele>
        <time>2016-06-29T17:59:36Z</time>
      </trkpt>
      <trkpt lat="43.5835" lon="3.3461">
        <ele>352.7</ele>
        <time>2016-06-29T17:59:39Z</time>
      </trkpt>
      <trkpt lat="43.58353" lon="3.3462">
        <ele>352.3</ele>
        <time>2016-06-29T17:59:41Z</time>
      </trkpt>
      <trkpt lat="43.58353" lon="3.34631">
        <ele>352.1</ele>
        <time>2016-06-29T17:59:43Z</time>
      </trkpt>
      <trkpt lat="43.58351" lon="3.34645">
        <ele>349.5</ele>
        <time>2016-06-29T17:59:45Z</time>
      </trkpt>
      <trkpt lat="43.5835" lon="3.34662">
        <ele>346.7</ele>
        <time>2016-06-29T17:59:47Z</time>
      </trkpt>
      <trkpt lat="43.58349" lon="3.34672">
        <ele>345.9</ele>
        <time>2016-06-29T17:59:48Z</time>
      </trkpt>
      <trkpt lat="43.58349" lon="3.3469">
        <ele>343.6</ele>
        <time>2016-06-29T17:59:50Z</time>
      </trkpt>
      <trkpt lat="43.58351" lon="3.34706">
        <ele>342.5</ele>
        <time>2016-06-29T17:59:52Z</time>
      </trkpt>
      <trkpt lat="43.58354" lon="3.34723">
        <ele>342.2</ele>
        <time>2016-06-29T17:59:54Z</time>
      </trkpt>
      <trkpt lat="43.5836" lon="3.34738">
        <ele>341.3</ele>
        <time>2016-06-29T17:59:56Z</time>
      </trkpt>
      <trkpt lat="43.58366" lon="3.34751">
        <ele>340.8</ele>
        <time>2016-06-29T17:59:58Z</time>
      </trkpt>
      <trkpt lat="43.5837" lon="3.3476">
        <ele>340.8</ele>
        <time>2016-06-29T17:59:59Z</time>
      </trkpt>
      <trkpt lat="43.58378" lon="3.34773">
        <ele>340.5</ele>
        <time>2016-06-29T18:00:01Z</time>
      </trkpt>
      <trkpt lat="43.58385" lon="3.3479">
        <ele>340</ele>
        <time>2016-06-29T18:00:03Z</time>
      </trkpt>
      <trkpt lat="43.58386" lon="3.348">
        <ele>339.7</ele>
        <time>2016-06-29T18:00:04Z</time>
      </trkpt>
      <trkpt lat="43.58388" lon="3.34811">
        <ele>339.2</ele>
        <time>2016-06-29T18:00:05Z</time>
      </trkpt>
      <trkpt lat="43.58389" lon="3.34823">
        <ele>338.3</ele>
        <time>2016-06-29T18:00:06Z</time>
      </trkpt>
      <trkpt lat="43.58389" lon="3.34834">
        <ele>337.2</ele>
        <time>2016-06-29T18:00:07Z</time>
      </trkpt>
      <trkpt lat="43.58389" lon="3.34848">
        <ele>336.5</ele>
        <time>2016-06-29T18:00:08Z</time>
      </trkpt>
      <trkpt lat="43.58388" lon="3.34862">
        <ele>335.5</ele>
        <time>2016-06-29T18:00:09Z</time>
      </trkpt>
      <trkpt lat="43.58386" lon="3.34881">
        <ele>333.3</ele>
        <time>2016-06-29T18:00:11Z</time>
      </trkpt>
      <trkpt lat="43.58385" lon="3.34892">
        <ele>331.9</ele>
        <time>2016-06-29T18:00:12Z</time>
      </trkpt>
      <trkpt lat="43.58381" lon="3.34912">
        <ele>329.7</ele>
        <time>2016-06-29T18:00:14Z</time>
      </trkpt>
      <trkpt lat="43.58376" lon="3.34922">
        <ele>328.2</ele>
        <time>2016-06-29T18:00:15Z</time>
      </trkpt>
      <trkpt lat="43.58372" lon="3.34933">
        <ele>326.5</ele>
        <time>2016-06-29T18:00:16Z</time>
      </trkpt>
      <trkpt lat="43.58368" lon="3.34944">
        <ele>325.2</ele>
        <time>2016-06-29T18:00:17Z</time>
      </trkpt>
      <trkpt lat="43.58359" lon="3.3496">
        <ele>322.9</ele>
        <time>2016-06-29T18:00:19Z</time>
      </trkpt>
      <trkpt lat="43.58351" lon="3.34976">
        <ele>320.9</ele>
        <time>2016-06-29T18:00:21Z</time>
      </trkpt>
      <trkpt lat="43.58344" lon="3.34986">
        <ele>318.5</ele>
        <time>2016-06-29T18:00:23Z</time>
      </trkpt>
      <trkpt lat="43.58336" lon="3.34997">
        <ele>316.3</ele>
        <time>2016-06-29T18:00:25Z</time>
      </trkpt>
      <trkpt lat="43.58327" lon="3.35006">
        <ele>314.6</ele>
        <time>2016-06-29T18:00:27Z</time>
      </trkpt>
      <trkpt lat="43.58319" lon="3.35018">
        <ele>313.2</ele>
        <time>2016-06-29T18:00:29Z</time>
      </trkpt>
      <trkpt lat="43.5831" lon="3.35023">
        <ele>311.1</ele>
        <time>2016-06-29T18:00:31Z</time>
      </trkpt>
      <trkpt lat="43.58308" lon="3.35036">
        <ele>309.9</ele>
        <time>2016-06-29T18:00:34Z</time>
      </trkpt>
      <trkpt lat="43.58306" lon="3.35051">
        <ele>307.9</ele>
        <time>2016-06-29T18:00:36Z</time>
      </trkpt>
      <trkpt lat="43.58305" lon="3.35068">
        <ele>306.2</ele>
        <time>2016-06-29T18:00:38Z</time>
      </trkpt>
      <trkpt lat="43.58299" lon="3.35083">
        <ele>304.4</ele>
        <time>2016-06-29T18:00:40Z</time>
      </trkpt>
      <trkpt lat="43.58298" lon="3.35094">
        <ele>303.6</ele>
        <time>2016-06-29T18:00:42Z</time>
      </trkpt>
      <trkpt lat="43.58305" lon="3.35102">
        <ele>302.2</ele>
        <time>2016-06-29T18:00:44Z</time>
      </trkpt>
      <trkpt lat="43.58309" lon="3.35113">
        <ele>300.9</ele>
        <time>2016-06-29T18:00:46Z</time>
      </trkpt>
      <trkpt lat="43.58313" lon="3.35127">
        <ele>299</ele>
        <time>2016-06-29T18:00:48Z</time>
      </trkpt>
      <trkpt lat="43.58313" lon="3.35144">
        <ele>298</ele>
        <time>2016-06-29T18:00:50Z</time>
      </trkpt>
      <trkpt lat="43.58318" lon="3.35163">
        <ele>296.5</ele>
        <time>2016-06-29T18:00:52Z</time>
      </trkpt>
      <trkpt lat="43.58318" lon="3.35182">
        <ele>295.1</ele>
        <time>2016-06-29T18:00:54Z</time>
      </trkpt>
      <trkpt lat="43.58319" lon="3.35197">
        <ele>293.1</ele>
        <time>2016-06-29T18:00:56Z</time>
      </trkpt>
      <trkpt lat="43.58325" lon="3.35203">
        <ele>291.7</ele>
        <time>2016-06-29T18:00:58Z</time>
      </trkpt>
      <trkpt lat="43.58331" lon="3.35215">
        <ele>290.5</ele>
        <time>2016-06-29T18:01:00Z</time>
      </trkpt>
      <trkpt lat="43.58332" lon="3.35228">
        <ele>288.4</ele>
        <time>2016-06-29T18:01:02Z</time>
      </trkpt>
      <trkpt lat="43.58331" lon="3.35244">
        <ele>286.8</ele>
        <time>2016-06-29T18:01:04Z</time>
      </trkpt>
      <trkpt lat="43.58332" lon="3.3526">
        <ele>284.7</ele>
        <time>2016-06-29T18:01:06Z</time>
      </trkpt>
      <trkpt lat="43.58327" lon="3.35275">
        <ele>281.9</ele>
        <time>2016-06-29T18:01:08Z</time>
      </trkpt>
      <trkpt lat="43.5833" lon="3.3529">
        <ele>281.4</ele>
        <time>2016-06-29T18:01:11Z</time>
      </trkpt>
      <trkpt lat="43.58335" lon="3.35298">
        <ele>280.6</ele>
        <time>2016-06-29T18:01:15Z</time>
      </trkpt>
      <trkpt lat="43.58335" lon="3.35309">
        <ele>276</ele>
        <time>2016-06-29T18:03:04Z</time>
      </trkpt>
      <trkpt lat="43.58333" lon="3.35321">
        <ele>273.2</ele>
        <time>2016-06-29T18:04:30Z</time>
      </trkpt>
      <trkpt lat="43.5833" lon="3.35333">
        <ele>272.7</ele>
        <time>2016-06-29T18:04:34Z</time>
      </trkpt>
      <trkpt lat="43.58328" lon="3.35347">
        <ele>271.4</ele>
        <time>2016-06-29T18:04:37Z</time>
      </trkpt>
      <trkpt lat="43.58327" lon="3.35358">
        <ele>269.4</ele>
        <time>2016-06-29T18:04:39Z</time>
      </trkpt>
      <trkpt lat="43.58327" lon="3.3537">
        <ele>267.8</ele>
        <time>2016-06-29T18:04:41Z</time>
      </trkpt>
      <trkpt lat="43.58327" lon="3.35384">
        <ele>266.8</ele>
        <time>2016-06-29T18:04:43Z</time>
      </trkpt>
      <trkpt lat="43.58326" lon="3.35399">
        <ele>266.6</ele>
        <time>2016-06-29T18:04:45Z</time>
      </trkpt>
      <trkpt lat="43.58326" lon="3.35415">
        <ele>266</ele>
        <time>2016-06-29T18:04:47Z</time>
      </trkpt>
      <trkpt lat="43.58326" lon="3.3543">
        <ele>264.8</ele>
        <time>2016-06-29T18:04:49Z</time>
      </trkpt>
      <trkpt lat="43.58326" lon="3.35441">
        <ele>264.6</ele>
        <time>2016-06-29T18:04:51Z</time>
      </trkpt>
      <trkpt lat="43.58327" lon="3.35451">
        <ele>264.1</ele>
        <time>2016-06-29T18:04:55Z</time>
      </trkpt>
      <trkpt lat="43.58326" lon="3.35453">
        <ele>263.6</ele>
        <time>2016-06-29T18:05:02Z</time>
      </trkpt>
      <trkpt lat="43.5832" lon="3.35458">
        <ele>263.1</ele>
        <time>2016-06-29T18:05:09Z</time>
      </trkpt>
      <trkpt lat="43.58313" lon="3.35455">
        <ele>261.7</ele>
        <time>2016-06-29T18:06:06Z</time>
      </trkpt>
      <trkpt lat="43.58309" lon="3.35456">
        <ele>261.1</ele>
        <time>2016-06-29T18:06:13Z</time>
      </trkpt>
      <trkpt lat="43.58305" lon="3.35455">
        <ele>260.5</ele>
        <time>2016-06-29T18:06:20Z</time>
      </trkpt>
      <trkpt lat="43.58299" lon="3.35455">
        <ele>259.6</ele>
        <time>2016-06-29T18:06:27Z</time>
      </trkpt>
      <trkpt lat="43.58295" lon="3.35451">
        <ele>259</ele>
        <time>2016-06-29T18:06:34Z</time>
      </trkpt>
      <trkpt lat="43.58294" lon="3.35445">
        <ele>257.3</ele>
        <time>2016-06-29T18:06:48Z</time>
      </trkpt>
      <trkpt lat="43.58291" lon="3.3544">
        <ele>256.6</ele>
        <time>2016-06-29T18:06:55Z</time>
      </trkpt>
      <trkpt lat="43.58287" lon="3.35436">
        <ele>255.9</ele>
        <time>2016-06-29T18:07:02Z</time>
      </trkpt>
      <trkpt lat="43.58284" lon="3.35432">
        <ele>254.5</ele>
        <time>2016-06-29T18:07:44Z</time>
      </trkpt>
      <trkpt lat="43.58278" lon="3.35432">
        <ele>253.9</ele>
        <time>2016-06-29T18:08:08Z</time>
      </trkpt>
      <trkpt lat="43.58276" lon="3.35431">
        <ele>253.8</ele>
        <time>2016-06-29T18:08:15Z</time>
      </trkpt>
      <trkpt lat="43.58272" lon="3.35434">
        <ele>253.3</ele>
        <time>2016-06-29T18:08:22Z</time>
      </trkpt>
      <trkpt lat="43.58268" lon="3.35433">
        <ele>253.4</ele>
        <time>2016-06-29T18:08:29Z</time>
      </trkpt>
      <trkpt lat="43.58265" lon="3.35435">
        <ele>252.7</ele>
        <time>2016-06-29T18:08:36Z</time>
      </trkpt>
      <trkpt lat="43.58262" lon="3.35439">
        <ele>251.6</ele>
        <time>2016-06-29T18:08:43Z</time>
      </trkpt>
      <trkpt lat="43.5826" lon="3.35437">
        <ele>250.4</ele>
        <time>2016-06-29T18:08:50Z</time>
      </trkpt>
      <trkpt lat="43.58255" lon="3.35433">
        <ele>249.2</ele>
        <time>2016-06-29T18:08:59Z</time>
      </trkpt>
      <trkpt lat="43.58251" lon="3.35427">
        <ele>246.9</ele>
        <time>2016-06-29T18:09:13Z</time>
      </trkpt>
      <trkpt lat="43.58249" lon="3.35426">
        <ele>245.2</ele>
        <time>2016-06-29T18:09:20Z</time>
      </trkpt>
      <trkpt lat="43.58244" lon="3.35428">
        <ele>244</ele>
        <time>2016-06-29T18:09:27Z</time>
      </trkpt>
      <trkpt lat="43.58238" lon="3.35428">
        <ele>242.7</ele>
        <time>2016-06-29T18:09:34Z</time>
      </trkpt>
      <trkpt lat="43.58235" lon="3.35432">
        <ele>241.3</ele>
        <time>2016-06-29T18:09:41Z</time>
      </trkpt>
      <trkpt lat="43.58233" lon="3.35436">
        <ele>240.1</ele>
        <time>2016-06-29T18:09:48Z</time>
      </trkpt>
      <trkpt lat="43.58228" lon="3.35441">
        <ele>237.6</ele>
        <time>2016-06-29T18:10:10Z</time>
      </trkpt>
      <trkpt lat="43.58218" lon="3.35444">
        <ele>234.9</ele>
        <time>2016-06-29T18:10:31Z</time>
      </trkpt>
      <trkpt lat="43.58217" lon="3.35449">
        <ele>234.1</ele>
        <time>2016-06-29T18:10:38Z</time>
      </trkpt>
      <trkpt lat="43.58212" lon="3.35452">
        <ele>232.8</ele>
        <time>2016-06-29T18:10:45Z</time>
      </trkpt>
      <trkpt lat="43.58211" lon="3.35455">
        <ele>231.6</ele>
        <time>2016-06-29T18:10:52Z</time>
      </trkpt>
      <trkpt lat="43.58219" lon="3.35451">
        <ele>229.6</ele>
        <time>2016-06-29T18:11:06Z</time>
      </trkpt>
      <trkpt lat="43.5822" lon="3.35444">
        <ele>229.4</ele>
        <time>2016-06-29T18:11:13Z</time>
      </trkpt>
      <trkpt lat="43.58223" lon="3.35443">
        <ele>229.4</ele>
        <time>2016-06-29T18:11:20Z</time>
      </trkpt>
      <trkpt lat="43.58227" lon="3.35442">
        <ele>229.7</ele>
        <time>2016-06-29T18:11:27Z</time>
      </trkpt>
      <trkpt lat="43.58227" lon="3.3544">
        <ele>229.4</ele>
        <time>2016-06-29T18:11:34Z</time>
      </trkpt>
      <trkpt lat="43.5823" lon="3.3544">
        <ele>229.3</ele>
        <time>2016-06-29T18:11:55Z</time>
      </trkpt>
      <trkpt lat="43.58234" lon="3.35439">
        <ele>229.5</ele>
        <time>2016-06-29T18:12:02Z</time>
      </trkpt>
      <trkpt lat="43.5824" lon="3.35429">
        <ele>230.3</ele>
        <time>2016-06-29T18:12:23Z</time>
      </trkpt>
      <trkpt lat="43.58243" lon="3.35427">
        <ele>230.2</ele>
        <time>2016-06-29T18:12:30Z</time>
      </trkpt>
      <trkpt lat="43.58255" lon="3.35431">
        <ele>231.4</ele>
        <time>2016-06-29T18:12:51Z</time>
      </trkpt>
      <trkpt lat="43.58261" lon="3.35436">
        <ele>232.9</ele>
        <time>2016-06-29T18:13:05Z</time>
      </trkpt>
      <trkpt lat="43.58267" lon="3.35437">
        <ele>233.9</ele>
        <time>2016-06-29T18:13:12Z</time>
      </trkpt>
      <trkpt lat="43.5827" lon="3.35437">
        <ele>235.2</ele>
        <time>2016-06-29T18:13:19Z</time>
      </trkpt>
      <trkpt lat="43.58273" lon="3.35434">
        <ele>237.1</ele>
        <time>2016-06-29T18:13:26Z</time>
      </trkpt>
      <trkpt lat="43.58275" lon="3.35434">
        <ele>239.1</ele>
        <time>2016-06-29T18:13:33Z</time>
      </trkpt>
      <trkpt lat="43.58279" lon="3.35432">
        <ele>241.4</ele>
        <time>2016-06-29T18:13:42Z</time>
      </trkpt>
      <trkpt lat="43.58283" lon="3.35433">
        <ele>243</ele>
        <time>2016-06-29T18:13:49Z</time>
      </trkpt>
      <trkpt lat="43.58283" lon="3.35433">
        <ele>244</ele>
        <time>2016-06-29T18:13:56Z</time>
      </trkpt>
      <trkpt lat="43.58282" lon="3.35436">
        <ele>244.4</ele>
        <time>2016-06-29T18:14:03Z</time>
      </trkpt>
      <trkpt lat="43.58284" lon="3.35434">
        <ele>246.8</ele>
        <time>2016-06-29T18:14:23Z</time>
      </trkpt>
      <trkpt lat="43.58285" lon="3.35434">
        <ele>246.9</ele>
        <time>2016-06-29T18:14:33Z</time>
      </trkpt>
      <trkpt lat="43.58291" lon="3.35438">
        <ele>247.7</ele>
        <time>2016-06-29T18:14:40Z</time>
      </trkpt>
      <trkpt lat="43.58294" lon="3.3545">
        <ele>249.3</ele>
        <time>2016-06-29T18:14:54Z</time>
      </trkpt>
      <trkpt lat="43.58299" lon="3.35455">
        <ele>249.9</ele>
        <time>2016-06-29T18:15:01Z</time>
      </trkpt>
      <trkpt lat="43.58306" lon="3.35456">
        <ele>250.9</ele>
        <time>2016-06-29T18:15:15Z</time>
      </trkpt>
      <trkpt lat="43.58313" lon="3.35456">
        <ele>251.4</ele>
        <time>2016-06-29T18:15:22Z</time>
      </trkpt>
      <trkpt lat="43.58316" lon="3.35455">
        <ele>252.2</ele>
        <time>2016-06-29T18:15:29Z</time>
      </trkpt>
      <trkpt lat="43.58318" lon="3.35457">
        <ele>253</ele>
        <time>2016-06-29T18:15:36Z</time>
      </trkpt>
      <trkpt lat="43.58316" lon="3.35459">
        <ele>253.6</ele>
        <time>2016-06-29T18:15:45Z</time>
      </trkpt>
      <trkpt lat="43.58315" lon="3.35462">
        <ele>254.7</ele>
        <time>2016-06-29T18:16:03Z</time>
      </trkpt>
      <trkpt lat="43.58321" lon="3.35458">
        <ele>255.6</ele>
        <time>2016-06-29T18:16:12Z</time>
      </trkpt>
      <trkpt lat="43.58328" lon="3.35454">
        <ele>256.5</ele>
        <time>2016-06-29T18:16:19Z</time>
      </trkpt>
      <trkpt lat="43.58327" lon="3.35451">
        <ele>257.1</ele>
        <time>2016-06-29T18:16:26Z</time>
      </trkpt>
      <trkpt lat="43.58328" lon="3.35453">
        <ele>257.2</ele>
        <time>2016-06-29T18:16:39Z</time>
      </trkpt>
      <trkpt lat="43.58326" lon="3.35452">
        <ele>257.3</ele>
        <time>2016-06-29T18:17:00Z</time>
      </trkpt>
      <trkpt lat="43.58325" lon="3.35452">
        <ele>257.5</ele>
        <time>2016-06-29T18:17:07Z</time>
      </trkpt>
      <trkpt lat="43.58326" lon="3.35454">
        <ele>257.9</ele>
        <time>2016-06-29T18:17:16Z</time>
      </trkpt>
      <trkpt lat="43.58325" lon="3.35469">
        <ele>258.5</ele>
        <time>2016-06-29T18:17:20Z</time>
      </trkpt>
      <trkpt lat="43.58324" lon="3.3548">
        <ele>259.4</ele>
        <time>2016-06-29T18:17:22Z</time>
      </trkpt>
      <trkpt lat="43.58323" lon="3.35494">
        <ele>260.3</ele>
        <time>2016-06-29T18:17:24Z</time>
      </trkpt>
      <trkpt lat="43.58321" lon="3.35506">
        <ele>259.7</ele>
        <time>2016-06-29T18:17:26Z</time>
      </trkpt>
      <trkpt lat="43.5832" lon="3.35518">
        <ele>258</ele>
        <time>2016-06-29T18:17:28Z</time>
      </trkpt>
      <trkpt lat="43.58319" lon="3.35532">
        <ele>257.3</ele>
        <time>2016-06-29T18:17:30Z</time>
      </trkpt>
      <trkpt lat="43.58316" lon="3.35546">
        <ele>256.3</ele>
        <time>2016-06-29T18:17:32Z</time>
      </trkpt>
      <trkpt lat="43.58313" lon="3.3556">
        <ele>255.5</ele>
        <time>2016-06-29T18:17:34Z</time>
      </trkpt>
      <trkpt lat="43.5831" lon="3.35574">
        <ele>254.5</ele>
        <time>2016-06-29T18:17:36Z</time>
      </trkpt>
      <trkpt lat="43.58307" lon="3.35589">
        <ele>253.3</ele>
        <time>2016-06-29T18:17:38Z</time>
      </trkpt>
      <trkpt lat="43.58302" lon="3.35602">
        <ele>252.4</ele>
        <time>2016-06-29T18:17:40Z</time>
      </trkpt>
      <trkpt lat="43.58296" lon="3.35614">
        <ele>251.6</ele>
        <time>2016-06-29T18:17:42Z</time>
      </trkpt>
      <trkpt lat="43.58288" lon="3.35627">
        <ele>251.5</ele>
        <time>2016-06-29T18:17:44Z</time>
      </trkpt>
      <trkpt lat="43.58283" lon="3.35642">
        <ele>251.2</ele>
        <time>2016-06-29T18:17:46Z</time>
      </trkpt>
      <trkpt lat="43.58281" lon="3.3566">
        <ele>250.3</ele>
        <time>2016-06-29T18:17:48Z</time>
      </trkpt>
      <trkpt lat="43.58279" lon="3.3567">
        <ele>249.7</ele>
        <time>2016-06-29T18:17:49Z</time>
      </trkpt>
      <trkpt lat="43.58275" lon="3.35688">
        <ele>249.2</ele>
        <time>2016-06-29T18:17:51Z</time>
      </trkpt>
      <trkpt lat="43.5827" lon="3.35704">
        <ele>248.7</ele>
        <time>2016-06-29T18:17:53Z</time>
      </trkpt>
      <trkpt lat="43.58267" lon="3.35714">
        <ele>248.4</ele>
        <time>2016-06-29T18:17:54Z</time>
      </trkpt>
      <trkpt lat="43.58264" lon="3.35724">
        <ele>247.4</ele>
        <time>2016-06-29T18:17:55Z</time>
      </trkpt>
      <trkpt lat="43.5826" lon="3.35735">
        <ele>246.7</ele>
        <time>2016-06-29T18:17:56Z</time>
      </trkpt>
      <trkpt lat="43.58256" lon="3.35747">
        <ele>245.8</ele>
        <time>2016-06-29T18:17:57Z</time>
      </trkpt>
      <trkpt lat="43.58251" lon="3.35761">
        <ele>244.6</ele>
        <time>2016-06-29T18:17:58Z</time>
      </trkpt>
      <trkpt lat="43.58247" lon="3.35774">
        <ele>243.3</ele>
        <time>2016-06-29T18:17:59Z</time>
      </trkpt>
      <trkpt lat="43.58243" lon="3.35785">
        <ele>241.7</ele>
        <time>2016-06-29T18:18:00Z</time>
      </trkpt>
      <trkpt lat="43.58237" lon="3.35801">
        <ele>240.2</ele>
        <time>2016-06-29T18:18:01Z</time>
      </trkpt>
      <trkpt lat="43.58232" lon="3.35814">
        <ele>238.4</ele>
        <time>2016-06-29T18:18:02Z</time>
      </trkpt>
      <trkpt lat="43.58227" lon="3.35828">
        <ele>236.5</ele>
        <time>2016-06-29T18:18:03Z</time>
      </trkpt>
      <trkpt lat="43.58222" lon="3.35841">
        <ele>234.5</ele>
        <time>2016-06-29T18:18:04Z</time>
      </trkpt>
      <trkpt lat="43.58217" lon="3.35853">
        <ele>232.3</ele>
        <time>2016-06-29T18:18:05Z</time>
      </trkpt>
      <trkpt lat="43.58212" lon="3.35866">
        <ele>230.5</ele>
        <time>2016-06-29T18:18:06Z</time>
      </trkpt>
      <trkpt lat="43.58208" lon="3.35877">
        <ele>228.5</ele>
        <time>2016-06-29T18:18:07Z</time>
      </trkpt>
      <trkpt lat="43.58205" lon="3.35887">
        <ele>227.2</ele>
        <time>2016-06-29T18:18:08Z</time>
      </trkpt>
      <trkpt lat="43.58202" lon="3.35897">
        <ele>226.2</ele>
        <time>2016-06-29T18:18:09Z</time>
      </trkpt>
      <trkpt lat="43.58199" lon="3.35907">
        <ele>224.9</ele>
        <time>2016-06-29T18:18:10Z</time>
      </trkpt>
      <trkpt lat="43.58196" lon="3.35919">
        <ele>223.7</ele>
        <time>2016-06-29T18:18:11Z</time>
      </trkpt>
      <trkpt lat="43.58194" lon="3.3593">
        <ele>222.5</ele>
        <time>2016-06-29T18:18:12Z</time>
      </trkpt>
      <trkpt lat="43.58191" lon="3.35942">
        <ele>221.7</ele>
        <time>2016-06-29T18:18:13Z</time>
      </trkpt>
      <trkpt lat="43.58188" lon="3.35952">
        <ele>221</ele>
        <time>2016-06-29T18:18:14Z</time>
      </trkpt>
      <trkpt lat="43.58185" lon="3.35963">
        <ele>219.9</ele>
        <time>2016-06-29T18:18:15Z</time>
      </trkpt>
      <trkpt lat="43.58182" lon="3.35976">
        <ele>219.1</ele>
        <time>2016-06-29T18:18:16Z</time>
      </trkpt>
      <trkpt lat="43.58179" lon="3.35987">
        <ele>218.1</ele>
        <time>2016-06-29T18:18:17Z</time>
      </trkpt>
      <trkpt lat="43.58172" lon="3.36005">
        <ele>216.6</ele>
        <time>2016-06-29T18:18:19Z</time>
      </trkpt>
      <trkpt lat="43.58167" lon="3.36013">
        <ele>216.2</ele>
        <time>2016-06-29T18:18:20Z</time>
      </trkpt>
      <trkpt lat="43.58158" lon="3.36028">
        <ele>214.9</ele>
        <time>2016-06-29T18:18:22Z</time>
      </trkpt>
      <trkpt lat="43.58147" lon="3.36043">
        <ele>213.7</ele>
        <time>2016-06-29T18:18:24Z</time>
      </trkpt>
      <trkpt lat="43.58142" lon="3.36049">
        <ele>212.8</ele>
        <time>2016-06-29T18:18:25Z</time>
      </trkpt>
      <trkpt lat="43.58135" lon="3.36057">
        <ele>212.1</ele>
        <time>2016-06-29T18:18:26Z</time>
      </trkpt>
      <trkpt lat="43.58129" lon="3.36063">
        <ele>211.8</ele>
        <time>2016-06-29T18:18:27Z</time>
      </trkpt>
      <trkpt lat="43.58121" lon="3.36071">
        <ele>211.2</ele>
        <time>2016-06-29T18:18:28Z</time>
      </trkpt>
      <trkpt lat="43.58113" lon="3.36076">
        <ele>210.1</ele>
        <time>2016-06-29T18:18:29Z</time>
      </trkpt>
      <trkpt lat="43.58106" lon="3.3608">
        <ele>209</ele>
        <time>2016-06-29T18:18:30Z</time>
      </trkpt>
      <trkpt lat="43.58097" lon="3.36094">
        <ele>207.2</ele>
        <time>2016-06-29T18:18:32Z</time>
      </trkpt>
      <trkpt lat="43.58094" lon="3.36103">
        <ele>206.3</ele>
        <time>2016-06-29T18:18:33Z</time>
      </trkpt>
      <trkpt lat="43.58087" lon="3.36119">
        <ele>204.1</ele>
        <time>2016-06-29T18:18:35Z</time>
      </trkpt>
      <trkpt lat="43.5808" lon="3.36125">
        <ele>202.9</ele>
        <time>2016-06-29T18:18:37Z</time>
      </trkpt>
      <trkpt lat="43.58074" lon="3.36117">
        <ele>201.5</ele>
        <time>2016-06-29T18:18:41Z</time>
      </trkpt>
      <trkpt lat="43.58066" lon="3.36111">
        <ele>199.1</ele>
        <time>2016-06-29T18:18:43Z</time>
      </trkpt>
      <trkpt lat="43.58058" lon="3.3612">
        <ele>196.7</ele>
        <time>2016-06-29T18:18:46Z</time>
      </trkpt>
      <trkpt lat="43.58054" lon="3.36135">
        <ele>194.4</ele>
        <time>2016-06-29T18:18:48Z</time>
      </trkpt>
      <trkpt lat="43.58053" lon="3.3615">
        <ele>193.2</ele>
        <time>2016-06-29T18:18:50Z</time>
      </trkpt>
      <trkpt lat="43.58053" lon="3.36162">
        <ele>192.6</ele>
        <time>2016-06-29T18:18:52Z</time>
      </trkpt>
      <trkpt lat="43.58048" lon="3.36171">
        <ele>192.5</ele>
        <time>2016-06-29T18:18:54Z</time>
      </trkpt>
      <trkpt lat="43.58038" lon="3.36167">
        <ele>191.7</ele>
        <time>2016-06-29T18:18:57Z</time>
      </trkpt>
      <trkpt lat="43.5803" lon="3.36164">
        <ele>190.4</ele>
        <time>2016-06-29T18:18:59Z</time>
      </trkpt>
      <trkpt lat="43.58023" lon="3.36169">
        <ele>189.3</ele>
        <time>2016-06-29T18:19:01Z</time>
      </trkpt>
      <trkpt lat="43.58017" lon="3.36179">
        <ele>188.2</ele>
        <time>2016-06-29T18:19:03Z</time>
      </trkpt>
      <trkpt lat="43.58014" lon="3.36185">
        <ele>187.8</ele>
        <time>2016-06-29T18:19:10Z</time>
      </trkpt>
      <trkpt lat="43.58005" lon="3.36188">
        <ele>185.3</ele>
        <time>2016-06-29T18:18:49Z</time>
      </trkpt>
      <trkpt lat="43.57994" lon="3.36187">
        <ele>184.4</ele>
        <time>2016-06-29T18:19:57Z</time>
      </trkpt>
      <trkpt lat="43.57983" lon="3.36188">
        <ele>184.6</ele>
        <time>2016-06-29T18:19:59Z</time>
      </trkpt>
      <trkpt lat="43.57973" lon="3.36195">
        <ele>183.9</ele>
        <time>2016-06-29T18:20:01Z</time>
      </trkpt>
      <trkpt lat="43.57965" lon="3.36203">
        <ele>181.1</ele>
        <time>2016-06-29T18:20:03Z</time>
      </trkpt>
      <trkpt lat="43.57957" lon="3.36214">
        <ele>179.6</ele>
        <time>2016-06-29T18:20:05Z</time>
      </trkpt>
      <trkpt lat="43.57949" lon="3.36225">
        <ele>179.8</ele>
        <time>2016-06-29T18:20:07Z</time>
      </trkpt>
      <trkpt lat="43.57938" lon="3.36233">
        <ele>179.5</ele>
        <time>2016-06-29T18:20:09Z</time>
      </trkpt>
      <trkpt lat="43.57928" lon="3.36239">
        <ele>178.3</ele>
        <time>2016-06-29T18:20:11Z</time>
      </trkpt>
      <trkpt lat="43.5792" lon="3.36242">
        <ele>178</ele>
        <time>2016-06-29T18:20:13Z</time>
      </trkpt>
      <trkpt lat="43.57913" lon="3.36244">
        <ele>178.1</ele>
        <time>2016-06-29T18:20:15Z</time>
      </trkpt>
      <trkpt lat="43.57905" lon="3.36245">
        <ele>178.1</ele>
        <time>2016-06-29T18:20:17Z</time>
      </trkpt>
      <trkpt lat="43.57897" lon="3.36243">
        <ele>178.3</ele>
        <time>2016-06-29T18:20:20Z</time>
      </trkpt>
      <trkpt lat="43.57888" lon="3.36238">
        <ele>178.6</ele>
        <time>2016-06-29T18:20:23Z</time>
      </trkpt>
      <trkpt lat="43.57882" lon="3.36232">
        <ele>178.7</ele>
        <time>2016-06-29T18:20:25Z</time>
      </trkpt>
      <trkpt lat="43.57877" lon="3.36226">
        <ele>178.9</ele>
        <time>2016-06-29T18:20:27Z</time>
      </trkpt>
      <trkpt lat="43.57869" lon="3.36218">
        <ele>179</ele>
        <time>2016-06-29T18:20:30Z</time>
      </trkpt>
      <trkpt lat="43.57863" lon="3.3621">
        <ele>179.3</ele>
        <time>2016-06-29T18:20:33Z</time>
      </trkpt>
      <trkpt lat="43.57856" lon="3.36203">
        <ele>179.5</ele>
        <time>2016-06-29T18:20:37Z</time>
      </trkpt>
      <trkpt lat="43.57848" lon="3.36206">
        <ele>180.4</ele>
        <time>2016-06-29T18:20:40Z</time>
      </trkpt>
      <trkpt lat="43.57839" lon="3.36214">
        <ele>180.2</ele>
        <time>2016-06-29T18:20:42Z</time>
      </trkpt>
      <trkpt lat="43.5783" lon="3.3622">
        <ele>180.2</ele>
        <time>2016-06-29T18:20:44Z</time>
      </trkpt>
      <trkpt lat="43.57817" lon="3.3623">
        <ele>179.6</ele>
        <time>2016-06-29T18:20:46Z</time>
      </trkpt>
      <trkpt lat="43.57809" lon="3.36236">
        <ele>179</ele>
        <time>2016-06-29T18:20:47Z</time>
      </trkpt>
      <trkpt lat="43.57801" lon="3.36242">
        <ele>178.1</ele>
        <time>2016-06-29T18:20:48Z</time>
      </trkpt>
      <trkpt lat="43.57793" lon="3.36247">
        <ele>177.6</ele>
        <time>2016-06-29T18:20:49Z</time>
      </trkpt>
      <trkpt lat="43.57779" lon="3.36254">
        <ele>176.5</ele>
        <time>2016-06-29T18:20:51Z</time>
      </trkpt>
      <trkpt lat="43.57769" lon="3.36262">
        <ele>176.1</ele>
        <time>2016-06-29T18:20:53Z</time>
      </trkpt>
      <trkpt lat="43.5776" lon="3.36273">
        <ele>175.3</ele>
        <time>2016-06-29T18:20:55Z</time>
      </trkpt>
      <trkpt lat="43.57752" lon="3.36283">
        <ele>175.2</ele>
        <time>2016-06-29T18:20:57Z</time>
      </trkpt>
      <trkpt lat="43.57745" lon="3.36291">
        <ele>175.5</ele>
        <time>2016-06-29T18:20:59Z</time>
      </trkpt>
      <trkpt lat="43.57739" lon="3.3628">
        <ele>175.7</ele>
        <time>2016-06-29T18:21:04Z</time>
      </trkpt>
      <trkpt lat="43.57738" lon="3.36275">
        <ele>175.7</ele>
        <time>2016-06-29T18:21:11Z</time>
      </trkpt>
      <trkpt lat="43.57738" lon="3.36265">
        <ele>174.5</ele>
        <time>2016-06-29T18:23:48Z</time>
      </trkpt>
      <trkpt lat="43.57738" lon="3.36262">
        <ele>174.6</ele>
        <time>2016-06-29T18:23:55Z</time>
      </trkpt>
      <trkpt lat="43.57733" lon="3.36261">
        <ele>175</ele>
        <time>2016-06-29T18:25:58Z</time>
      </trkpt>
      <trkpt lat="43.57734" lon="3.36262">
        <ele>174.9</ele>
        <time>2016-06-29T18:26:05Z</time>
      </trkpt>
      <trkpt lat="43.57739" lon="3.3626">
        <ele>174.8</ele>
        <time>2016-06-29T18:26:12Z</time>
      </trkpt>
    </trkseg>
  </trk>
</gpx>